[[[{"header":{"parameterUnit":"kt","parameterCategory":2,"dx":1,"dy":1,"la1":29.587661999999998,"la2":31.0,"lo1":-88.76705300000003,"lo2":-86.6583820000003,"nx":115,"ny":88,"refTime":"2022-10-08T06:00:00:Z","depth":0,"parameterNumber":1,"parameterNumberName":"U-component_of_WINDS"},"data":[-2.6069,-2.6457,-2.635,-2.6215,-2.6041,-2.6041,-2.6041,-2.6094,-2.6305,-2.645,-2.6621,-2.7171,-2.7356,-2.7188,-2.7436,-2.7778,-2.8163,-2.8627,-2.8297,-2.8138,-2.8297,-2.7967,-2.7821,-2.7847,-2.7808,-2.7887,-2.8019,-2.8164,-2.8388,-2.8533,-2.8718,-2.9353,-2.938,-2.95,-2.9909,-3.0158,-3.0326,-3.0421,-3.0421,-3.0421,-3.0786,-3.1192,-3.228,-3.2237,-3.2251,-3.2237,-3.2237,-3.2237,-3.2092,-3.1889,-3.1316,-3.123,-3.1216,-3.1244,-3.1422,-3.1599,-3.1645,-3.1939,-3.2027,-3.2098,-3.2183,-3.2707,-3.2804,-3.2809,-3.2936,-3.3125,-3.3078,-3.3155,-3.314,-3.3124,-3.3108,-3.3263,-3.3263,-3.3263,-3.3247,-3.3247,-3.3247,-3.3247,-3.3247,-3.3247,-3.32,-3.3105,-3.3074,-3.2963,-3.2963,-3.2916,-3.29,-3.2916,-3.2853,-3.2774,-3.2648,-3.2458,-3.2253,-3.2158,-3.2032,-3.1921,-3.1921,-3.189,-3.1779,-3.1621,-3.1432,-3.1051,-3.1051,-3.14,-3.1306,-3.1242,-3.1066,-3.1098,-3.1035,-3.1035,-3.1035,-3.1035,-3.1035,-3.1035,-3.1035,-2.7216,-2.7777,-2.7392,-2.686,-2.6054,-2.6041,-2.6041,-2.6054,-2.6094,-2.6252,-2.664,-2.7376,-2.7239,-2.729,-2.792,-2.8292,-2.8823,-2.933,-2.9299,-2.9142,-2.897,-2.864,-2.831,-2.7967,-2.8138,-2.8179,-2.8205,-2.8352,-2.8499,-2.8579,-2.9104,-2.9715,-3.0015,-3.0454,-3.1215,-3.1509,-3.1428,-3.1569,-3.1569,-3.1808,-3.1803,-3.1739,-3.1744,-3.1628,-3.1422,-3.1407,-3.1422,-3.1422,-3.1422,-3.1483,-3.1631,-3.1558,-3.1719,-3.1661,-3.2056,-3.2348,-3.2213,-3.2646,-3.2948,-3.2794,-3.3015,-3.3094,-3.3187,-3.3171,-3.3171,-3.314,-3.314,-3.3279,-3.3279,-3.3263,-3.3263,-3.3263,-3.3263,-3.3263,-3.3247,-3.3232,-3.3232,-3.3216,-3.3216,-3.3216,-3.3042,-3.2653,-3.2695,-3.249,-3.2426,-3.2363,-3.2348,-3.2348,-3.2379,-3.2395,-3.2269,-3.2032,-3.1842,-3.1621,-3.1416,-3.14,-3.1463,-3.1463,-3.1527,-3.1337,-3.1211,-3.1035,-3.1035,-3.1035,-3.1035,-3.1051,-3.1035,-3.1035,-3.1035,-3.1035,-3.1035,-3.1035,-3.1035,-3.1035,-3.1035,-2.752,-2.818,-2.8004,-2.7811,-2.7329,-2.7021,-2.686,-2.686,-2.686,-2.7089,-2.7685,-2.8022,-2.8121,-2.821,-2.8543,-2.8949,-2.9557,-3.0039,-2.9998,-2.997,-2.9841,-2.9498,-2.9498,-2.9512,-2.9169,-2.9341,-2.9341,-2.9197,-2.948,-2.9564,-2.9689,-3.029,-3.055,-3.0839,-3.1287,-3.1537,-3.1667,-3.2135,-3.1932,-3.2411,-3.3407,-3.327,-3.2911,-3.288,-3.2895,-3.3072,-3.288,-3.288,-3.2789,-3.2668,-3.2638,-3.2593,-3.2456,-3.2222,-3.2539,-3.284,-3.2951,-3.2984,-3.3297,-3.3218,-3.3155,-3.3155,-3.3279,-3.3108,-3.3263,-3.3263,-3.3263,-3.3263,-3.3263,-3.3216,-3.3216,-3.3184,-3.3184,-3.309,-3.3042,-3.2995,-3.2979,-3.29,-3.2821,-3.2805,-3.2663,-3.2474,-3.2395,-3.2205,-3.2174,-3.2142,-3.2221,-3.2269,-3.219,-3.2142,-3.1874,-3.1637,-3.1479,-3.1098,-3.1035,-3.1035,-3.1035,-3.1035,-3.1098,-3.1035,-3.1035,-3.1035,-3.1035,-3.1035,-3.1035,-3.1035,-3.1035,-3.1035,-3.1035,-3.0941,-3.0956,-3.0956,-3.1035,-3.1035,-3.0784,-2.7947,-2.8575,-2.8657,-2.8702,-2.844,-2.7972,-2.7664,-2.7664,-2.7986,-2.8308,-2.86,-2.879,-2.8906,-2.8785,-2.9093,-2.9683,-3.0122,-3.0634,-3.0687,-3.065,-3.084,-3.0512,-3.0527,-3.0184,-3.0356,-3.0527,-3.0527,-3.0199,-3.0242,-3.0413,-3.0672,-3.1048,-3.1077,-3.1586,-3.2217,-3.2247,-3.2381,-3.2664,-3.2588,-3.2874,-3.3637,-3.3972,-3.4037,-3.3846,-3.3846,-3.364,-3.3781,-3.3988,-3.3862,-3.3942,-3.3863,-3.3658,-3.3405,-3.3326,-3.3279,-3.3263,-3.3155,-3.314,-3.3295,-3.3295,-3.3263,-3.3263,-3.3263,-3.3263,-3.3263,-3.3263,-3.3263,-3.3263,-3.3247,-3.3184,-3.3153,-3.3105,-3.3058,-3.2916,-3.2774,-3.2695,-3.2632,-3.2474,-3.23,-3.2237,-3.2174,-3.2111,-3.2079,-3.2032,-3.2,-3.2,-3.2,-3.1984,-3.1842,-3.1763,-3.1495,-3.1416,-3.1066,-3.1035,-3.1035,-3.1035,-3.1035,-3.1035,-3.1035,-3.1035,-3.1035,-3.1035,-3.1035,-3.1035,-3.1004,-3.1035,-3.1035,-3.0988,-3.1037,-3.0974,-3.0927,-3.0737,-3.0627,-3.1242,-3.0829,-2.875,-2.9331,-2.9343,-2.9119,-2.8586,-2.86,-2.844,-2.8615,-2.9417,-2.9417,-2.8921,-2.9417,-2.9447,-2.9229,-2.9907,-3.0443,-3.07,-3.1397,-3.1626,-3.1259,-3.1499,-3.1294,-3.0967,-3.0527,-3.1041,-3.0698,-3.0698,-3.1041,-3.0698,-3.0884,-3.1398,-3.174,-3.1786,-3.2296,-3.2917,-3.3137,-3.3245,-3.3255,-3.3137,-3.3093,-3.3532,-3.3563,-3.3342,-3.3389,-3.3468,-3.3547,-3.3784,-3.391,-3.3958,-3.4053,-3.4021,-3.3832,-3.3626,-3.3484,-3.3326,-3.3279,-3.3263,-3.3263,-3.3263,-3.3263,-3.3263,-3.3263,-3.3263,-3.3232,-3.3184,-3.3153,-3.3058,-3.3042,-3.2979,-3.2916,-3.2837,-3.279,-3.2711,-3.2569,-3.2426,-3.2316,-3.2221,-3.2095,-3.1969,-3.1921,-3.1842,-3.1748,-3.1716,-3.1653,-3.1621,-3.1416,-3.1223,-3.1239,-3.1192,-3.1192,-3.1098,-3.1098,-3.1035,-3.1035,-3.1035,-3.1035,-3.1035,-3.1019,-3.1035,-3.1035,-3.1004,-3.1019,-3.1035,-3.0909,-3.0958,-3.0894,-3.0847,-3.0832,-3.069,-3.0674,-3.0579,-3.0358,-3.0697,-3.1268,-3.1549,-2.9125,-2.9496,-2.9471,-2.9579,-2.9739,-2.9488,-2.9738,-3.0058,-3.0539,-3.0539,-3.0219,-3.0379,-3.0554,-3.0089,-3.0533,-3.1026,-3.1212,-3.1899,-3.2119,-3.1791,-3.2269,-3.1902,-3.2039,-3.2116,-3.2022,-3.2238,-3.2238,-3.1896,-3.2238,-3.2238,-3.2238,-3.2565,-3.2751,-3.3015,-3.3265,-3.3516,-3.3595,-3.3547,-3.3484,-3.3389,-3.3389,-3.3358,-3.3279,-3.3342,-3.3563,-3.3658,-3.3816,-3.4068,-3.4147,-3.421,-3.4226,-3.4021,-3.3753,-3.3674,-3.3547,-3.3263,-3.3263,-3.3263,-3.3263,-3.3263,-3.3263,-3.3263,-3.3263,-3.3153,-3.3042,-3.2932,-3.2853,-3.2774,-3.2695,-3.2616,-3.2521,-3.2426,-3.2316,-3.2221,-3.2063,-3.1921,-3.1827,-3.1732,-3.1669,-3.1621,-3.1558,-3.1448,-3.1369,-3.1114,-3.1035,-3.1035,-3.1035,-3.1035,-3.1035,-3.1035,-3.1035,-3.1035,-3.1035,-3.1035,-3.1035,-3.1035,-3.1004,-3.0972,-3.0941,-3.0894,-3.0988,-3.0925,-3.0895,-3.08,-3.0737,-3.0627,-3.0532,-3.0406,-3.0514,-3.0343,-3.0279,-3.196,-3.3529,-3.3627,-3.4159,-2.9238,-2.9474,-2.9417,-2.9901,-3.0374,-2.9998,-3.023,-3.0894,-3.1164,-3.1035,-3.1035,-3.1035,-3.1035,-3.1035,-3.1035,-3.1176,-3.1495,-3.1669,-3.1874,-3.2111,-3.2276,-3.2464,-3.2637,-3.281,-3.3153,-3.3061,-3.3092,-3.2922,-3.3092,-3.3092,-3.3092,-3.3263,-3.3092,-3.3092,-3.3279,-3.3263,-3.3295,-3.3295,-3.3311,-3.3295,-3.3279,-3.3279,-3.3263,-3.3295,-3.3453,-3.3626,-3.3768,-3.3989,-3.4274,-3.4337,-3.4353,-3.4226,-3.3926,-3.3832,-3.3642,-3.3326,-3.3263,-3.3263,-3.3263,-3.3263,-3.3263,-3.3263,-3.3011,-3.2853,-3.2695,-3.2584,-3.2505,-3.2442,-3.2379,-3.2253,-3.2142,-3.2048,-3.1953,-3.1827,-3.1653,-3.1558,-3.1527,-3.1448,-3.1416,-3.1369,-3.1369,-3.1114,-3.1114,-3.1035,-3.1035,-3.1035,-3.1035,-3.1035,-3.1035,-3.1035,-3.1035,-3.1035,-3.1035,-3.1035,-3.1035,-3.0862,-3.1037,-3.1021,-3.0848,-3.0737,-3.0753,-3.069,-3.0564,-3.0485,-3.0453,-3.0311,-3.0431,-3.0505,-3.0765,-3.0457,-3.2028,-3.4501,-3.6564,-3.6841,-3.7244,-2.9245,-2.9159,-2.9474,-2.9632,-2.9664,-2.9621,-2.9951,-3.0674,-3.1021,-3.1019,-3.1035,-3.1035,-3.1035,-3.1035,-3.1035,-3.1066,-3.1129,-3.1527,-3.1653,-3.1811,-3.2079,-3.2379,-3.2584,-3.2742,-3.2932,-3.3121,-3.3216,-3.3168,-3.3263,-3.3263,-3.3263,-3.3263,-3.3263,-3.3263,-3.3263,-3.3263,-3.3263,-3.3263,-3.3263,-3.3263,-3.3263,-3.3263,-3.3263,-3.3311,-3.3405,-3.3579,-3.3753,-3.3926,-3.4242,-3.44,-3.4463,-3.4145,-3.4163,-3.3958,-3.3626,-3.3374,-3.3263,-3.3263,-3.3247,-3.32,-3.3184,-3.2995,-3.2648,-3.2379,-3.2253,-3.2237,-3.2142,-3.2079,-3.1984,-3.1874,-3.1779,-3.17,-3.1621,-3.1495,-3.1321,-3.129,-3.1258,-3.1242,-3.1051,-3.1035,-3.1035,-3.1035,-3.1035,-3.1035,-3.1035,-3.1035,-3.1035,-3.1035,-3.1035,-3.1035,-3.1053,-3.1053,-3.1037,-3.0941,-3.099,-3.0769,-3.0737,-3.069,-3.0532,-3.0453,-3.0295,-3.0232,-3.0943,-3.1219,-3.0585,-3.0951,-3.2266,-3.2298,-3.1926,-3.3147,-3.4989,-3.7647,-4.142,-4.1285,-4.1554,-2.9245,-2.9261,-2.9222,-2.9395,-2.9601,-2.9616,-2.9743,-3.0043,-3.0595,-3.099,-3.1148,-3.1035,-3.1035,-3.1035,-3.1035,-3.1035,-3.1035,-3.1161,-3.1369,-3.1416,-3.1716,-3.1953,-3.2142,-3.2284,-3.26,-3.2837,-3.2947,-3.3074,-3.3216,-3.3247,-3.3263,-3.3263,-3.3263,-3.3263,-3.3263,-3.3263,-3.3263,-3.3263,-3.3263,-3.3263,-3.3263,-3.3263,-3.3263,-3.3311,-3.3453,-3.3626,-3.38,-3.4005,-3.4242,-3.4353,-3.4337,-3.4195,-3.4005,-3.3816,-3.3626,-3.3374,-3.3263,-3.3247,-3.3153,-3.3074,-3.2774,-3.2632,-3.2411,-3.2127,-3.1921,-3.189,-3.1779,-3.1653,-3.1527,-3.1448,-3.14,-3.1385,-3.1337,-3.1337,-3.1066,-3.1066,-3.1051,-3.1051,-3.1035,-3.1035,-3.1035,-3.1035,-3.1035,-3.1035,-3.0988,-3.1004,-3.1004,-3.1035,-3.1035,-3.0974,-3.0785,-3.0721,-3.0674,-3.0643,-3.0532,-3.0422,-3.0374,-3.0343,-3.0311,-3.0264,-3.0415,-3.1825,-3.1944,-3.2214,-3.2835,-3.3466,-3.4409,-3.5549,-3.6217,-3.7244,-3.8741,-4.1913,-4.5486,-4.6637,-4.7237,-2.9245,-2.9245,-2.9245,-2.9222,-2.9427,-2.9443,-2.9522,-2.9695,-3.0106,-3.0579,-3.0958,-3.1004,-3.1035,-3.1035,-3.1035,-3.1035,-3.1035,-3.1035,-3.1035,-3.1066,-3.1416,-3.1558,-3.1748,-3.2,-3.2237,-3.2521,-3.2742,-3.2916,-3.3105,-3.3232,-3.3247,-3.3263,-3.3263,-3.3263,-3.3263,-3.3263,-3.3263,-3.3263,-3.3263,-3.3263,-3.3263,-3.3263,-3.3263,-3.3263,-3.3453,-3.3547,-3.3579,-3.3705,-3.3926,-3.4084,-3.4116,-3.4005,-3.3879,-3.3816,-3.3563,-3.3184,-3.309,-3.3058,-3.2853,-3.26,-3.23,-3.2111,-3.1906,-3.1716,-3.1574,-3.1527,-3.1416,-3.1274,-3.129,-3.1114,-3.1035,-3.1035,-3.1195,-3.1035,-3.1035,-3.1035,-3.1035,-3.1035,-3.1035,-3.1035,-3.1035,-3.1035,-3.1035,-3.1035,-3.1069,-3.1037,-3.0753,-3.0753,-3.08,-3.0611,-3.1094,-3.0842,-3.1056,-3.0649,-3.0106,-3.0043,-2.9995,-3.1603,-3.2045,-3.1892,-3.2636,-3.3882,-3.469,-3.6295,-3.608,-3.5885,-3.6594,-3.7392,-3.9138,-4.1699,-4.4067,-4.6806,-4.7836,-4.8751,-4.9938,-2.9245,-2.9245,-2.9245,-2.9245,-2.9276,-2.9261,-2.9285,-2.9553,-2.9527,-3.009,-3.0721,-3.1053,-3.1035,-3.1035,-3.1035,-3.1035,-3.1035,-3.1035,-3.1035,-3.1035,-3.1114,-3.14,-3.1558,-3.1684,-3.1874,-3.2221,-3.2426,-3.26,-3.2637,-3.3042,-3.3216,-3.3232,-3.32,-3.32,-3.3263,-3.3263,-3.3263,-3.3263,-3.3263,-3.3263,-3.3263,-3.3263,-3.3263,-3.3263,-3.3342,-3.3358,-3.3374,-3.3453,-3.3579,-3.3705,-3.3737,-3.3658,-3.3579,-3.3579,-3.3295,-3.2805,-3.2758,-3.26,-3.2284,-3.1906,-3.1763,-3.1684,-3.1527,-3.1369,-3.1258,-3.1066,-3.1051,-3.1066,-3.1035,-3.1035,-3.1035,-3.1035,-3.1035,-3.1035,-3.1035,-3.1035,-3.1035,-3.1035,-3.1035,-3.1035,-3.1035,-3.1035,-3.1019,-3.0972,-3.0974,-3.0847,-3.0358,-3.0248,-3.0279,-3.0665,-3.1511,-3.1873,-3.2691,-3.2875,-3.3512,-3.1623,-3.1404,-3.3413,-3.4821,-3.5939,-3.6821,-3.6781,-3.8195,-4.0141,-4.0513,-4.0513,-4.0097,-3.9638,-4.2437,-4.5419,-4.821,-4.9035,-4.9162,-4.9338,-4.948,-2.9245,-2.9245,-2.9245,-2.9245,-2.9245,-2.9245,-2.9159,-2.9285,-2.9506,-3.0011,-3.0674,-3.1021,-3.1035,-3.1035,-3.1035,-3.1035,-3.1035,-3.1035,-3.1035,-3.1035,-3.1035,-3.1082,-3.1306,-3.14,-3.1542,-3.1795,-3.2016,-3.2332,-3.2496,-3.2837,-3.2995,-3.3074,-3.3058,-3.3105,-3.3168,-3.3263,-3.3263,-3.3263,-3.3263,-3.3263,-3.3263,-3.3263,-3.3263,-3.3263,-3.3232,-3.3232,-3.3216,-3.3184,-3.3279,-3.3279,-3.3216,-3.3105,-3.2995,-3.2837,-3.26,-3.2458,-3.2379,-3.2348,-3.2111,-3.1748,-3.1353,-3.1385,-3.1066,-3.1051,-3.1035,-3.1035,-3.1035,-3.1035,-3.1035,-3.1035,-3.1035,-3.1035,-3.1035,-3.1035,-3.1035,-3.1035,-3.1035,-3.1035,-3.1035,-3.1004,-3.1004,-3.0988,-3.0956,-3.1037,-3.1101,-3.1137,-3.1065,-3.0983,-3.15,-3.257,-3.3261,-3.4214,-3.4876,-3.6093,-3.7277,-3.6495,-3.6158,-3.7835,-3.8678,-3.9805,-4.0491,-3.9638,-4.0513,-4.308,-4.4524,-4.4861,-4.5075,-4.5071,-4.693,-4.8837,-4.912,-4.9509,-4.9676,-4.9648,-4.9591,-2.9245,-2.9245,-2.9245,-2.9245,-2.9245,-2.9245,-2.9245,-2.9127,-2.9316,-2.9758,-3.0264,-3.0769,-3.1053,-3.1164,-3.1035,-3.1035,-3.1035,-3.1035,-3.1035,-3.1035,-3.1035,-3.1035,-3.1035,-3.1082,-3.1129,-3.1479,-3.1669,-3.2,-3.2379,-3.249,-3.2695,-3.2805,-3.2637,-3.2731,-3.3058,-3.3168,-3.3232,-3.3263,-3.3263,-3.3263,-3.3263,-3.3263,-3.3263,-3.3232,-3.3184,-3.3074,-3.3042,-3.2947,-3.2884,-3.2805,-3.2663,-3.2616,-3.2553,-3.2426,-3.2237,-3.2063,-3.2032,-3.1921,-3.1716,-3.1448,-3.1035,-3.1035,-3.1035,-3.1035,-3.1035,-3.1035,-3.1035,-3.1035,-3.1035,-3.1035,-3.1035,-3.1035,-3.1035,-3.1035,-3.1035,-3.1035,-3.1035,-3.1035,-3.1019,-3.0956,-3.0941,-3.1006,-3.0943,-3.118,-3.1669,-3.2044,-3.1977,-3.2317,-3.4009,-3.5307,-3.6702,-3.7789,-3.8044,-3.9098,-3.9223,-4.0163,-4.1095,-4.1822,-4.2571,-4.4139,-4.5749,-4.4548,-4.3947,-4.6055,-4.7941,-4.7732,-4.8167,-4.9693,-5.0147,-4.9815,-4.9922,-4.9943,-4.9995,-5.0103,-4.9763,-2.9245,-2.9245,-2.9245,-2.9245,-2.9245,-2.9245,-2.9245,-2.9245,-2.9261,-2.9348,-2.979,-3.0264,-3.0753,-3.1069,-3.0972,-3.1035,-3.1035,-3.1035,-3.1035,-3.1035,-3.1035,-3.1035,-3.1035,-3.1035,-3.1051,-3.129,-3.1448,-3.1621,-3.1779,-3.2063,-3.2111,-3.2221,-3.2411,-3.2449,-3.279,-3.2995,-3.3137,-3.3153,-3.3247,-3.3247,-3.3184,-3.3184,-3.3153,-3.3074,-3.2884,-3.2726,-3.2711,-3.249,-3.2363,-3.2363,-3.2253,-3.219,-3.2174,-3.2048,-3.1874,-3.1716,-3.1669,-3.1558,-3.1432,-3.1098,-3.1035,-3.1035,-3.1035,-3.1035,-3.1035,-3.1035,-3.1035,-3.1035,-3.1035,-3.1035,-3.1035,-3.1035,-3.1035,-3.1035,-3.1035,-3.0988,-3.1053,-3.1069,-3.1196,-3.1037,-3.0911,-3.0706,-3.0595,-3.3293,-3.419,-3.5496,-3.5683,-3.5664,-3.7177,-3.8867,-4.0206,-4.1308,-4.1531,-4.2066,-4.2066,-4.3103,-4.5149,-4.6325,-4.6409,-4.8005,-4.948,-4.9655,-4.8423,-4.9833,-4.9361,-4.97,-5.012,-4.9868,-4.9915,-5.0324,-5.0403,-5.004,-4.9927,-5.0034,-4.9635,-2.9245,-2.9245,-2.9245,-2.9245,-2.9245,-2.9245,-2.9245,-2.9245,-2.9245,-2.9285,-2.9616,-2.9822,-3.0248,-3.0721,-3.1037,-3.1004,-3.1035,-3.1035,-3.1035,-3.1035,-3.1035,-3.1035,-3.1035,-3.1035,-3.1035,-3.1035,-3.1337,-3.1448,-3.1558,-3.159,-3.1653,-3.1827,-3.2,-3.2127,-3.2379,-3.2679,-3.2884,-3.29,-3.3074,-3.3074,-3.2932,-3.2884,-3.2742,-3.2569,-3.2411,-3.2363,-3.2348,-3.2221,-3.219,-3.2127,-3.1969,-3.1827,-3.1795,-3.1669,-3.1479,-3.1416,-3.1369,-3.1129,-3.1082,-3.1035,-3.1035,-3.1035,-3.1035,-3.1035,-3.1035,-3.1035,-3.1035,-3.1035,-3.1035,-3.1035,-3.1195,-3.1195,-3.1323,-3.1308,-3.1292,-3.099,-3.0864,-3.1242,-3.1509,-3.1883,-3.217,-3.1383,-3.3355,-3.5778,-3.7574,-3.8993,-3.9474,-3.9453,-4.0747,-4.2472,-4.3874,-4.5198,-4.6131,-4.7655,-4.8083,-4.9018,-4.9811,-5.061,-5.0366,-5.0761,-5.0482,-5.0649,-5.0732,-5.059,-5.0337,-5.0333,-4.9891,-4.9565,-4.918,-4.9578,-4.9863,-4.9749,-4.9834,-4.9721,-4.9607,-2.8953,-2.9245,-2.9245,-2.9245,-2.9245,-2.9245,-2.9245,-2.9245,-2.9245,-2.9206,-2.938,-2.9537,-2.9822,-3.0248,-3.0753,-3.1021,-3.1019,-3.1035,-3.1035,-3.1035,-3.1035,-3.1035,-3.1035,-3.1035,-3.1035,-3.1035,-3.1066,-3.1337,-3.1353,-3.1306,-3.1098,-3.1495,-3.1621,-3.1811,-3.2,-3.2348,-3.249,-3.2584,-3.2695,-3.2711,-3.2584,-3.2521,-3.2442,-3.2253,-3.2079,-3.2016,-3.1953,-3.189,-3.1779,-3.1748,-3.1621,-3.1479,-3.1416,-3.1161,-3.1035,-3.1035,-3.1035,-3.1035,-3.1035,-3.1035,-3.1035,-3.1035,-3.1035,-3.1035,-3.1035,-3.1035,-3.1035,-3.1195,-3.1035,-3.1035,-3.1195,-3.2442,-3.2217,-3.2102,-3.2637,-3.1982,-3.1315,-3.1719,-3.2812,-3.3241,-3.3967,-3.5365,-3.701,-3.9246,-4.115,-4.2495,-4.3197,-4.3898,-4.5486,-4.6131,-4.6966,-4.8421,-5.0047,-5.1491,-5.1884,-5.1939,-5.1434,-5.1236,-5.098,-5.0838,-5.1001,-5.0915,-5.075,-5.0551,-5.0324,-5.0119,-4.9721,-4.9465,-4.9436,-4.9379,-4.9322,-4.9806,-5.0233,-5.0062,-5.009,-2.8764,-2.9032,-2.908,-2.9245,-2.9245,-2.9245,-2.9245,-2.9245,-2.9245,-2.9245,-2.9159,-2.9411,-2.9569,-2.979,-3.0311,-3.0737,-3.1021,-3.0988,-3.1035,-3.1035,-3.1035,-3.1035,-3.1035,-3.1035,-3.1035,-3.1035,-3.1035,-3.1035,-3.1066,-3.1066,-3.1051,-3.1098,-3.1479,-3.1637,-3.1669,-3.1984,-3.2158,-3.2174,-3.2237,-3.23,-3.2332,-3.23,-3.219,-3.2016,-3.1795,-3.1637,-3.1606,-3.1448,-3.1306,-3.1114,-3.1066,-3.1051,-3.1035,-3.1035,-3.1035,-3.1035,-3.1035,-3.1035,-3.1035,-3.1035,-3.1035,-3.1035,-3.1035,-3.1035,-3.1035,-3.1035,-3.1339,-3.1339,-3.2535,-3.2963,-3.3881,-3.5112,-3.4461,-3.4441,-3.4922,-3.4259,-3.3395,-3.5226,-3.6027,-3.6743,-4.0222,-4.1226,-4.1634,-4.3244,-4.4741,-4.5893,-4.7212,-4.8982,-4.9954,-4.9196,-4.9541,-5.0111,-5.1406,-5.1234,-5.137,-5.1171,-5.0891,-5.0721,-5.0494,-5.0324,-5.0318,-5.0204,-5.0233,-5.0233,-5.0176,-4.9891,-4.9891,-4.9891,-4.9778,-4.9806,-4.9891,-5.0233,-5.0574,-5.0574,-5.0489,-2.8622,-2.8717,-2.8985,-2.9245,-2.9245,-2.9245,-2.9245,-2.9245,-2.9245,-2.9245,-2.9261,-2.9174,-2.9364,-2.9601,-2.9837,-3.0201,-3.0769,-3.1085,-3.1004,-3.1019,-3.1035,-3.1035,-3.1035,-3.1035,-3.1035,-3.1035,-3.1035,-3.1035,-3.1035,-3.1035,-3.1035,-3.1066,-3.1066,-3.1129,-3.1369,-3.1653,-3.1748,-3.189,-3.2063,-3.2395,-3.2505,-3.2363,-3.1984,-3.1448,-3.1321,-3.1466,-3.1643,-3.1227,-3.1035,-3.1035,-3.1035,-3.1035,-3.1035,-3.1035,-3.1035,-3.1035,-3.1035,-3.1035,-3.1195,-3.1499,-3.1659,-3.1659,-3.1195,-3.1195,-3.1339,-3.2106,-3.2568,-3.5061,-3.6754,-3.7913,-3.7563,-3.8701,-3.8327,-3.7728,-3.8452,-3.9243,-3.827,-3.8516,-3.9457,-4.2515,-4.6482,-4.7941,-4.8202,-4.941,-4.867,-4.9696,-4.9534,-5.1291,-5.118,-5.073,-5.0537,-5.1234,-5.1342,-5.1001,-5.0688,-5.0517,-5.0204,-5.0119,-5.0034,-5.0034,-4.9834,-4.9721,-4.9493,-4.9522,-4.9607,-5.0119,-5.0318,-5.0375,-5.0119,-5.0062,-5.0375,-5.0602,-5.0745,-5.0802,-5.0716,-2.8432,-2.8622,-2.8953,-2.9245,-2.9245,-2.9245,-2.9245,-2.9245,-2.9245,-2.9245,-2.9245,-2.9245,-2.9206,-2.9364,-2.9522,-3.0011,-3.0548,-3.0879,-3.1021,-3.1019,-3.1035,-3.1035,-3.1035,-3.1035,-3.1035,-3.1035,-3.1035,-3.1035,-3.1035,-3.1035,-3.1035,-3.1035,-3.1035,-3.1035,-3.1082,-3.1369,-3.1432,-3.1479,-3.1606,-3.1795,-3.1757,-3.2016,-3.2953,-3.3382,-3.3694,-3.3558,-3.3223,-3.2282,-3.1195,-3.1195,-3.1195,-3.1035,-3.1659,-3.2442,-3.3541,-3.37,-3.37,-3.4178,-3.559,-3.4337,-3.3524,-3.3524,-3.3541,-3.3541,-3.3825,-3.4778,-3.654,-3.801,-3.9903,-4.0073,-4.0838,-4.184,-4.1556,-4.1103,-4.2191,-4.2115,-4.1462,-4.2378,-4.4306,-4.7052,-4.9321,-5.0917,-5.248,-5.248,-5.248,-5.2338,-5.1998,-5.1884,-5.1799,-5.1263,-5.0644,-5.0972,-5.0944,-5.0546,-5.0147,-4.9778,-4.9379,-4.9465,-4.9522,-4.9692,-4.9692,-5.0034,-4.9806,-4.9266,-4.9635,-5.0204,-5.0346,-5.0204,-5.0204,-5.0147,-5.029,-5.0432,-5.0745,-5.0915,-5.0802,-2.818,-2.8527,-2.8874,-2.9048,-2.908,-2.9245,-2.9245,-2.9245,-2.9245,-2.9245,-2.9245,-2.9245,-2.9245,-2.9174,-2.9427,-2.9869,-3.0295,-3.0548,-3.0753,-3.1021,-3.1053,-3.0988,-3.1004,-3.1035,-3.1035,-3.1035,-3.1035,-3.1035,-3.1035,-3.1035,-3.1035,-3.1035,-3.1035,-3.1035,-3.1035,-3.1035,-3.1082,-3.1114,-3.1129,-3.1369,-3.1641,-3.2529,-3.4254,-3.7072,-3.7129,-3.7016,-3.6365,-3.432,-3.2761,-3.2761,-3.2761,-3.2837,-3.3637,-3.5459,-3.6383,-3.6522,-3.6522,-3.7248,-3.8986,-3.7971,-3.693,-3.6634,-3.6559,-3.6578,-3.713,-3.8496,-3.9707,-4.0659,-4.1189,-4.1363,-4.218,-4.4817,-4.4924,-4.4367,-4.5056,-4.5956,-4.4452,-4.5367,-4.8123,-5.0293,-5.1316,-5.248,-5.248,-5.248,-5.248,-5.2394,-5.2252,-5.2138,-5.2025,-5.1541,-5.0915,-5.0716,-5.0574,-5.0119,-4.9749,-4.9322,-4.9152,-4.9436,-4.9664,-4.9863,-4.9977,-5.0346,-5.0204,-4.9578,-4.9664,-4.9863,-4.9891,-4.9891,-4.9778,-4.9578,-4.9863,-5.0176,-4.9948,-4.9664,-4.9834,-2.7832,-2.8164,-2.8511,-2.8827,-2.9213,-2.9245,-2.9245,-2.9245,-2.9245,-2.9245,-2.9245,-2.9245,-2.9245,-2.9261,-2.919,-2.9395,-2.979,-3.0074,-3.0422,-3.0706,-3.0737,-3.0895,-3.1085,-3.0941,-3.0941,-3.1019,-3.0988,-3.1019,-3.1019,-3.1035,-3.1035,-3.1035,-3.1035,-3.1035,-3.1035,-3.1035,-3.1035,-3.1035,-3.1035,-3.1274,-3.1657,-3.3762,-3.6549,-3.9525,-4.0173,-4.0467,-4.031,-3.9483,-3.9188,-3.968,-3.966,-3.9102,-3.8641,-3.8859,-3.9012,-3.9052,-3.9113,-3.992,-4.0707,-3.9879,-3.9093,-3.9012,-3.9052,-3.9052,-3.9052,-4.0059,-4.1948,-4.3565,-4.4778,-4.5609,-4.8798,-4.9238,-4.8896,-4.8881,-4.9544,-5.0232,-4.9981,-5.072,-5.1147,-5.248,-5.248,-5.248,-5.248,-5.248,-5.248,-5.2451,-5.2394,-5.2309,-5.2195,-5.1854,-5.12,-5.0858,-5.0346,-4.9863,-4.9778,-4.9493,-4.9664,-4.992,-5.0147,-5.0204,-5.0233,-5.0176,-4.9863,-4.9522,-4.9209,-4.917,-4.917,-4.9095,-4.9038,-4.8953,-4.8981,-4.8981,-4.8782,-4.8657,-4.8804,-2.7659,-2.7848,-2.8369,-2.8685,-2.8843,-2.9016,-2.9245,-2.9245,-2.9245,-2.9245,-2.9245,-2.9245,-2.9245,-2.9245,-2.9245,-2.9159,-2.9395,-2.9711,-3.0058,-3.0327,-3.0406,-3.0579,-3.0832,-3.0753,-3.0753,-3.0895,-3.0911,-3.1037,-3.1148,-3.1035,-3.1019,-3.1035,-3.1035,-3.1035,-3.1035,-3.1035,-3.1035,-3.1035,-3.1035,-3.1258,-3.1432,-3.3154,-3.5843,-4.035,-4.2975,-4.3935,-4.3556,-4.2134,-4.1052,-4.1588,-4.3728,-4.4713,-4.266,-4.214,-4.214,-4.214,-4.214,-4.2744,-4.3798,-4.3346,-4.2118,-4.2162,-4.214,-4.214,-4.2269,-4.3694,-4.5561,-4.7264,-4.7798,-4.8273,-5.073,-5.083,-5.106,-5.1316,-5.1743,-5.1884,-5.1884,-5.2168,-5.248,-5.248,-5.248,-5.248,-5.248,-5.248,-5.2451,-5.2195,-5.2167,-5.174,-5.1655,-5.1285,-5.083,-5.0574,-5.0062,-4.9863,-4.9834,-4.9863,-4.9977,-5.0005,-5.009,-5.0005,-4.9607,-4.9379,-4.9294,-4.9152,-4.881,-4.8686,-4.8115,-4.8315,-4.8185,-4.8216,-4.8173,-4.7858,-4.8316,-4.9852,-5.0243,-2.7485,-2.7596,-2.8148,-2.8448,-2.8622,-2.8874,-2.9016,-2.9245,-2.9245,-2.9245,-2.9245,-2.9245,-2.9245,-2.9245,-2.9245,-2.9245,-2.9174,-2.938,-2.9648,-2.9932,-2.9995,-3.0216,-3.0311,-3.0185,-3.0248,-3.0485,-3.0548,-3.0737,-3.099,-3.1037,-3.11,-3.1004,-3.1035,-3.1035,-3.1035,-3.1035,-3.1035,-3.1035,-3.1035,-3.1515,-3.222,-3.3957,-3.7279,-4.2236,-4.5649,-4.7178,-4.6524,-4.408,-4.2387,-4.3407,-4.6072,-4.7389,-4.5636,-4.5192,-4.5019,-4.5019,-4.5215,-4.6302,-4.7981,-4.6402,-4.5263,-4.5019,-4.4995,-4.5287,-4.5388,-4.7282,-4.8735,-4.9647,-4.9759,-5.0028,-5.1372,-5.1601,-5.1743,-5.2168,-5.231,-5.248,-5.248,-5.248,-5.248,-5.248,-5.2451,-5.2394,-5.2281,-5.2195,-5.2082,-5.1968,-5.1598,-5.1143,-5.0773,-5.0403,-5.0204,-5.0147,-4.9891,-5.0034,-4.9977,-4.9806,-4.9749,-4.9607,-4.9522,-4.9379,-4.8327,-4.7872,-4.7587,-4.7701,-4.8201,-4.7587,-4.6819,-4.7031,-4.7768,-4.7761,-4.7655,-4.8894,-5.03,-5.1582,-5.2513,-2.7264,-2.7564,-2.7643,-2.8022,-2.8527,-2.8622,-2.8811,-2.9048,-2.9229,-2.9245,-2.9245,-2.9245,-2.9245,-2.9245,-2.9245,-2.9245,-2.9245,-2.9174,-2.9222,-2.9348,-2.9537,-2.9695,-2.979,-2.9695,-2.9885,-3.0153,-3.0216,-3.0406,-3.0643,-3.0721,-3.0864,-3.1069,-3.1148,-3.1019,-3.1035,-3.1035,-3.1035,-3.1035,-3.1035,-3.2282,-3.4991,-3.7333,-4.0487,-4.4602,-4.8034,-4.9194,-4.9273,-4.8766,-4.7788,-4.7778,-4.7947,-4.7911,-4.769,-4.7349,-4.7375,-4.7282,-4.7188,-4.7333,-4.7834,-4.7648,-4.7256,-4.7333,-4.7307,-4.7468,-4.7571,-4.8293,-4.9365,-5.0225,-5.0775,-5.1316,-5.2026,-5.231,-5.231,-5.2451,-5.2423,-5.2451,-5.248,-5.248,-5.248,-5.248,-5.2423,-5.2167,-5.1854,-5.157,-5.1456,-5.1314,-5.1058,-5.0688,-5.0403,-5.0119,-4.9948,-4.9635,-4.9664,-5.0005,-4.9806,-4.955,-4.918,-4.8896,-4.8668,-4.827,-4.7218,-4.6791,-4.6251,-4.6357,-4.748,-4.7335,-4.6854,-4.7081,-4.724,-4.7885,-5.031,-5.1575,-5.2745,-5.41,-5.5889,-2.7106,-2.7264,-2.7485,-2.7722,-2.8022,-2.8432,-2.8669,-2.8811,-2.9001,-2.9245,-2.9245,-2.9245,-2.9245,-2.9245,-2.9245,-2.9245,-2.9245,-2.9245,-2.9245,-2.9127,-2.9253,-2.9316,-2.9316,-2.9316,-2.9506,-2.9806,-2.9853,-3.0043,-3.0311,-3.0374,-3.0564,-3.0832,-3.0895,-3.099,-3.1132,-3.1035,-3.1035,-3.1179,-3.1195,-3.2761,-3.5871,-3.7401,-4.0564,-4.5163,-4.6565,-4.8365,-4.9791,-4.9421,-4.885,-4.8356,-4.8045,-4.7889,-4.7889,-4.7889,-4.7889,-4.7889,-4.7889,-4.7889,-4.7889,-4.7889,-4.8032,-4.8319,-4.8462,-4.8749,-4.9151,-4.9437,-5.0008,-5.072,-5.1004,-5.1743,-5.231,-5.248,-5.248,-5.2423,-5.2138,-5.1911,-5.1911,-5.1626,-5.1399,-5.137,-5.137,-5.1228,-5.1029,-5.0972,-5.083,-5.0631,-5.0432,-5.0233,-5.0034,-5.0005,-4.9749,-4.8867,-4.8583,-4.8498,-4.8299,-4.8071,-4.7758,-4.7673,-4.7474,-4.7218,-4.6677,-4.6507,-4.6807,-4.7489,-4.7409,-4.7722,-4.9322,-5.0248,-5.0186,-5.1133,-5.3087,-5.4808,-5.5705,-5.6932,-5.8939,-2.7027,-2.7043,-2.7312,-2.7469,-2.7627,-2.8085,-2.8353,-2.8496,-2.8811,-2.8938,-2.8985,-2.9048,-2.9245,-2.9245,-2.9245,-2.9245,-2.9245,-2.9245,-2.9245,-2.9245,-2.9245,-2.9245,-2.9245,-2.9261,-2.9238,-2.9443,-2.949,-2.9664,-2.9995,-3.0027,-3.0201,-3.0516,-3.0532,-3.0973,-3.1988,-3.2387,-3.2261,-3.202,-3.2245,-3.397,-3.6622,-3.6943,-3.9912,-4.5718,-4.6313,-4.7267,-4.9021,-4.8979,-4.8486,-4.7941,-4.7889,-4.7889,-4.7889,-4.7889,-4.7889,-4.7889,-4.7889,-4.7889,-4.8032,-4.8176,-4.8462,-4.9178,-4.9321,-4.9607,-5.015,-5.0293,-5.072,-5.1147,-5.1601,-5.1884,-5.2338,-5.248,-5.248,-5.2394,-5.1712,-5.1257,-5.12,-5.0858,-5.0574,-5.0574,-5.0631,-5.0546,-5.0403,-5.0318,-5.0233,-5.0005,-4.9778,-4.9522,-4.9066,-4.8896,-4.8498,-4.7758,-4.7531,-4.7218,-4.6905,-4.6706,-4.6689,-4.6689,-4.6729,-4.6654,-4.7256,-4.7321,-4.8176,-4.9251,-4.9448,-5.0402,-5.1916,-5.352,-5.4643,-5.5312,-5.7192,-5.9032,-5.9758,-6.0454,-6.2539,-2.7027,-2.7027,-2.7059,-2.7264,-2.7533,-2.7643,-2.7832,-2.8117,-2.8464,-2.8606,-2.8685,-2.8906,-2.9213,-2.9229,-2.908,-2.9245,-2.9245,-2.9245,-2.9245,-2.9245,-2.9245,-2.9245,-2.9245,-2.9245,-2.9127,-2.9174,-2.9159,-2.9332,-2.9632,-2.9664,-2.9837,-3.0137,-3.0494,-3.1594,-3.3879,-3.5197,-3.5197,-3.4842,-3.5197,-3.6847,-3.9428,-3.9609,-4.2615,-4.8561,-4.8905,-4.8796,-4.8876,-4.872,-4.8434,-4.7967,-4.7889,-4.7889,-4.7889,-4.7889,-4.7889,-4.7889,-4.7889,-4.8176,-4.8606,-4.8749,-4.9178,-4.9865,-5.0008,-5.015,-5.0408,-5.0921,-5.1177,-5.1347,-5.1885,-5.2338,-5.2338,-5.2309,-5.2309,-5.2281,-5.137,-5.0745,-5.0631,-5.0546,-5.0346,-5.0403,-5.0489,-5.0318,-4.9635,-4.9416,-4.9294,-4.8896,-4.8384,-4.827,-4.7986,-4.7872,-4.7161,-4.7019,-4.7075,-4.6734,-4.6307,-4.6108,-4.6157,-4.6405,-4.6841,-4.7618,-4.8657,-4.8991,-4.9662,-5.092,-5.1812,-5.308,-5.45,-5.6326,-5.7711,-5.889,-6.0809,-6.3208,-6.4373,-6.5103,-6.6335,-2.7027,-2.7027,-2.7027,-2.7106,-2.7233,-2.7469,-2.7627,-2.7785,-2.8101,-2.8259,-2.8322,-2.8622,-2.878,-2.8827,-2.9001,-2.9245,-2.9245,-2.9245,-2.9245,-2.9245,-2.9245,-2.9245,-2.9245,-2.9245,-2.9245,-2.9245,-2.9245,-2.9159,-2.9285,-2.9301,-2.9474,-3.0216,-3.1774,-3.3555,-3.4724,-3.6849,-3.7941,-3.7802,-3.8054,-3.9581,-4.2118,-4.243,-4.4527,-4.827,-4.872,-4.8434,-4.8252,-4.82,-4.8122,-4.7797,-4.7889,-4.7889,-4.7889,-4.7889,-4.7889,-4.7889,-4.7889,-4.8032,-4.8319,-4.8696,-4.9321,-5.0008,-5.0578,-5.1004,-5.1517,-5.1322,-5.1462,-5.1349,-5.1402,-5.1257,-5.1285,-5.1285,-5.1285,-5.1257,-5.0773,-5.0432,-4.9977,-4.9664,-4.9436,-4.9379,-4.9095,-4.8754,-4.8412,-4.8185,-4.773,-4.7587,-4.7303,-4.7246,-4.7587,-4.7474,-4.7218,-4.6962,-4.6706,-4.6251,-4.5795,-4.5662,-4.5679,-4.6654,-4.7656,-4.9466,-5.1023,-5.151,-5.2194,-5.3495,-5.4607,-5.5879,-5.7691,-5.9253,-6.0565,-6.2137,-6.3429,-6.472,-6.5546,-6.7084,-6.7521,-2.7027,-2.7027,-2.7027,-2.7027,-2.7059,-2.728,-2.739,-2.7438,-2.7754,-2.7896,-2.7959,-2.8275,-2.8417,-2.848,-2.8653,-2.8827,-2.8922,-2.8811,-2.8764,-2.878,-2.8874,-2.8922,-2.8953,-2.9048,-2.9245,-2.9245,-2.9245,-2.9245,-2.9245,-2.9245,-2.9789,-3.1053,-3.3191,-3.5121,-3.7608,-3.9599,-4.0781,-4.0694,-4.0802,-4.1831,-4.3761,-4.373,-4.5203,-4.7998,-4.8096,-4.7889,-4.7889,-4.7889,-4.7889,-4.7889,-4.7889,-4.7889,-4.7889,-4.7889,-4.7889,-4.7863,-4.7876,-4.7914,-4.8316,-4.8866,-4.9411,-5.0142,-5.0704,-5.1294,-5.1657,-5.1456,-5.1257,-5.1171,-5.0858,-5.0574,-5.0574,-5.0574,-5.0403,-5.0034,-4.9977,-4.9749,-4.9379,-4.901,-4.8771,-4.8543,-4.8042,-4.7673,-4.7445,-4.7218,-4.6962,-4.6905,-4.6677,-4.662,-4.6962,-4.6791,-4.6677,-4.6364,-4.6222,-4.5795,-4.5483,-4.532,-4.6874,-4.904,-5.0776,-5.2674,-5.3904,-5.4816,-5.55,-5.6511,-5.7487,-5.8773,-6.0728,-6.2179,-6.3239,-6.4604,-6.4759,-6.534,-6.5959,-6.6392,-6.6633,-2.7027,-2.7027,-2.7027,-2.7027,-2.7027,-2.7059,-2.7043,-2.7122,-2.7422,-2.7564,-2.7596,-2.7911,-2.8053,-2.8069,-2.8148,-2.8275,-2.8464,-2.8243,-2.8132,-2.8196,-2.8448,-2.859,-2.8606,-2.8859,-2.8985,-2.9048,-2.908,-2.908,-2.9245,-2.9543,-3.0868,-3.3262,-3.4188,-3.7459,-4.2808,-4.3296,-4.3737,-4.338,-4.376,-4.3907,-4.3291,-4.3582,-4.5031,-4.7509,-4.7915,-4.7889,-4.7889,-4.7889,-4.7889,-4.7889,-4.7889,-4.7889,-4.7693,-4.7759,-4.7811,-4.7824,-4.8026,-4.8325,-4.8918,-4.9206,-4.9675,-5.0224,-5.0551,-5.0636,-5.083,-5.0659,-5.0574,-5.0574,-5.046,-5.046,-5.0403,-5.0261,-4.9806,-4.8953,-4.8857,-4.8828,-4.8771,-4.8771,-4.8571,-4.79,-4.7616,-4.7445,-4.7019,-4.6649,-4.6535,-4.6478,-4.6194,-4.5938,-4.6108,-4.5852,-4.5198,-4.5235,-4.5736,-4.6218,-4.5564,-4.5398,-4.8704,-5.1787,-5.3682,-5.5269,-5.6492,-5.734,-5.8006,-5.9157,-6.012,-6.0581,-6.2393,-6.3164,-6.4514,-6.4899,-6.5368,-6.5673,-6.5627,-6.5466,-6.5708,-2.7027,-2.7027,-2.7027,-2.7027,-2.7027,-2.7027,-2.7027,-2.7043,-2.7138,-2.7201,-2.7264,-2.7564,-2.7722,-2.7754,-2.7959,-2.8022,-2.788,-2.7769,-2.7832,-2.8053,-2.8164,-2.8227,-2.8243,-2.8338,-2.8511,-2.8717,-2.8748,-2.8874,-2.9362,-3.1314,-3.2781,-3.4262,-3.8217,-4.1285,-4.3221,-4.5564,-4.6482,-4.6357,-4.6457,-4.6482,-4.6307,-4.6281,-4.6857,-4.7602,-4.7889,-4.7889,-4.7889,-4.7889,-4.7889,-4.7889,-4.7889,-4.7733,-4.7317,-4.7376,-4.7559,-4.8064,-4.8181,-4.8212,-4.8599,-4.9014,-4.9452,-4.9726,-5.0164,-5.0574,-5.0546,-5.0176,-4.9977,-4.9834,-4.9607,-4.9294,-4.9152,-4.8554,-4.7872,-4.7559,-4.7417,-4.7417,-4.7417,-4.7445,-4.736,-4.7161,-4.6819,-4.6478,-4.6165,-4.5795,-4.5625,-4.5539,-4.5397,-4.5454,-4.5739,-4.5653,-4.5814,-4.6673,-4.683,-4.699,-4.7659,-4.9062,-5.2107,-5.4212,-5.6056,-5.7439,-5.8621,-5.9418,-6.0365,-6.1651,-6.2372,-6.2716,-6.3173,-6.3817,-6.4195,-6.4267,-6.446,-6.446,-6.446,-6.446,-6.434,-2.7027,-2.7027,-2.7027,-2.7027,-2.7027,-2.7027,-2.7027,-2.7027,-2.7027,-2.7027,-2.7059,-2.7264,-2.7359,-2.7375,-2.7596,-2.7564,-2.7375,-2.7375,-2.7469,-2.7675,-2.7817,-2.788,-2.7896,-2.8006,-2.8613,-2.9823,-2.9985,-3.0668,-3.2044,-3.4129,-3.5798,-3.7551,-4.1196,-4.3777,-4.4958,-4.6857,-4.7889,-4.7745,-4.7889,-4.7889,-4.7745,-4.7889,-4.7889,-4.7889,-4.7889,-4.7889,-4.7889,-4.7824,-4.772,-4.7603,-4.7653,-4.7392,-4.6886,-4.7077,-4.7556,-4.8053,-4.8274,-4.8273,-4.841,-4.8788,-4.9217,-4.9217,-4.9622,-4.9863,-4.9834,-4.955,-4.9294,-4.9209,-4.8725,-4.8372,-4.8087,-4.7331,-4.6819,-4.6819,-4.6819,-4.6876,-4.6819,-4.6819,-4.6819,-4.6734,-4.6251,-4.5767,-4.5568,-4.517,-4.4914,-4.4914,-4.5427,-4.5843,-4.6161,-4.6615,-4.7167,-4.7957,-4.8231,-4.8807,-5.0583,-5.3078,-5.5256,-5.71,-5.8472,-5.9947,-6.0813,-6.1639,-6.1633,-6.2613,-6.2589,-6.27,-6.247,-6.3062,-6.258,-6.269,-6.269,-6.265,-6.269,-6.269,-6.269,-2.7027,-2.7027,-2.7027,-2.7027,-2.7027,-2.7027,-2.7027,-2.7027,-2.7027,-2.7027,-2.7027,-2.7043,-2.7027,-2.7043,-2.7075,-2.7027,-2.7027,-2.7043,-2.7075,-2.7122,-2.739,-2.7533,-2.7564,-2.7991,-2.9568,-3.1856,-3.2302,-3.3888,-3.6342,-3.7425,-3.9378,-4.2138,-4.2966,-4.4836,-4.6991,-4.7616,-4.7837,-4.7811,-4.7693,-4.7889,-4.7889,-4.7811,-4.759,-4.7707,-4.7785,-4.7733,-4.7707,-4.7858,-4.7709,-4.7006,-4.7235,-4.7057,-4.6451,-4.6978,-4.7586,-4.8,-4.8351,-4.8288,-4.8283,-4.85,-4.8611,-4.8611,-4.8611,-4.8743,-4.8743,-4.8554,-4.8657,-4.8714,-4.7957,-4.7516,-4.6933,-4.6649,-4.6563,-4.6592,-4.6649,-4.662,-4.6677,-4.6535,-4.6706,-4.6563,-4.608,-4.5568,-4.5027,-4.4914,-4.4914,-4.5277,-4.6124,-4.6906,-4.7086,-4.8019,-4.865,-4.877,-4.9337,-5.0583,-5.4897,-5.7403,-5.9532,-6.0774,-6.1297,-6.2971,-6.3424,-6.3495,-6.3303,-6.3103,-6.265,-6.2247,-6.1978,-6.1805,-6.1443,-6.1322,-6.1402,-6.1362,-6.1644,-6.1201,-6.1709,-2.7027,-2.7027,-2.7027,-2.7027,-2.7027,-2.7027,-2.7027,-2.7027,-2.7027,-2.7027,-2.7027,-2.7027,-2.7027,-2.7027,-2.7027,-2.7027,-2.7027,-2.7027,-2.7027,-2.7027,-2.7122,-2.7169,-2.7448,-2.9342,-3.1052,-3.225,-3.4252,-3.5813,-3.6805,-3.9115,-4.0734,-4.1883,-4.4159,-4.5802,-4.6694,-4.711,-4.7291,-4.7317,-4.7707,-4.7889,-4.7759,-4.7084,-4.6668,-4.6668,-4.7087,-4.7227,-4.6668,-4.7209,-4.7407,-4.7103,-4.7248,-4.7231,-4.7077,-4.7701,-4.8051,-4.785,-4.7954,-4.7811,-4.733,-4.7289,-4.7331,-4.7331,-4.7331,-4.7331,-4.7331,-4.7331,-4.7331,-4.7275,-4.6763,-4.6364,-4.608,-4.571,-4.5454,-4.5454,-4.5426,-4.5426,-4.5483,-4.5454,-4.5483,-4.5426,-4.5369,-4.5084,-4.4971,-4.4914,-4.5277,-4.6003,-4.6606,-4.7117,-4.8078,-4.8677,-4.9275,-5.0077,-5.1466,-5.3979,-5.8395,-6.036,-6.1263,-6.2231,-6.2271,-6.254,-6.254,-6.2046,-6.1724,-6.2207,-6.1684,-6.1322,-6.1241,-6.1241,-6.1,-6.1,-6.1,-6.1,-6.0759,-6.1026,-6.1556,-2.7027,-2.7027,-2.7027,-2.7027,-2.7027,-2.7027,-2.7027,-2.7027,-2.7027,-2.7027,-2.7027,-2.7027,-2.7027,-2.7027,-2.7027,-2.7027,-2.7027,-2.7027,-2.7027,-2.7027,-2.7027,-2.7704,-2.8794,-3.0569,-3.2743,-3.5319,-3.6969,-3.8495,-3.9981,-4.184,-4.281,-4.3307,-4.5103,-4.6227,-4.6227,-4.6538,-4.6694,-4.6694,-4.7032,-4.7213,-4.7136,-4.6817,-4.6616,-4.6339,-4.6616,-4.6754,-4.6728,-4.7041,-4.7211,-4.6969,-4.6998,-4.6727,-4.6395,-4.6999,-4.7095,-4.6892,-4.7173,-4.7317,-4.6848,-4.6819,-4.6819,-4.6819,-4.6819,-4.6819,-4.6819,-4.6819,-4.6563,-4.6108,-4.571,-4.5483,-4.5454,-4.5141,-4.4914,-4.4914,-4.4914,-4.4942,-4.4914,-4.4914,-4.4914,-4.4914,-4.4914,-4.4914,-4.4914,-4.4914,-4.5519,-4.6636,-4.7928,-4.8766,-4.9482,-5.067,-5.1734,-5.2727,-5.4156,-5.6682,-5.8847,-6.0253,-6.1245,-6.2081,-6.2086,-6.1764,-6.1724,-6.1241,-6.1,-6.104,-6.0718,-6.0477,-6.0437,-6.0235,-5.9873,-5.9833,-5.9873,-5.9914,-5.9978,-6.0562,-6.2434,-2.6964,-2.698,-2.6996,-2.7027,-2.7027,-2.7027,-2.7027,-2.7027,-2.7027,-2.7027,-2.7027,-2.7027,-2.7166,-2.7427,-2.7566,-2.7843,-2.8119,-2.7843,-2.7981,-2.7981,-2.7843,-2.9208,-3.1668,-3.208,-3.4931,-3.9291,-4.0258,-4.1785,-4.4004,-4.4353,-4.4746,-4.5266,-4.5785,-4.5993,-4.6019,-4.6071,-4.6123,-4.6123,-4.6071,-4.6183,-4.6321,-4.6872,-4.6872,-4.6321,-4.6268,-4.6518,-4.6934,-4.7268,-4.694,-4.6395,-4.6529,-4.6134,-4.5126,-4.5553,-4.5806,-4.5933,-4.6383,-4.6734,-4.6706,-4.6649,-4.6592,-4.6649,-4.6563,-4.6563,-4.6592,-4.6592,-4.6137,-4.5283,-4.4971,-4.4971,-4.4914,-4.4914,-4.4914,-4.4914,-4.4914,-4.4914,-4.4914,-4.4914,-4.4914,-4.4914,-4.4914,-4.4914,-4.5156,-4.5277,-4.5761,-4.7117,-4.9243,-5.1111,-5.1937,-5.3712,-5.5116,-5.5717,-5.7174,-5.8322,-5.8825,-6.0039,-6.088,-6.1121,-6.096,-6.0879,-6.0799,-6.0759,-6.0718,-6.0155,-5.9954,-5.9551,-5.935,-5.8948,-5.8465,-5.8706,-5.8873,-5.8731,-5.8791,-6.0401,-6.3247,-2.6496,-2.6664,-2.6917,-2.7027,-2.7027,-2.7027,-2.7027,-2.7027,-2.7027,-2.7027,-2.7027,-2.7027,-2.8258,-3.0173,-3.0311,-3.1531,-3.3566,-3.384,-3.3703,-3.384,-3.382,-3.4113,-3.4931,-3.7105,-3.8751,-4.01,-4.2406,-4.3902,-4.4435,-4.4435,-4.4513,-4.4642,-4.4772,-4.4985,-4.485,-4.5292,-4.5525,-4.5499,-4.5084,-4.5495,-4.6459,-4.6165,-4.6058,-4.6539,-4.6531,-4.6418,-4.5996,-4.6077,-4.595,-4.5812,-4.5929,-4.6045,-4.6313,-4.6538,-4.6566,-4.651,-4.6336,-4.608,-4.6051,-4.5625,-4.534,-4.534,-4.534,-4.5369,-4.534,-4.534,-4.5198,-4.4971,-4.4914,-4.4914,-4.4914,-4.4914,-4.4914,-4.4914,-4.4914,-4.4914,-4.4914,-4.4914,-4.4914,-4.4914,-4.4914,-4.5277,-4.6124,-4.6365,-4.6937,-4.8346,-5.0993,-5.378,-5.5799,-5.6252,-5.68,-5.7613,-5.9158,-6.0027,-6.0427,-6.0707,-6.0879,-6.1,-6.0542,-6.0034,-5.9873,-5.935,-5.8988,-5.8948,-5.8747,-5.8586,-5.8586,-5.8486,-5.8467,-5.8549,-5.9444,-6.0072,-6.031,-6.1975,-6.4841,-2.6285,-2.6317,-2.6648,-2.6791,-2.6806,-2.6964,-2.7027,-2.7166,-2.8396,-2.8932,-2.8932,-2.8949,-3.0569,-3.3293,-3.3293,-3.4249,-3.5727,-3.5727,-3.5727,-3.5727,-3.5727,-3.6406,-3.7783,-3.9291,-4.0773,-4.2139,-4.3768,-4.4435,-4.4435,-4.4435,-4.4435,-4.4435,-4.4435,-4.4701,-4.4993,-4.5309,-4.5601,-4.5869,-4.5924,-4.6027,-4.6178,-4.6019,-4.5884,-4.5742,-4.583,-4.5766,-4.5638,-4.5691,-4.5639,-4.5738,-4.5738,-4.5876,-4.5966,-4.5938,-4.5938,-4.5938,-4.5625,-4.5426,-4.5426,-4.5113,-4.4914,-4.4914,-4.4914,-4.4914,-4.4914,-4.4914,-4.4914,-4.4914,-4.4914,-4.4914,-4.4914,-4.4914,-4.4914,-4.4914,-4.4914,-4.4914,-4.4914,-4.4914,-4.5156,-4.5611,-4.55,-4.5805,-4.6997,-4.6875,-4.7401,-4.9559,-5.1032,-5.3408,-5.6238,-5.75,-5.8231,-5.8807,-5.9364,-5.9793,-5.9753,-5.9753,-5.9753,-5.9753,-5.935,-5.9109,-5.8988,-5.8747,-5.8183,-5.7821,-5.77,-5.754,-5.7097,-5.8137,-5.908,-5.9576,-6.1134,-6.258,-6.2973,-6.3931,-6.6383,-2.5922,-2.6071,-2.6301,-2.6323,-2.6475,-2.7155,-2.7453,-2.7761,-3.0426,-3.1656,-3.1868,-3.1849,-3.3507,-3.6406,-3.6406,-3.6541,-3.6948,-3.6948,-3.6948,-3.6948,-3.6948,-3.8324,-4.0638,-4.0638,-4.2005,-4.4435,-4.4435,-4.4435,-4.4435,-4.4435,-4.4435,-4.4435,-4.4435,-4.4834,-4.5366,-4.5498,-4.5816,-4.6708,-4.6971,-4.6853,-4.5811,-4.6327,-4.6051,-4.5044,-4.4935,-4.5133,-4.5639,-4.5556,-4.5654,-4.5767,-4.5739,-4.5483,-4.4971,-4.4857,-4.4771,-4.48,-4.4715,-4.4658,-4.4658,-4.4658,-4.4658,-4.4686,-4.4743,-4.4743,-4.4686,-4.4658,-4.4658,-4.4658,-4.4601,-4.4658,-4.4658,-4.4629,-4.4572,-4.4629,-4.4658,-4.4658,-4.4601,-4.4601,-4.5053,-4.6252,-4.5957,-4.6072,-4.7794,-4.7737,-4.8567,-5.0924,-5.2553,-5.3159,-5.5879,-5.7924,-5.9303,-5.935,-5.8787,-5.8304,-5.8264,-5.8143,-5.8183,-5.8103,-5.8143,-5.8183,-5.8344,-5.8344,-5.8103,-5.7338,-5.7538,-5.7414,-5.7158,-5.8785,-6.0598,-6.1791,-6.374,-6.5529,-6.5862,-6.6335,-6.7587,-2.5543,-2.5575,-2.5938,-2.6096,-2.6348,-2.8519,-2.9782,-3.0338,-3.2529,0.0,0.0,-3.4245,-3.6199,-3.9268,-3.9291,-4.0638,-4.2942,-4.2942,-4.2942,-4.2942,-4.2942,-4.3209,-4.3768,-4.3768,-4.4035,-4.4435,-4.4435,-4.4435,-4.4435,-4.4435,-4.4435,-4.4435,-4.4435,-4.4568,-4.4701,-4.5233,-4.5938,-4.6679,-4.5729,-4.5674,-4.6581,-4.62,-4.6017,-4.644,-4.5932,-4.5774,-4.5774,-4.5293,-4.5076,-4.5084,-4.5084,-4.5027,-4.4914,-4.443,-4.4117,-4.4117,-4.3691,-4.3435,-4.3435,-4.3435,-4.3435,-4.3435,-4.3861,-4.3947,-4.3463,-4.3435,-4.3435,-4.3435,-4.3435,-4.3435,-4.3435,-4.3435,-4.3435,-4.3435,-4.3435,-4.3463,-4.3435,-4.3463,-4.4078,-4.4925,-4.5331,-4.6368,-4.9816,-5.0216,-5.1305,-5.3974,-5.5513,-5.7225,-5.7576,-5.8155,-5.8626,-5.8626,-5.8505,-5.8063,-5.7459,-5.7298,-5.7218,-5.7338,-5.7298,-5.7459,-5.8063,-5.8304,-5.8224,-5.8144,-5.883,-5.9726,-6.0789,-6.2075,-6.3451,-6.4712,-6.643,-6.762,-6.7707,-6.8566,-6.9517,-2.7227,-2.7278,-2.7637,-2.8578,0.0,-3.1404,-3.2926,-3.4476,-3.5411,-3.6104,-3.6699,-3.6699,-3.8543,-4.1457,-4.1457,-4.2244,-4.3578,-4.3578,-4.3734,-4.3993,-4.3993,-4.4175,-4.4435,-4.4435,-4.4435,-4.4568,-4.4834,-4.4967,-4.51,-4.5366,-4.5658,-4.5631,-4.5631,-4.579,-4.6029,-4.6128,-4.6474,-4.7303,-4.6636,-4.6327,-4.6364,-4.596,-4.5791,-4.5852,-4.5539,0.0,0.0,0.0,0.0,0.0,0.0,0.0,0.0,0.0,0.0,-4.352,-4.2979,-4.2638,-4.2638,-4.2638,-4.2638,-4.2667,-4.3207,-4.2894,-4.133,-4.2098,-4.278,-4.3093,-4.3122,-4.3122,-4.3122,-4.3122,-4.3122,-4.3122,-4.3122,-4.3122,-4.3238,-4.3703,-4.4833,-4.6582,-4.7327,-4.8759,-5.2197,-5.2428,-5.3119,-5.5194,-5.6363,-5.7103,-5.8011,-5.8313,-5.8304,-5.8304,-5.8304,-5.8103,-5.7741,-5.766,-5.766,-5.766,-5.766,-5.7821,-5.8224,-5.9378,-6.0134,-5.9816,-6.1025,-6.2221,-6.2919,-6.401,-6.5222,-6.6282,-6.7673,-6.8704,-6.8412,-6.886,-6.9505,-2.9414,-2.9653,-2.9846,-3.1296,-3.3464,-3.4529,-3.6184,-3.8106,-3.7981,-3.8118,-3.8625,-3.8745,-4.0118,-4.2409,-4.2435,-4.2409,-4.2409,-4.2513,-4.2825,-4.3266,-4.35,-4.3786,-4.4361,-4.452,-4.452,-4.452,-4.5021,-4.5284,-4.5311,-4.5969,-4.6232,-4.6232,-4.6341,-4.6659,-4.713,0.0,0.0,0.0,-4.7526,-4.7596,-4.7187,-4.6667,-4.6161,-4.5669,-4.5156,0.0,-4.4743,-4.4743,-4.4686,-4.4572,-4.4089,0.0,0.0,0.0,0.0,0.0,0.0,0.0,0.0,0.0,0.0,0.0,-4.2008,-4.1714,-3.9754,-4.1022,-4.2486,-4.3436,-4.2868,-4.2525,-4.2954,-4.2639,-4.2411,-4.2411,-4.2725,-4.3068,-4.3182,-4.4404,-4.6181,-4.8765,-4.9477,-5.0832,-5.3461,-5.3649,-5.3899,-5.5636,-5.5944,-5.6519,-5.7619,-5.764,-5.7781,-5.7781,-5.766,-5.77,-5.758,-5.7419,-5.7218,-5.754,-5.764,-5.7941,-5.8522,-6.031,-6.1481,-6.1409,-6.2944,-6.4207,-6.3785,-6.4941,-6.6226,-6.6769,-6.8026,-6.8932,-6.8406,-6.8286,-6.8623,-3.1311,-3.1659,-3.172,-3.2215,-3.3403,-3.7079,-3.8755,-3.9061,-3.9061,-3.9087,-3.9189,-3.9796,-4.0406,-4.124,-4.124,-4.124,-4.1292,-4.1911,-4.2171,-4.2276,-4.3255,-4.3775,-4.3854,-4.4469,-4.4597,-4.4752,-4.4725,-4.4725,-4.4852,-4.488,-4.498,-4.5035,-4.5525,-4.5927,-4.5975,-4.5388,-4.4877,-4.4459,-4.67,-4.9019,-5.1563,-4.9576,-4.8349,-4.8257,-4.6124,-4.4658,-4.4117,-4.4089,-4.3861,-4.3378,-4.3264,-4.2979,-4.2439,-4.1813,-4.0988,0.0,-3.9253,0.0,0.0,0.0,0.0,0.0,0.0,0.0,0.0,-4.1049,-4.2642,-4.5184,-4.2009,-4.0545,-4.2328,-4.0866,-3.9715,-3.9822,-4.137,-4.2616,-4.3145,-4.4902,-4.6849,-4.867,-4.8907,-4.9992,-5.2862,-5.3209,-5.4076,-5.6178,-5.6558,-5.6418,-5.6212,-5.6091,-5.6091,-5.597,-5.597,-5.593,-5.5286,-5.4964,-5.5101,-5.5116,-5.6002,-5.6764,-5.8839,-6.016,-6.1295,-6.2325,-6.361,-6.4462,-6.4527,-6.5558,-6.6376,-6.6852,-6.6861,-6.6985,-6.7046,-6.7025,-6.7604,-3.3678,-3.3877,-3.3877,-3.4859,-3.662,-3.8458,-3.9227,-3.9227,-3.9227,-3.9227,-3.9227,-3.9604,-3.9838,-4.0072,-3.9978,-4.0098,-4.0124,-4.0695,-4.1077,-4.1103,-4.1899,-4.247,-4.2759,-4.3012,-4.3578,-4.4126,-4.4183,-4.4562,-4.5216,-4.5319,-4.557,-4.5905,-4.6184,-4.7325,-4.9173,-4.9386,-4.9346,-4.9036,-4.9846,-5.0483,-5.1064,-4.9996,-4.9418,-4.9418,-4.826,-4.7554,-4.7244,-4.7213,-4.6935,-4.6285,-4.4789,-4.3457,-4.2367,-4.1577,-4.0387,0.0,0.0,0.0,0.0,0.0,0.0,0.0,0.0,0.0,0.0,0.0,-4.0899,-4.3544,-4.237,-4.2172,-4.4018,-4.3163,-4.2807,-4.3463,-4.4427,-4.5046,-4.5355,-4.6687,-4.8279,-5.0027,-5.0764,-5.1958,-5.4105,-5.4497,-5.4988,-5.5935,-5.5769,-5.5487,-5.5568,-5.5608,-5.5608,-5.5608,-5.5608,-5.5447,-5.5125,-5.6016,-5.7154,-5.7719,-5.8799,-5.9814,-6.0858,-6.2605,-6.4058,-6.4778,-6.6202,-6.7508,-6.7669,-6.7769,-6.7605,-6.7411,-6.539,-6.4047,-6.4993,-6.5377,-6.6042,-3.6022,-3.6118,-3.5761,-3.6834,-3.8605,-3.8877,-3.8929,-3.8929,-3.8929,-3.8929,-3.8929,-3.8929,-3.8929,-3.9046,-3.9279,-3.9395,-3.9305,-4.0,-4.0144,-4.0051,-4.0841,-4.1462,-4.1761,-4.2157,-4.2741,-4.3642,-4.3731,-4.4224,-4.5012,-4.518,-4.5822,-4.6718,-4.6947,-4.8287,-5.0999,-5.1776,-5.2074,-5.1875,-5.2375,-5.1968,-5.1003,-5.0857,-5.0823,-5.0823,-5.0262,-4.9858,-4.9772,-4.9495,-4.9098,-4.8371,-4.6005,-4.4029,-4.2704,-4.1657,0.0,0.0,0.0,0.0,0.0,0.0,0.0,0.0,0.0,-3.8179,-4.0377,0.0,-4.0034,0.0,-4.2581,-4.373,-4.5343,-4.4888,0.0,0.0,-4.6464,-4.6762,-4.6895,-4.8116,-4.9562,-5.1211,-5.2161,-5.334,-5.4772,-5.5005,-5.4844,-5.4401,-5.3958,-5.3878,-5.4562,-5.4844,-5.5005,-5.4924,-5.5105,-5.5254,-5.5281,-5.6983,-5.8487,-5.9573,-6.0614,-6.1597,-6.1863,-6.3845,-6.545,-6.5878,-6.7369,-6.8323,-6.8,-6.7575,-6.7066,-6.7066,-6.4328,-6.2233,-6.4112,-6.4833,-6.5698,-3.773,-3.8116,-3.706,-3.676,-3.7033,-3.7553,-3.7874,-3.79,-3.79,-3.7786,-3.7786,-3.7786,-3.81,-3.8664,-3.9201,0.0,-3.9453,-4.005,-3.9949,-3.9568,-4.1295,-4.1831,-4.1416,-4.2501,-4.3143,-4.3172,-4.326,-4.326,-4.3435,-4.3349,-4.4488,-4.6398,-4.708,-4.7694,-4.8139,-4.8943,-4.9054,-4.8531,-5.2046,-5.3784,-5.3678,-5.3421,-5.3345,-5.331,-5.1193,-4.9706,-4.9043,-4.8413,-4.7717,-4.6955,-4.5322,-4.4002,-4.3314,0.0,0.0,0.0,0.0,0.0,0.0,0.0,0.0,0.0,0.0,0.0,0.0,0.0,0.0,-4.1649,-4.2253,0.0,-4.4957,-4.3725,0.0,0.0,0.0,-4.5945,-4.6492,-4.8288,-5.0077,-5.1503,0.0,0.0,-5.3166,-5.3287,-5.2682,-5.0941,-5.1473,-5.1957,-5.2037,-5.2803,-5.3287,-5.3379,-5.3836,-5.4372,-5.4498,-5.566,-5.6757,-5.7303,-5.7819,-5.9207,-6.04,-6.1532,-6.2521,-6.3697,-6.3964,-6.3916,-6.2722,-6.2773,-6.2672,-6.3866,-6.4476,-6.514,-6.5384,-6.6359,-6.7801,-3.7906,-3.9696,-3.9593,-3.9596,-3.9522,-3.9472,-3.875,-3.7726,-3.7437,-3.6935,-3.6085,-3.6112,-3.6908,-3.854,-3.875,0.0,0.0,0.0,-4.073,-3.9528,-4.0557,-4.0714,-4.0082,-4.0565,-4.1409,-4.2455,-4.1753,-4.221,-4.3732,-4.296,-4.3855,-4.6404,0.0,0.0,-4.9884,-5.121,-5.1783,-5.167,-5.4007,-5.5393,-5.5393,-5.5248,-5.5177,-5.514,-5.3694,-5.2651,-5.1963,-5.1066,-5.0058,-4.8734,-4.6842,-4.5048,0.0,0.0,0.0,0.0,0.0,0.0,0.0,0.0,0.0,0.0,0.0,-4.0634,-4.2701,0.0,0.0,0.0,-4.3354,-4.446,-4.6429,-4.5814,0.0,0.0,0.0,0.0,0.0,0.0,0.0,-5.078,-5.0949,-5.107,-5.1392,-5.1343,-5.1191,-5.0465,-5.0619,-5.1086,-5.1657,0.0,-5.2455,-5.2858,-5.3927,-5.462,-5.462,-5.6136,-5.7559,-5.8539,-6.0148,-6.1592,-6.2141,-6.2503,-6.2942,-6.3356,-6.351,-6.3408,-6.2951,-6.1782,-6.1071,-6.1501,-6.2733,-6.3986,-6.4913,-6.612,-6.7627,-3.8371,0.0,0.0,0.0,0.0,-4.0922,-4.0023,-3.8755,-3.8483,-3.7779,-3.6798,-3.6798,0.0,0.0,0.0,0.0,0.0,0.0,-4.1362,-3.9493,-4.0554,-4.0433,-3.9319,-4.005,-4.108,-4.2361,-4.1516,-4.2048,-4.3773,-4.2863,-4.3938,-4.6636,0.0,0.0,0.0,0.0,-5.2924,-5.3456,-5.4784,-5.5734,-5.6227,-5.6227,-5.5999,-5.5544,-5.4708,-5.3911,-5.3176,-5.2241,-5.114,-4.9641,-4.7729,0.0,0.0,0.0,0.0,0.0,0.0,0.0,0.0,0.0,0.0,0.0,0.0,0.0,0.0,0.0,0.0,0.0,0.0,0.0,-4.7076,-4.7228,-4.7748,0.0,0.0,0.0,0.0,0.0,0.0,0.0,0.0,0.0,-4.9594,-4.9716,-5.005,0.0,0.0,-5.128,-5.2395,-5.2863,-5.329,-5.3844,-5.4848,0.0,-5.5667,-5.7318,-5.8934,-5.9799,-6.14,-6.2595,-6.2595,-6.2595,-6.2595,-6.2595,-6.2595,-6.2595,-6.2569,-6.1593,-6.0882,-6.0562,-6.1871,-6.3351,-6.41,-6.5238,-6.6628,0.0,0.0,0.0,0.0,0.0,0.0,0.0,0.0,-4.125,-4.1119,0.0,-4.1021,0.0,0.0,0.0,0.0,-4.3019,-4.3117,0.0,0.0,-4.1902,-4.1767,-3.9766,-4.1863,-4.3051,-4.3084,-4.3017,-4.3018,-4.3183,-4.3193,0.0,0.0,0.0,0.0,0.0,0.0,-5.0854,-5.2468,-5.3418,-5.4633,-5.6151,-5.6227,-5.5506,-5.3987,-5.3076,-5.2241,-5.1405,-5.0437,-4.9697,-4.8878,-4.714,0.0,0.0,0.0,0.0,0.0,0.0,0.0,0.0,0.0,0.0,0.0,0.0,0.0,0.0,0.0,0.0,0.0,0.0,0.0,0.0,-4.7116,0.0,0.0,0.0,0.0,0.0,0.0,0.0,0.0,0.0,0.0,-4.7853,-4.8469,-4.9294,-5.0071,0.0,0.0,0.0,0.0,-5.6397,-5.6397,-5.7085,-5.7636,-5.7636,-5.8721,-5.9675,-5.9675,0.0,0.0,-6.0433,-6.036,-6.0411,-6.0433,-6.0535,-6.036,-6.0433,-6.1476,-6.1924,-6.1022,-6.288,-6.4363,-6.373,-6.453,-6.5668,0.0,0.0,0.0,0.0,0.0,0.0,0.0,0.0,0.0,-4.0476,0.0,-3.965,0.0,0.0,0.0,0.0,0.0,0.0,0.0,0.0,-4.2813,-4.2483,-4.1266,-4.2171,-4.269,0.0,-4.269,-4.2884,0.0,0.0,0.0,0.0,0.0,0.0,0.0,0.0,-4.89,-5.0077,-5.1975,-5.3759,-5.5354,-5.5961,-5.6189,-5.6257,-5.4329,-5.2165,-4.9697,-4.8786,-4.7951,0.0,0.0,0.0,0.0,0.0,0.0,0.0,0.0,0.0,0.0,0.0,0.0,0.0,0.0,0.0,0.0,0.0,0.0,0.0,0.0,0.0,0.0,0.0,-4.3698,0.0,0.0,0.0,0.0,0.0,0.0,0.0,0.0,0.0,-5.045,-5.0972,-5.157,-5.2541,-5.3057,-5.3758,-5.4831,0.0,0.0,0.0,0.0,0.0,0.0,0.0,-6.0112,-6.0039,-6.0185,-6.028,-6.028,-6.028,-6.028,-6.028,0.0,0.0,-6.1073,-6.1554,-6.1787,-6.1417,-6.2839,-6.4096,-6.3702,-6.4674,-6.5739,0.0,0.0,0.0,0.0,0.0,0.0,0.0,0.0,0.0,-4.1616,-4.0746,0.0,0.0,0.0,0.0,0.0,0.0,0.0,0.0,0.0,0.0,0.0,-4.1818,-4.2642,0.0,0.0,0.0,0.0,0.0,0.0,0.0,0.0,0.0,0.0,0.0,0.0,-4.8532,-5.0286,-5.1512,-5.3538,-5.6093,-5.696,-5.7496,-5.756,-5.5276,-5.2855,-5.0595,0.0,0.0,0.0,0.0,0.0,0.0,0.0,0.0,0.0,0.0,0.0,0.0,0.0,0.0,0.0,0.0,0.0,0.0,0.0,0.0,0.0,0.0,0.0,0.0,0.0,-4.1864,0.0,0.0,0.0,0.0,0.0,0.0,0.0,0.0,0.0,0.0,0.0,-5.3115,-5.4143,-5.4745,-5.544,-5.6606,-5.6834,-5.7137,0.0,0.0,0.0,0.0,0.0,0.0,0.0,0.0,0.0,0.0,0.0,0.0,0.0,0.0,-6.0266,-6.0883,-6.103,-6.0893,-6.0568,0.0,0.0,0.0,0.0,0.0,0.0,0.0,0.0,0.0,0.0,0.0,0.0,0.0,0.0,0.0,-4.4791,0.0,0.0,-4.366,0.0,0.0,0.0,0.0,0.0,0.0,0.0,0.0,0.0,0.0,0.0,0.0,0.0,0.0,0.0,0.0,0.0,0.0,0.0,0.0,0.0,0.0,-4.9917,-5.3076,-5.2338,-5.3883,-5.8089,-5.9294,-5.9105,-5.7734,-5.5612,-5.4291,-5.3802,0.0,0.0,0.0,0.0,0.0,0.0,0.0,0.0,0.0,0.0,0.0,0.0,0.0,0.0,0.0,0.0,0.0,0.0,0.0,0.0,0.0,0.0,0.0,0.0,0.0,0.0,-4.2276,-4.2363,-4.2802,0.0,0.0,0.0,0.0,0.0,0.0,0.0,0.0,0.0,-5.4879,-5.6263,-5.7766,-5.9401,-6.0039,-6.0207,-6.0134,-6.028,-6.028,-6.0258,-6.0258,-6.028,0.0,0.0,0.0,0.0,0.0,0.0,0.0,0.0,0.0,0.0,0.0,0.0,0.0,0.0,0.0,0.0,0.0,0.0,0.0,0.0,0.0,0.0,0.0,0.0,0.0,0.0,0.0,0.0,0.0,0.0,0.0,0.0,0.0,0.0,0.0,0.0,0.0,0.0,0.0,0.0,0.0,0.0,0.0,0.0,0.0,0.0,0.0,0.0,0.0,0.0,0.0,0.0,0.0,0.0,-5.1231,-5.2849,-5.3888,-5.5338,-5.7153,-5.8878,-5.923,-5.7981,-5.6239,-5.4828,0.0,0.0,0.0,0.0,0.0,0.0,0.0,0.0,0.0,0.0,0.0,0.0,0.0,0.0,0.0,0.0,0.0,0.0,0.0,0.0,0.0,0.0,0.0,0.0,0.0,0.0,0.0,0.0,-4.1561,-4.2789,-4.4916,0.0,0.0,0.0,0.0,0.0,0.0,0.0,0.0,0.0,0.0,-5.8571,-5.9887,-6.1313,-6.169,-6.0426,-6.1385,-6.169,-6.0426,-6.028,-6.028,-6.028,0.0,0.0,0.0,0.0,0.0,0.0,0.0,0.0,0.0,0.0,0.0,0.0,0.0,0.0,0.0,0.0,0.0,0.0,0.0,0.0,0.0,0.0,0.0,0.0,0.0,0.0,0.0,0.0,0.0,0.0,0.0,0.0,0.0,0.0,0.0,0.0,0.0,0.0,0.0,0.0,0.0,0.0,0.0,0.0,0.0,0.0,0.0,0.0,0.0,0.0,0.0,0.0,0.0,-5.2857,-5.4324,-5.5209,-5.6467,-5.8455,-5.9624,-6.0073,-5.9664,-5.7396,-5.5923,0.0,0.0,0.0,0.0,0.0,0.0,0.0,0.0,0.0,0.0,0.0,0.0,0.0,0.0,0.0,0.0,0.0,0.0,0.0,0.0,0.0,0.0,0.0,0.0,0.0,0.0,0.0,0.0,-4.172,-4.2762,-4.4111,0.0,0.0,0.0,0.0,0.0,0.0,0.0,0.0,0.0,0.0,-6.0098,-6.0447,-6.1872,0.0,0.0,-6.1761,-6.2328,-6.0499,-6.0358,-6.0356,-6.0498,-6.0626,0.0,0.0,0.0,0.0,0.0,0.0,0.0,0.0,0.0,0.0,0.0,0.0,0.0,0.0,0.0,0.0,0.0,0.0,0.0,0.0,0.0,0.0,0.0,0.0,0.0,0.0,0.0,0.0,0.0,0.0,0.0,0.0,0.0,0.0,0.0,0.0,0.0,0.0,0.0,0.0,0.0,0.0,0.0,0.0,0.0,0.0,0.0,0.0,0.0,0.0,0.0,0.0,-5.4577,-5.7034,-5.6331,-5.7585,-6.1035,-6.1213,-6.146,-6.187,-5.8891,-5.752,0.0,0.0,0.0,0.0,0.0,0.0,0.0,0.0,0.0,0.0,0.0,0.0,0.0,0.0,0.0,0.0,0.0,0.0,0.0,0.0,0.0,0.0,0.0,0.0,0.0,0.0,0.0,0.0,0.0,0.0,0.0,0.0,0.0,0.0,0.0,0.0,0.0,0.0,0.0,0.0,0.0,-6.173,-6.0901,-6.2109,-6.2434,0.0,-6.2116,-6.2697,-6.083,-6.0629,-6.0742,-6.0856,0.0,0.0,0.0,0.0,0.0,0.0,0.0,0.0,0.0,0.0,0.0,0.0,0.0,0.0,0.0,0.0,0.0,0.0,0.0,0.0,0.0,0.0,0.0,0.0,0.0,0.0,0.0,0.0,0.0,0.0,0.0,0.0,0.0,0.0,0.0,0.0,0.0,0.0,0.0,0.0,0.0,0.0,0.0,0.0,0.0,0.0,0.0,0.0,0.0,0.0,0.0,0.0,0.0,0.0,-5.7735,-5.8219,-5.9298,-6.0952,-6.1129,-6.1209,-6.1289,-5.9714,0.0,0.0,0.0,0.0,0.0,0.0,0.0,0.0,0.0,0.0,0.0,0.0,0.0,0.0,0.0,0.0,0.0,0.0,0.0,0.0,0.0,0.0,0.0,0.0,0.0,0.0,0.0,-4.2468,0.0,0.0,0.0,0.0,0.0,0.0,0.0,0.0,0.0,0.0,0.0,0.0,0.0,0.0,-5.9153,-6.0233,-6.2292,-6.339,0.0,0.0,-6.5911,-6.3171,-6.279,-6.2497,0.0,0.0,0.0,0.0,0.0,0.0,0.0,0.0,0.0,0.0,0.0,0.0,0.0,0.0,0.0,0.0,0.0,0.0,0.0,0.0,0.0,0.0,0.0,0.0,0.0,0.0,0.0,0.0,0.0,0.0,0.0,0.0,0.0,0.0,0.0,0.0,0.0,0.0,0.0,0.0,0.0,0.0,0.0,0.0,0.0,0.0,0.0,0.0,0.0,0.0,0.0,0.0,0.0,0.0,-5.698,-5.7961,-5.9597,-6.0437,-6.0326,-6.0375,-6.0375,-6.0375,-5.935,-5.8325,0.0,0.0,0.0,0.0,0.0,0.0,0.0,0.0,0.0,0.0,0.0,0.0,0.0,0.0,0.0,0.0,0.0,0.0,0.0,0.0,0.0,0.0,0.0,0.0,0.0,0.0,0.0,0.0,0.0,0.0,0.0,0.0,0.0,0.0,0.0,0.0,0.0,0.0,0.0,0.0,0.0,0.0,-6.0794,-6.3637,0.0,0.0,0.0,-6.715,-6.4039,0.0,0.0,0.0,0.0,0.0,0.0,0.0,0.0,0.0,0.0,0.0,0.0,0.0,0.0,0.0,0.0,0.0,0.0,0.0,0.0,0.0,0.0,0.0,0.0,0.0,0.0,0.0,0.0,0.0,0.0,0.0,0.0,0.0,0.0,0.0,0.0,0.0,0.0,0.0,0.0,0.0,0.0,0.0,0.0,0.0,0.0,0.0,0.0,0.0,0.0,0.0,0.0,0.0,0.0,0.0,0.0,0.0,-5.8313,-6.0527,-6.1206,-6.0261,-6.0261,-6.0107,-5.9953,-5.8922,-5.7794,0.0,0.0,0.0,0.0,0.0,0.0,0.0,0.0,0.0,0.0,0.0,0.0,0.0,0.0,0.0,0.0,0.0,0.0,0.0,0.0,0.0,0.0,0.0,0.0,0.0,0.0,0.0,0.0,0.0,0.0,0.0,0.0,0.0,0.0,0.0,0.0,0.0,0.0,0.0,0.0,0.0,-6.253,-6.2091,-6.5148,-6.6266,0.0,0.0,-6.7302,-6.4396,-6.4939,0.0,0.0,0.0,0.0,0.0,0.0,0.0,0.0,0.0,0.0,0.0,0.0,0.0,0.0,0.0,0.0,0.0,0.0,0.0,0.0,0.0,0.0,0.0,0.0,0.0,0.0,0.0,0.0,0.0,0.0,0.0,0.0,0.0,0.0,0.0,0.0,0.0,0.0,0.0,0.0,0.0,0.0,0.0,0.0,0.0,0.0,0.0,0.0,0.0,0.0,0.0,0.0,0.0,0.0,0.0,0.0,-6.0334,-6.1426,-6.2789,-6.449,-6.464,-6.4091,-6.2797,-6.166,-6.0218,0.0,0.0,0.0,0.0,0.0,0.0,0.0,0.0,0.0,0.0,0.0,0.0,0.0,0.0,0.0,0.0,0.0,0.0,0.0,0.0,0.0,0.0,0.0,0.0,0.0,0.0,0.0,0.0,0.0,0.0,0.0,0.0,0.0,0.0,0.0,0.0,0.0,0.0,0.0,0.0,0.0,-6.1584,-6.3014,-6.4319,0.0,0.0,0.0,0.0,-6.6563,-6.5674,0.0,0.0,0.0,0.0,0.0,0.0,0.0,0.0,0.0,0.0,0.0,0.0,0.0,0.0,0.0,0.0,0.0,0.0,0.0,0.0,0.0,0.0,0.0,0.0,0.0,0.0,0.0,0.0,0.0,0.0,0.0,0.0,0.0,0.0,0.0,0.0,0.0,0.0,0.0,0.0,0.0,0.0,0.0,0.0,0.0,0.0,0.0,0.0,0.0,0.0,0.0,0.0,0.0,0.0,0.0,0.0,-5.99,-6.2346,-6.4111,-6.5057,-6.5422,-6.5077,-6.4119,-6.2484,-6.0838,0.0,0.0,0.0,0.0,0.0,0.0,0.0,0.0,0.0,0.0,0.0,0.0,0.0,0.0,0.0,0.0,0.0,0.0,0.0,0.0,0.0,0.0,0.0,0.0,0.0,0.0,0.0,0.0,0.0,0.0,0.0,0.0,0.0,0.0,0.0,0.0,0.0,0.0,0.0,0.0,-6.1836,-6.1779,-6.2922,0.0,0.0,0.0,0.0,0.0,0.0,-6.5938,-6.528,0.0,0.0,0.0,0.0,0.0,0.0,0.0,0.0,0.0,0.0,0.0,0.0,0.0,0.0,0.0,0.0,0.0,0.0,0.0,0.0,0.0,0.0,0.0,0.0,0.0,0.0,0.0,0.0,0.0,0.0,0.0,0.0,0.0,0.0,0.0,0.0,0.0,0.0,0.0,0.0,0.0,0.0,0.0,0.0,0.0,0.0,0.0,0.0,0.0,0.0,0.0,0.0,0.0,0.0,0.0,-5.9259,-6.3216,-6.5244,-6.511,-6.5698,-6.5806,-6.545,-6.3057,-6.1396,-6.0427,0.0,0.0,0.0,0.0,0.0,0.0,0.0,0.0,0.0,0.0,0.0,0.0,0.0,0.0,0.0,0.0,0.0,0.0,0.0,0.0,0.0,0.0,0.0,0.0,0.0,0.0,0.0,0.0,0.0,0.0,0.0,0.0,0.0,0.0,0.0,0.0,0.0,0.0,0.0,-6.2345,-6.2471,0.0,0.0,0.0,0.0,0.0,0.0,0.0,0.0,-6.5266,0.0,0.0,0.0,0.0,0.0,0.0,0.0,0.0,0.0,0.0,0.0,0.0,0.0,0.0,0.0,0.0,0.0,0.0,0.0,0.0,0.0,0.0,0.0,0.0,0.0,0.0,0.0,0.0,0.0,0.0,0.0,0.0,0.0,0.0,0.0,0.0,0.0,0.0,0.0,0.0,0.0,0.0,0.0,0.0,0.0,0.0,0.0,0.0,0.0,0.0,0.0,0.0,0.0,0.0,0.0,0.0,-6.4298,-6.6597,-6.8818,-6.9905,-6.9933,-6.869,-6.6176,-6.4131,-6.2695,0.0,0.0,0.0,0.0,0.0,0.0,0.0,0.0,0.0,0.0,0.0,0.0,0.0,0.0,0.0,0.0,0.0,0.0,0.0,0.0,0.0,0.0,0.0,0.0,0.0,0.0,0.0,0.0,0.0,0.0,0.0,0.0,0.0,0.0,0.0,0.0,0.0,0.0,-6.1398,-6.2254,0.0,0.0,0.0,0.0,0.0,0.0,0.0,0.0,-6.3214,0.0,0.0,0.0,0.0,0.0,0.0,0.0,0.0,0.0,0.0,0.0,0.0,0.0,0.0,0.0,0.0,0.0,0.0,0.0,0.0,0.0,0.0,0.0,0.0,0.0,0.0,0.0,0.0,0.0,0.0,0.0,0.0,0.0,0.0,0.0,0.0,0.0,0.0,0.0,0.0,0.0,0.0,0.0,0.0,0.0,0.0,0.0,0.0,0.0,0.0,0.0,0.0,0.0,0.0,0.0,0.0,0.0,0.0,-6.6444,-6.871,-6.9726,-6.975,-6.8849,-6.5905,-6.395,0.0,0.0,0.0,0.0,0.0,0.0,0.0,0.0,0.0,0.0,0.0,0.0,0.0,0.0,0.0,0.0,0.0,0.0,0.0,0.0,0.0,0.0,0.0,0.0,0.0,0.0,0.0,0.0,0.0,0.0,0.0,0.0,0.0,0.0,0.0,0.0,0.0,0.0,0.0,0.0,0.0,0.0,0.0,0.0,0.0,0.0,0.0,0.0,0.0,0.0,0.0,0.0,0.0,0.0,0.0,0.0,0.0,0.0,0.0,0.0,0.0,0.0,0.0,0.0,0.0,0.0,0.0,0.0,0.0,0.0,0.0,0.0,0.0,0.0,0.0,0.0,0.0,0.0,0.0,0.0,0.0,0.0,0.0,0.0,0.0,0.0,0.0,0.0,0.0,0.0,0.0,0.0,0.0,0.0,0.0,0.0,0.0,0.0,0.0,0.0,0.0,0.0,0.0,0.0,0.0,0.0,0.0,0.0,-6.5603,-6.7238,-6.7858,-6.8163,-6.8143,-6.4909,-6.2936,0.0,0.0,0.0,0.0,0.0,0.0,0.0,0.0,0.0,0.0,0.0,0.0,0.0,0.0,0.0,0.0,0.0,0.0,0.0,0.0,0.0,0.0,0.0,0.0,0.0,0.0,0.0,0.0,0.0,0.0,0.0,0.0,0.0,0.0,0.0,0.0,0.0,0.0,0.0,0.0,0.0,0.0,0.0,0.0,0.0,0.0,0.0,0.0,-6.2093,0.0,0.0,0.0,0.0,0.0,0.0,0.0,0.0,0.0,0.0,0.0,0.0,0.0,0.0,0.0,0.0,0.0,0.0,0.0,0.0,0.0,0.0,0.0,0.0,0.0,0.0,0.0,0.0,0.0,0.0,0.0,0.0,0.0,0.0,0.0,0.0,0.0,0.0,0.0,0.0,0.0,0.0,0.0,0.0,0.0,0.0,0.0,0.0,0.0,0.0,0.0,0.0,0.0,0.0,0.0,0.0,0.0,0.0,0.0,-6.3983,-6.5318,-6.5436,-6.6077,-6.7066,-6.4623,-6.2122,0.0,0.0,0.0,0.0,0.0,0.0,0.0,0.0,0.0,0.0,0.0,0.0,0.0,0.0,0.0,0.0,0.0,0.0,0.0,0.0,0.0,0.0,0.0,0.0,0.0,0.0,0.0,0.0,0.0,0.0,0.0,0.0,0.0,0.0,0.0,0.0,0.0,0.0,0.0,0.0,0.0,0.0,0.0,0.0,0.0,0.0,0.0,0.0,0.0,0.0,0.0,0.0,0.0,0.0,0.0,0.0,0.0,0.0,0.0,0.0,0.0,0.0,0.0,0.0,0.0,0.0,0.0,0.0,0.0,0.0,0.0,0.0,0.0,0.0,0.0,0.0,0.0,0.0,0.0,0.0,0.0,0.0,0.0,0.0,0.0,0.0,0.0,0.0,0.0,0.0,0.0,0.0,0.0,0.0,0.0,0.0,0.0,0.0,0.0,0.0,0.0,0.0,0.0,0.0,0.0,0.0,0.0,0.0,-6.3402,-6.3983,-6.474,-6.4977,-6.467,-6.2284,-6.0377,0.0,0.0,0.0,0.0,0.0,0.0,0.0,0.0,0.0,0.0,0.0,0.0,0.0,0.0,0.0,0.0,0.0,0.0,0.0,0.0,0.0,0.0,0.0,0.0,0.0,0.0,0.0,0.0,0.0,0.0,0.0,0.0,0.0,0.0,0.0,0.0,0.0,0.0,0.0,0.0,0.0,0.0,0.0,0.0,0.0,0.0,0.0,0.0,0.0,0.0,0.0,0.0,0.0,0.0,0.0,0.0,0.0,0.0,0.0,0.0,0.0,0.0,0.0,0.0,0.0,0.0,0.0,0.0,0.0,0.0,0.0,0.0,0.0,0.0,0.0,0.0,0.0,0.0,0.0,0.0,0.0,0.0,0.0,0.0,0.0,0.0,0.0,0.0,0.0,0.0,0.0,0.0,0.0,0.0,0.0,0.0,0.0,0.0,0.0,0.0,0.0,0.0,0.0,0.0,0.0,0.0,0.0,0.0,0.0,-6.316,-6.4039,-6.3914,-6.2524,-6.0731,-5.9479,0.0,0.0,0.0,0.0,0.0,0.0,0.0,0.0,0.0,0.0,0.0,0.0,0.0,0.0,0.0,0.0,0.0,0.0,0.0,0.0,0.0,0.0,0.0,0.0,0.0,0.0,0.0,0.0,0.0,0.0,0.0,0.0,0.0,0.0,0.0,0.0,0.0,0.0,0.0,0.0,0.0,0.0,0.0,0.0,0.0,0.0,0.0,0.0,0.0,0.0,0.0,0.0,0.0,0.0,0.0,0.0,0.0,0.0,0.0,0.0,0.0,0.0,0.0,0.0,0.0,0.0,0.0,0.0,0.0,0.0,0.0,0.0,0.0,0.0,0.0,0.0,0.0,0.0,0.0,0.0,0.0,0.0,0.0,0.0,0.0,0.0,0.0,0.0,0.0,0.0,0.0,0.0,0.0,0.0,0.0,0.0,0.0,0.0,0.0,0.0,0.0,0.0,0.0,0.0,0.0,0.0,0.0,0.0,0.0,-6.2958,-6.3018,-6.2529,-6.1417,-6.1107,-5.9862,0.0,0.0,0.0,0.0,0.0,0.0,0.0,0.0,0.0,0.0,0.0,0.0,0.0,0.0,0.0,0.0,0.0,0.0,0.0,0.0,0.0,0.0,0.0,0.0,0.0,0.0,0.0,0.0,0.0,0.0,0.0,0.0,0.0,0.0,0.0,0.0,0.0,0.0,0.0,0.0,0.0,0.0,0.0,0.0,0.0,0.0,0.0,0.0,0.0,0.0,0.0,0.0,0.0,0.0,0.0,0.0,0.0,0.0,0.0,0.0,0.0,0.0,0.0,0.0,0.0,0.0,0.0,0.0,0.0,0.0,0.0,0.0,0.0,0.0,0.0,0.0,0.0,0.0,0.0,0.0,0.0,0.0,0.0,0.0,0.0,0.0,0.0,0.0,0.0,0.0,0.0,0.0,0.0,0.0,0.0,0.0,0.0,0.0,0.0,0.0,0.0,0.0,0.0,0.0,0.0,0.0,0.0,0.0,0.0,-6.5209,-6.4756,-6.3775,-6.2418,-6.1526,-5.9606,-5.6408,0.0,0.0,0.0,0.0,0.0,0.0,0.0,0.0,0.0,0.0,0.0,0.0,0.0,0.0,0.0,0.0,0.0,0.0,0.0,0.0,0.0,0.0,0.0,0.0,0.0,0.0,0.0,0.0,0.0,0.0,0.0,0.0,0.0,0.0,0.0,0.0,0.0,0.0,0.0,0.0,0.0,0.0,0.0,0.0,0.0,0.0,0.0,0.0,0.0,0.0,0.0,0.0,0.0,0.0,0.0,0.0,0.0,0.0,0.0,0.0,0.0,0.0,0.0,0.0,0.0,0.0,0.0,0.0,0.0,0.0,0.0,0.0,0.0,0.0,0.0,0.0,0.0,0.0,0.0,0.0,0.0,0.0,0.0,0.0,0.0,0.0,0.0,0.0,0.0,0.0,0.0,0.0,0.0,0.0,0.0,0.0,0.0,0.0,0.0,0.0,0.0,0.0,0.0,0.0,0.0,0.0,0.0,0.0,-6.6243,-6.6,-6.5107,-6.3732,-6.242,-6.0206,0.0,0.0,0.0,0.0,0.0,0.0,0.0,0.0,0.0,0.0,0.0,0.0,0.0,0.0,0.0,0.0,0.0,0.0,0.0,0.0,0.0,0.0,0.0,0.0,0.0,0.0,0.0,0.0,0.0,0.0,0.0,0.0,0.0,0.0,0.0,0.0,0.0,0.0,0.0,0.0,0.0,0.0,0.0,0.0,0.0,0.0,0.0,0.0,0.0,0.0,0.0,0.0,0.0,0.0,0.0,0.0,0.0,0.0,0.0,0.0,0.0,0.0,0.0,0.0,0.0,0.0,0.0,0.0,0.0,0.0,0.0,0.0,0.0,0.0,0.0,0.0,0.0,0.0,0.0,0.0,0.0,0.0,0.0,0.0,0.0,0.0,0.0,0.0,0.0,0.0,0.0,0.0,0.0,0.0,0.0,0.0,0.0,0.0,0.0,0.0,0.0,0.0,0.0,0.0,0.0,0.0,0.0,0.0,-6.4245,-6.5409,-6.634,-6.6325,-6.5284,-6.356,-6.1806,0.0,0.0,0.0,0.0,0.0,0.0,0.0,0.0,0.0,0.0,0.0,0.0,0.0,0.0,0.0,0.0,0.0,0.0,0.0,0.0,0.0,0.0,0.0,0.0,0.0,0.0,0.0,0.0,0.0,0.0,0.0,0.0,0.0,0.0,0.0,0.0,0.0,0.0,0.0,0.0,0.0,0.0,0.0,0.0,0.0,0.0,0.0,0.0,0.0,0.0,0.0,0.0,0.0,0.0,0.0,0.0,0.0,0.0,0.0,0.0,0.0,0.0,0.0,0.0,0.0,0.0,0.0,0.0,0.0,0.0,0.0,0.0,0.0,0.0,0.0,0.0,0.0,0.0,0.0,0.0,0.0,0.0,0.0,0.0,0.0,0.0,0.0,0.0,0.0,0.0,0.0,0.0,0.0,0.0,0.0,0.0,0.0,0.0,0.0,0.0,0.0,0.0,0.0,0.0,0.0,0.0,0.0,0.0,0.0,-6.7907,0.0,-6.7002,0.0,-6.3483,-6.1393,0.0,0.0,0.0,0.0,0.0,0.0,0.0,0.0,0.0,0.0,0.0,0.0,0.0,0.0,0.0,0.0,0.0,0.0,0.0,0.0,0.0,0.0,0.0,0.0,0.0,0.0,0.0,0.0,0.0,0.0,0.0,0.0,0.0,0.0,0.0,0.0,0.0,0.0,0.0,0.0,0.0,0.0,0.0,0.0,0.0,0.0,0.0,0.0,0.0,0.0,0.0,0.0,0.0,0.0,0.0,0.0,0.0,0.0,0.0,0.0,0.0,0.0,0.0,0.0,0.0,0.0,0.0,0.0,0.0,0.0,0.0,0.0,0.0,0.0,0.0,0.0,0.0,0.0,0.0,0.0,0.0,0.0,0.0,0.0,0.0,0.0,0.0,0.0,0.0,0.0,0.0,0.0,0.0,0.0,0.0,0.0,0.0,0.0,0.0,0.0,0.0,0.0,0.0,0.0,0.0,0.0,0.0,0.0,0.0,-6.8605,-6.9025,-6.7714,-6.472,-6.4223,-6.2077,0.0,0.0,0.0,0.0,0.0,0.0,0.0,0.0,0.0,0.0,0.0,0.0,0.0,0.0,0.0,0.0,0.0,0.0,0.0,0.0,0.0,0.0,0.0,0.0,0.0,0.0,0.0,0.0,0.0,0.0,0.0,0.0,0.0,0.0,0.0,0.0,0.0,0.0,0.0,0.0,0.0,0.0,0.0,0.0,0.0,0.0,0.0,0.0,0.0,0.0,0.0,0.0,0.0,0.0,0.0,0.0,0.0,0.0,0.0,0.0,0.0,0.0,0.0,0.0,0.0,0.0,0.0,0.0,0.0,0.0,0.0,0.0,0.0,0.0,0.0,0.0,0.0,0.0,0.0,0.0,0.0,0.0,0.0,0.0,0.0,0.0,0.0,0.0,0.0,0.0,0.0,0.0,0.0,0.0,0.0,0.0,0.0,0.0,0.0,0.0,0.0,0.0,0.0,0.0,0.0,0.0,0.0,0.0,0.0,-6.777,-6.8694,-6.852,-6.7163,-6.5717,-6.3731,0.0,0.0,0.0,0.0,0.0,0.0,0.0,0.0,0.0,0.0,0.0,0.0,0.0,0.0,0.0,0.0,0.0,0.0,0.0,0.0,0.0,0.0,0.0,0.0,0.0,0.0,0.0,0.0,0.0,0.0,0.0,0.0,0.0,0.0,0.0,0.0,0.0,0.0,0.0,0.0,0.0,0.0,0.0,0.0,0.0,0.0,0.0,0.0,0.0,0.0,0.0,0.0,0.0,0.0,0.0,0.0,0.0,0.0,0.0,0.0,0.0,0.0,0.0,0.0,0.0,0.0,0.0,0.0,0.0,0.0,0.0,0.0,0.0,0.0,0.0,0.0,0.0,0.0,0.0,0.0,0.0,0.0,0.0,0.0,0.0,0.0,0.0,0.0,0.0,0.0,0.0,0.0,0.0,0.0,0.0,0.0,0.0,0.0,0.0,0.0,0.0,0.0,0.0,0.0,0.0,0.0,0.0,0.0,0.0,0.0,-6.9068,-6.9003,-6.8477,-6.5562,-6.267,-5.9991,0.0,0.0,0.0,0.0,0.0,0.0,0.0,0.0,0.0,0.0,0.0,0.0,0.0,0.0,0.0,0.0,0.0,0.0,0.0,0.0,0.0,0.0,0.0,0.0,0.0,0.0,0.0,0.0,0.0,0.0,0.0,0.0,0.0,0.0,0.0,0.0,0.0,0.0,0.0,0.0,0.0,0.0,0.0,0.0,0.0,0.0,0.0,0.0,0.0,0.0,0.0,0.0,0.0,0.0,0.0,0.0,0.0,0.0,0.0,0.0,0.0,0.0,0.0,0.0,0.0,0.0,0.0,0.0,0.0,0.0,0.0,0.0,0.0,0.0,0.0,0.0,0.0,0.0,0.0,0.0,0.0,0.0,0.0,0.0,0.0,0.0,0.0,0.0,0.0,0.0,0.0,0.0,0.0,0.0,0.0,0.0,0.0,0.0,0.0,0.0,0.0,0.0,0.0,0.0,0.0,0.0,0.0,0.0,0.0,0.0,-6.92,-6.92,-6.5886,-6.279,0.0,0.0,0.0,0.0,0.0,0.0,0.0,0.0,0.0,0.0,0.0,0.0,0.0,0.0,0.0,0.0,0.0,0.0,0.0,0.0,0.0,0.0,0.0,0.0,0.0,0.0,0.0,0.0,0.0,0.0,0.0,0.0,0.0,0.0,0.0,0.0,0.0,0.0,0.0,0.0,0.0,0.0,0.0,0.0,0.0,0.0,0.0,0.0,0.0,0.0,0.0,0.0,0.0,0.0,0.0,0.0,0.0,0.0,0.0,0.0,0.0,0.0,0.0,0.0,0.0,0.0,0.0,0.0,0.0,0.0,0.0,0.0,0.0,0.0,0.0,0.0,0.0,0.0,0.0,0.0,0.0,0.0,0.0,0.0,0.0,0.0,0.0,0.0,0.0,0.0,0.0,0.0,0.0,0.0,0.0,0.0,0.0,0.0,0.0,0.0,0.0,0.0,0.0,0.0,0.0,0.0,0.0,0.0,0.0,0.0,0.0,-6.9134,-6.9003,-6.6308,0.0,-6.0947,0.0,0.0,0.0,0.0,0.0,0.0,0.0,0.0,0.0,0.0,0.0,0.0,0.0,0.0,0.0,0.0,0.0,0.0,0.0,0.0,0.0,0.0,0.0,0.0,0.0,0.0,0.0,0.0,0.0,0.0,0.0,0.0,0.0,0.0,0.0,0.0,0.0,0.0,0.0,0.0,0.0,0.0,0.0,0.0,0.0,0.0,0.0,0.0,0.0,0.0,0.0,0.0,0.0,0.0,0.0,0.0,0.0,0.0,0.0,0.0,0.0,0.0,0.0,0.0,0.0,0.0,0.0,0.0,0.0,0.0,0.0,0.0,0.0,0.0,0.0,0.0,0.0,0.0,0.0,0.0,0.0,0.0,0.0,0.0,0.0,0.0,0.0,0.0,0.0,0.0,0.0,0.0,0.0,0.0,0.0,0.0,0.0,0.0,0.0,0.0,0.0,0.0,0.0,0.0,0.0,0.0,0.0,0.0,0.0,0.0,0.0,0.0,-6.5824,-6.4114,-6.2339,0.0,0.0,0.0,0.0,0.0,0.0,0.0,0.0,0.0,0.0,0.0,0.0,0.0,0.0,0.0,0.0,0.0,0.0,0.0,0.0,0.0,0.0,0.0,0.0,0.0,0.0,0.0,0.0,0.0,0.0,0.0,0.0,0.0,0.0,0.0,0.0,0.0,0.0,0.0,0.0,0.0,0.0,0.0,0.0,0.0,0.0,0.0,0.0,0.0,0.0,0.0,0.0,0.0,0.0,0.0,0.0,0.0,0.0,0.0,0.0,0.0,0.0,0.0,0.0,0.0,0.0,0.0,0.0,0.0,0.0,0.0,0.0,0.0,0.0,0.0,0.0,0.0,0.0,0.0,0.0,0.0,0.0,0.0,0.0,0.0,0.0,0.0,0.0,0.0,0.0,0.0,0.0,0.0,0.0,0.0,0.0,0.0,0.0,0.0,0.0,0.0,0.0,0.0,0.0,0.0,0.0,0.0,0.0,0.0,0.0,-6.8715,-6.7308,-6.5734,-6.4246,-6.2839,0.0,0.0,0.0,0.0,0.0,0.0,0.0,0.0,0.0,0.0,0.0,0.0,0.0,0.0,0.0,0.0,0.0,0.0,0.0,0.0,0.0,0.0,0.0,0.0,0.0,0.0,0.0,0.0,0.0,0.0,0.0,0.0,0.0,0.0,0.0,0.0,0.0,0.0,0.0,0.0,0.0,0.0,0.0,0.0,0.0,0.0,0.0,0.0,0.0,0.0,0.0,0.0,0.0,0.0,0.0,0.0,0.0,0.0,0.0,0.0,0.0,0.0,0.0,0.0,0.0,0.0,0.0,0.0,0.0,0.0,0.0,0.0,0.0,0.0,0.0,0.0,0.0,0.0,0.0,0.0,0.0,0.0,0.0,0.0,0.0,0.0,0.0,0.0,0.0,0.0,0.0,0.0,0.0,0.0,0.0,0.0,0.0,0.0,0.0,0.0,0.0,0.0,0.0,0.0,0.0,0.0,0.0,0.0,0.0,0.0,0.0,0.0,0.0,0.0,-6.2615,0.0,0.0,0.0,0.0,0.0,0.0,0.0,0.0,0.0,0.0,0.0,0.0,0.0,0.0,0.0,0.0,0.0,0.0,0.0,0.0,0.0,0.0,0.0,0.0,0.0,0.0,0.0,0.0,0.0,0.0,0.0,0.0,0.0,0.0,0.0,0.0,0.0,0.0,0.0,0.0,0.0,0.0,0.0,0.0,0.0,0.0,0.0,0.0,0.0,0.0,0.0,0.0,0.0,0.0,0.0,0.0,0.0,0.0,0.0,0.0,0.0,0.0,0.0,0.0,0.0,0.0,0.0,0.0,0.0,0.0,0.0,0.0,0.0,0.0,0.0,0.0,0.0,0.0,0.0,0.0,0.0,0.0,0.0,0.0,0.0,0.0,0.0,0.0,0.0,0.0,0.0,0.0,0.0,0.0,0.0,0.0,0.0,0.0,0.0,0.0,0.0,0.0,0.0,0.0,0.0,0.0,0.0,0.0,0.0,0.0,0.0,0.0,0.0,0.0,0.0,0.0,0.0,0.0,0.0,0.0,0.0,0.0,0.0,0.0,0.0,0.0,0.0,0.0,0.0,0.0,0.0,0.0,0.0,0.0,0.0,0.0,0.0,0.0,0.0,0.0,0.0,0.0,0.0,0.0,0.0,0.0,0.0,0.0,0.0,0.0,0.0,0.0,0.0,0.0,0.0,0.0,0.0,0.0,0.0,0.0,0.0,0.0,0.0,0.0,0.0,0.0,0.0,0.0,0.0,0.0,0.0,0.0,0.0,0.0,0.0,0.0,0.0,0.0,0.0,0.0,0.0,0.0,0.0,0.0,0.0,0.0,0.0,0.0,0.0,0.0,0.0,0.0,0.0,0.0,0.0,0.0,0.0,0.0,0.0,0.0,0.0,0.0,0.0,0.0,0.0,0.0,0.0,0.0,0.0,0.0,0.0,0.0,0.0,0.0,0.0,0.0,0.0,0.0,0.0,0.0,0.0,0.0,0.0,0.0,0.0,0.0,0.0,0.0,0.0,0.0,0.0,0.0,0.0,0.0,0.0,0.0,0.0,0.0,0.0,0.0,0.0,0.0,0.0,0.0,0.0,0.0,0.0,0.0,0.0,0.0,0.0,0.0,0.0,0.0,0.0,0.0,0.0,0.0,0.0,0.0,0.0,0.0,0.0,0.0,0.0,0.0,0.0,0.0,0.0,0.0,0.0,0.0,0.0,0.0,0.0,0.0,0.0,0.0,0.0,0.0,0.0,0.0,0.0,0.0,0.0,0.0,0.0,0.0,0.0,0.0,0.0,0.0,0.0,0.0,0.0,0.0,0.0,0.0,0.0,0.0,0.0,0.0,0.0,0.0,0.0,0.0,0.0,0.0,0.0,0.0,0.0,0.0,0.0,0.0,0.0,0.0,0.0,0.0,0.0,0.0,0.0,0.0,0.0,0.0,0.0,0.0,0.0,0.0,0.0,0.0,0.0,0.0,0.0,0.0,0.0,0.0,0.0,0.0,0.0,0.0,0.0,0.0,0.0,0.0,0.0,0.0,0.0,0.0,0.0,0.0,0.0,0.0,0.0,0.0,0.0,0.0,0.0,0.0,0.0,0.0,0.0,0.0,0.0,0.0,0.0,0.0,0.0,0.0,0.0,0.0,0.0,0.0,0.0,0.0,0.0,0.0,0.0,0.0,0.0,0.0,0.0,0.0,0.0,0.0,0.0,0.0,0.0,0.0,0.0,0.0,0.0,0.0,0.0,0.0,0.0,0.0,0.0,0.0,0.0,0.0,0.0,0.0,0.0,0.0,0.0,0.0,0.0,0.0,0.0,0.0,0.0,0.0,0.0,0.0,0.0,0.0,0.0,0.0,0.0,0.0,0.0,0.0,0.0,0.0,0.0,0.0,0.0,0.0,0.0,0.0,0.0,0.0,0.0,0.0,0.0,0.0,0.0,0.0,0.0,0.0,0.0,0.0,0.0,0.0,0.0,0.0,0.0,0.0,0.0,0.0,0.0,0.0,0.0,0.0,0.0,0.0,0.0,0.0,0.0,0.0,0.0,0.0,0.0,0.0,0.0,0.0,0.0,0.0,0.0,0.0,0.0,0.0,0.0,0.0,0.0,0.0,0.0,0.0,0.0,0.0,0.0,0.0,0.0,0.0,0.0,0.0,0.0,0.0,0.0,0.0,0.0,0.0,0.0,0.0,0.0,0.0,0.0,0.0,0.0,0.0,0.0,0.0,0.0,0.0,0.0,0.0,0.0,0.0,0.0,0.0,0.0,0.0,0.0,0.0,0.0,0.0,0.0,0.0,0.0,0.0,0.0,0.0,0.0,0.0,0.0,0.0,0.0,0.0,0.0,0.0,0.0,0.0,0.0,0.0,0.0,0.0,0.0,0.0,0.0,0.0,0.0,0.0,0.0,0.0,0.0,0.0,0.0,0.0,0.0,0.0,0.0,0.0,0.0,0.0,0.0,0.0,0.0,0.0,0.0,0.0,0.0,0.0,0.0,0.0,0.0,0.0,0.0,0.0,0.0,0.0,0.0,0.0,0.0,0.0,0.0,0.0,0.0,0.0,0.0,0.0,0.0,0.0,0.0,0.0,0.0,0.0,0.0,0.0,0.0,0.0,0.0,0.0,0.0,0.0,0.0,0.0,0.0,0.0,0.0,0.0,0.0,0.0,0.0,0.0,0.0,0.0,0.0,0.0,0.0,0.0,0.0,0.0,0.0,0.0,0.0,0.0,0.0,0.0,0.0,0.0,0.0,0.0,0.0,0.0,0.0,0.0,0.0,0.0,0.0,0.0,0.0,0.0,0.0,0.0,0.0,0.0,0.0,0.0,0.0,0.0,0.0,0.0,0.0,0.0,0.0,0.0,0.0,0.0,0.0,0.0,0.0,0.0,0.0,0.0,0.0,0.0,0.0,0.0,0.0,0.0,0.0,0.0,0.0,0.0,0.0,0.0,0.0,0.0,0.0,0.0,0.0,0.0,0.0,0.0,0.0,0.0,0.0,0.0,0.0,0.0,0.0,0.0,0.0,0.0,0.0,0.0,0.0,0.0,0.0,0.0,0.0,0.0,0.0,0.0,0.0,0.0,0.0,0.0,0.0,0.0,0.0,0.0,0.0,0.0,0.0,0.0,0.0,0.0,0.0,0.0,0.0,0.0,0.0,0.0,0.0,0.0,0.0,0.0,0.0,0.0,0.0,0.0,0.0,0.0,0.0,0.0,0.0,0.0,0.0,0.0,0.0,0.0,0.0,0.0,0.0,0.0,0.0,0.0,0.0,0.0,0.0,0.0,0.0,0.0,0.0,0.0,0.0,0.0,0.0,0.0,0.0,0.0,0.0,0.0,0.0,0.0,0.0,0.0,0.0,0.0,0.0,0.0,0.0,0.0,0.0,0.0,0.0,0.0,0.0,0.0,0.0,0.0,0.0,0.0,0.0,0.0,0.0,0.0,0.0,0.0,0.0,0.0,0.0,0.0,0.0,0.0,0.0,0.0,0.0,0.0,0.0,0.0,0.0,0.0,0.0,0.0,0.0,0.0,0.0,0.0,0.0,0.0,0.0,0.0,0.0,0.0,0.0,0.0,0.0,0.0,0.0,0.0,0.0,0.0,0.0,0.0,0.0,0.0,0.0,0.0,0.0,0.0,0.0,0.0,0.0,0.0,0.0,0.0,0.0,0.0,0.0,0.0,0.0,0.0,0.0,0.0,0.0,0.0,0.0,0.0,0.0,0.0,0.0,0.0,0.0,0.0,0.0,0.0,0.0,0.0,0.0,0.0,0.0,0.0,0.0,0.0,0.0,0.0,0.0,0.0,0.0,0.0,0.0,0.0,0.0,0.0,0.0,0.0,0.0,0.0,0.0,0.0,0.0,0.0,0.0,0.0,0.0,0.0,0.0,0.0,0.0,0.0,0.0,0.0,0.0,0.0,0.0,0.0,0.0,0.0,0.0,0.0,0.0,0.0,0.0,0.0,0.0,0.0,0.0,0.0,0.0,0.0,0.0,0.0,0.0,0.0,0.0,0.0,0.0,0.0,0.0,0.0,0.0,0.0,0.0,0.0,0.0,0.0,0.0,0.0,0.0,0.0,0.0,0.0,0.0,0.0,0.0,0.0,0.0,0.0,0.0,0.0,0.0,0.0,0.0,0.0,0.0,0.0,0.0,0.0,0.0,0.0,0.0,0.0,0.0,0.0,0.0,0.0,0.0,0.0,0.0,0.0,0.0,0.0,0.0,0.0,0.0,0.0,0.0,0.0,0.0,0.0,0.0,0.0,0.0,0.0,0.0,0.0,0.0,0.0,0.0,0.0,0.0,0.0,0.0,0.0,0.0,0.0,0.0,0.0,0.0,0.0,0.0,0.0,0.0,0.0,0.0,0.0]}],[{"header":{"parameterUnit":"kt","parameterCategory":2,"dx":1,"dy":1,"la1":29.587661999999998,"la2":31.0,"lo1":-88.76705300000003,"lo2":-86.6583820000003,"nx":115,"ny":88,"refTime":"2022-10-08T06:00:00:Z","depth":0,"parameterNumber":2,"parameterNumberName":"V-component_of_WINDS"},"data":[14.5984,14.7226,14.7554,14.7732,14.7686,14.7686,14.7686,14.7985,14.9181,15.0004,15.0976,15.3115,15.4162,15.4192,15.461,15.5552,15.6717,15.7328,15.7465,15.757,15.7465,15.7601,15.7781,15.793,15.7706,15.8155,15.8903,15.9725,16.0996,16.1819,16.2866,16.4372,16.4522,16.5195,16.6433,16.6774,16.6666,16.7189,16.7189,16.7189,16.7122,16.6274,16.6067,16.5843,16.5918,16.5843,16.5843,16.5843,16.5098,16.4054,16.3005,16.2557,16.2483,16.2632,16.2598,16.2563,16.1858,16.1491,16.1009,16.0453,15.9971,15.9865,15.9457,15.8603,15.8345,15.7529,15.7306,15.6824,15.675,15.6676,15.6602,15.6491,15.6491,15.6491,15.6417,15.6417,15.6417,15.6417,15.6417,15.6417,15.6194,15.5748,15.56,15.508,15.508,15.4857,15.4783,15.4857,15.456,15.4189,15.3594,15.2703,15.1738,15.1292,15.0698,15.0178,15.0178,15.0029,14.9509,14.8767,14.7875,14.687,14.687,14.7727,14.7281,14.6984,14.6944,14.7093,14.6795,14.6795,14.6795,14.6795,14.6795,14.6795,14.6795,14.508,14.5437,14.6901,14.7616,14.7761,14.7686,14.7686,14.7761,14.7985,14.8882,15.0125,15.0455,15.0634,15.186,15.3443,15.4533,15.5516,15.6349,15.7127,15.7233,15.7265,15.7403,15.754,15.7601,15.757,15.7795,15.7944,15.8766,15.9589,16.0037,16.0946,16.2301,16.294,16.3322,16.4415,16.4978,16.5534,16.628,16.628,16.6544,16.554,16.4238,16.3309,16.2712,16.2598,16.2523,16.2598,16.2598,16.2598,16.1967,16.1784,16.1411,16.1302,16.1004,16.1158,16.079,16.012,15.9567,15.9273,15.8529,15.7863,15.7381,15.6973,15.6899,15.6899,15.675,15.675,15.6565,15.6565,15.6491,15.6491,15.6491,15.6491,15.6491,15.6417,15.6342,15.6342,15.6268,15.6268,15.6268,15.5451,15.4447,15.3817,15.2852,15.2555,15.2258,15.2183,15.2183,15.2332,15.2406,15.1812,15.0698,14.9807,14.8767,14.7801,14.7727,14.8024,14.8024,14.8321,14.743,14.6836,14.6795,14.6795,14.6795,14.6795,14.687,14.6795,14.6795,14.6795,14.6795,14.6795,14.6795,14.6795,14.6795,14.6795,14.3244,14.4973,14.6631,14.7363,14.7453,14.7587,14.7616,14.7616,14.7616,14.796,14.8468,14.8482,14.9004,15.0378,15.1243,15.248,15.476,15.5441,15.6145,15.6923,15.7179,15.7244,15.7244,15.7319,15.7383,15.7351,15.7351,15.7532,15.8097,15.8545,15.9217,16.0495,16.0909,16.1473,16.2856,16.3194,16.3865,16.5321,16.4278,16.3874,16.3287,16.2617,16.1761,16.1612,16.1686,16.165,16.1612,16.1612,16.1165,16.057,16.0421,16.0198,15.9528,15.9266,15.9047,15.8752,15.8419,15.7714,15.7493,15.7122,15.6824,15.6824,15.6565,15.6602,15.6491,15.6491,15.6491,15.6491,15.6491,15.6268,15.6268,15.612,15.612,15.5674,15.5451,15.5228,15.5154,15.4783,15.4411,15.4337,15.3669,15.2777,15.2406,15.1515,15.1366,15.1218,15.1589,15.1812,15.1441,15.1218,14.9955,14.8841,14.8098,14.7093,14.6795,14.6795,14.6795,14.6795,14.7093,14.6795,14.6795,14.6795,14.6795,14.6795,14.6795,14.6795,14.6795,14.6795,14.6795,14.635,14.6424,14.6424,14.6795,14.6795,14.5607,14.1304,14.3657,14.5731,14.6805,14.7166,14.7332,14.7468,14.7468,14.7407,14.7346,14.7134,14.7252,14.7848,14.8955,14.9669,15.0946,15.3181,15.4009,15.5159,15.5863,15.6832,15.6973,15.7048,15.7114,15.7081,15.7048,15.7048,15.7189,15.7412,15.7379,15.7793,15.8803,15.8952,15.9703,16.1048,16.1197,16.1867,16.3282,16.1981,16.0683,16.0835,16.0687,16.013,16.0093,16.0093,15.9981,16.065,16.0762,16.0167,15.9685,15.9313,15.8348,15.716,15.6788,15.6565,15.6491,15.6824,15.675,15.664,15.664,15.6491,15.6491,15.6491,15.6491,15.6491,15.6491,15.6491,15.6491,15.6417,15.612,15.5971,15.5748,15.5526,15.4857,15.4189,15.3817,15.352,15.2777,15.196,15.1663,15.1366,15.1069,15.0921,15.0698,15.0549,15.0549,15.0549,15.0475,14.9807,14.9435,14.8173,14.7801,14.6944,14.6795,14.6795,14.6795,14.6795,14.6795,14.6795,14.6795,14.6795,14.6795,14.6795,14.6795,14.6647,14.6795,14.6795,14.6572,14.6019,14.5722,14.5499,14.4608,14.4864,14.4655,14.3501,13.9748,14.0248,14.3425,14.5562,14.706,14.7134,14.7166,14.7209,14.7051,14.7051,14.7072,14.7051,14.72,14.7785,14.8656,14.9632,15.0897,15.2615,15.373,15.4503,15.5694,15.6432,15.6575,15.7048,15.6947,15.7014,15.7014,15.6947,15.7014,15.7055,15.6953,15.6884,15.7108,15.7856,15.9124,15.9311,15.9831,16.076,15.9311,15.8234,15.8607,15.7902,15.6862,15.7085,15.7457,15.7828,15.8942,15.9536,15.9759,16.0205,16.0056,15.9165,15.8199,15.7531,15.6788,15.6565,15.6491,15.6491,15.6491,15.6491,15.6491,15.6491,15.6491,15.6342,15.612,15.5971,15.5526,15.5451,15.5154,15.4857,15.4486,15.4263,15.3892,15.3223,15.2555,15.2035,15.1589,15.0995,15.0401,15.0178,14.9807,14.9361,14.9212,14.8915,14.8767,14.7801,14.7687,14.7761,14.7538,14.7538,14.7093,14.7093,14.6795,14.6795,14.6795,14.6795,14.6795,14.6721,14.6795,14.6795,14.6647,14.6721,14.6795,14.6201,14.5647,14.6127,14.5904,14.5053,14.4385,14.431,14.3865,14.2825,14.2131,14.1773,14.0855,13.8507,13.9515,14.0917,14.2988,14.5359,14.6572,14.6986,14.6921,14.6822,14.6822,14.6888,14.6855,14.6896,14.707,14.7599,14.8349,14.9241,15.0881,15.1921,15.2843,15.4295,15.5069,15.5739,15.611,15.6517,15.6705,15.6705,15.6775,15.6705,15.6705,15.6705,15.656,15.6599,15.7009,15.7344,15.7679,15.8051,15.7828,15.7531,15.7085,15.7085,15.6937,15.6565,15.6862,15.7902,15.8348,15.9091,16.0279,16.065,16.0947,16.1022,16.0056,15.8793,15.8422,15.7828,15.6491,15.6491,15.6491,15.6491,15.6491,15.6491,15.6491,15.6491,15.5971,15.5451,15.4931,15.456,15.4189,15.3817,15.3446,15.3,15.2555,15.2035,15.1589,15.0846,15.0178,14.9732,14.9287,14.899,14.8767,14.847,14.795,14.7578,14.7167,14.6795,14.6795,14.6795,14.6795,14.6795,14.6795,14.6795,14.6795,14.6795,14.6795,14.6795,14.6795,14.6647,14.6498,14.635,14.6127,14.6572,14.6275,14.535,14.4905,14.4608,14.4088,14.3642,14.3048,14.2792,14.2751,14.2454,14.0529,13.8992,13.8734,13.8291,13.7552,13.8666,13.9144,14.0671,14.2899,14.422,14.5335,14.6127,14.6613,14.6795,14.6795,14.6795,14.6795,14.6795,14.6795,14.7464,14.8173,14.899,14.9955,15.1069,15.2664,15.3556,15.4373,15.519,15.5971,15.6379,15.6527,15.6563,15.6527,15.6527,15.6527,15.6491,15.6527,15.6527,15.6565,15.6491,15.664,15.664,15.6714,15.664,15.6565,15.6565,15.6491,15.664,15.7382,15.8199,15.8868,15.9908,16.1244,16.1542,16.1616,16.1022,15.961,15.9165,15.8274,15.6788,15.6491,15.6491,15.6491,15.6491,15.6491,15.6491,15.5303,15.456,15.3817,15.3297,15.2926,15.2629,15.2332,15.1738,15.1218,15.0772,15.0326,14.9732,14.8915,14.847,14.8321,14.795,14.7801,14.7578,14.7578,14.7167,14.7167,14.6795,14.6795,14.6795,14.6795,14.6795,14.6795,14.6795,14.6795,14.6795,14.6795,14.6795,14.6795,14.5978,14.6019,14.5944,14.5127,14.4608,14.4682,14.4385,14.3791,14.3419,14.3271,14.2602,14.1645,14.124,14.0951,14.1018,14.0124,13.7736,13.5867,13.5713,13.5445,13.6851,13.718,13.8666,13.9408,13.9557,14.0109,14.1669,14.431,14.5944,14.6721,14.6795,14.6795,14.6795,14.6795,14.6795,14.6944,14.7241,14.8321,14.8915,14.9658,15.0921,15.2332,15.3297,15.404,15.4931,15.5823,15.6268,15.6045,15.6491,15.6491,15.6491,15.6491,15.6491,15.6491,15.6491,15.6491,15.6491,15.6491,15.6491,15.6491,15.6491,15.6491,15.6491,15.6714,15.716,15.7976,15.8793,15.961,16.1096,16.1839,16.2136,16.1505,16.0725,15.9759,15.8199,15.7011,15.6491,15.6491,15.6417,15.6194,15.612,15.5228,15.3594,15.2332,15.1738,15.1663,15.1218,15.0921,15.0475,14.9955,14.9509,14.9138,14.8767,14.8173,14.7356,14.7207,14.7059,14.6984,14.687,14.6795,14.6795,14.6795,14.6795,14.6795,14.6795,14.6795,14.6795,14.6795,14.6795,14.6795,14.6093,14.6093,14.6019,14.635,14.5796,14.4756,14.4608,14.4385,14.3642,14.3271,14.2528,14.2231,14.1767,14.1551,14.1612,14.1066,13.9758,13.9205,13.8979,13.8068,13.7143,13.5177,13.391,13.3474,13.3311,13.6851,13.6926,13.7477,13.8294,13.926,13.9334,13.9928,14.134,14.3939,14.5796,14.6539,14.6795,14.6795,14.6795,14.6795,14.6795,14.6795,14.739,14.7578,14.7801,14.9212,15.0326,15.1218,15.1886,15.3372,15.4486,15.5006,15.56,15.6268,15.6417,15.6491,15.6491,15.6491,15.6491,15.6491,15.6491,15.6491,15.6491,15.6491,15.6491,15.6491,15.6491,15.6491,15.6714,15.7382,15.8199,15.9016,15.9982,16.1096,16.1616,16.1542,16.0873,15.9982,15.9091,15.8199,15.7011,15.6491,15.6417,15.5971,15.56,15.4189,15.352,15.248,15.1143,15.0178,15.0029,14.9509,14.8915,14.8321,14.795,14.7727,14.7653,14.743,14.743,14.6944,14.6944,14.687,14.687,14.6795,14.6795,14.6795,14.6795,14.6795,14.6795,14.6572,14.6647,14.6647,14.6795,14.6795,14.5722,14.483,14.4533,14.431,14.4162,14.3642,14.3122,14.2899,14.2751,14.2602,14.2379,14.1571,13.9937,13.9754,13.9536,13.8767,13.8069,13.7368,13.6842,13.6352,13.5445,13.4551,13.3438,13.2102,13.17,13.1566,13.6851,13.6851,13.6851,13.7477,13.8443,13.8517,13.8889,13.9706,14.1637,14.3865,14.5647,14.6647,14.6795,14.6795,14.6795,14.6795,14.6795,14.6795,14.6795,14.6944,14.7801,14.847,14.9361,15.0549,15.1663,15.3,15.404,15.4857,15.5748,15.6342,15.6417,15.6491,15.6491,15.6491,15.6491,15.6491,15.6491,15.6491,15.6491,15.6491,15.6491,15.6491,15.6491,15.6491,15.7382,15.7828,15.7976,15.8571,15.961,16.0353,16.0502,15.9982,15.9388,15.9091,15.7902,15.612,15.5674,15.5526,15.456,15.3372,15.196,15.1069,15.0104,14.9212,14.8544,14.8321,14.7801,14.7133,14.7207,14.7167,14.6795,14.6795,14.6761,14.6795,14.6795,14.6795,14.6795,14.6795,14.6795,14.6795,14.6795,14.6795,14.6795,14.6795,14.6167,14.6019,14.4682,14.4682,14.4905,14.4013,14.3211,14.2799,14.2286,14.1908,14.1637,14.134,14.1117,14.0376,14.0198,14.0233,13.9282,13.7812,13.7219,13.6646,13.5839,13.5105,13.5387,13.5405,13.4278,13.3266,13.2662,13.172,13.0542,12.9959,12.9671,13.6851,13.6851,13.6851,13.6851,13.7,13.6926,13.7775,13.9037,13.9664,14.1562,14.4533,14.6093,14.6795,14.6795,14.6795,14.6795,14.6795,14.6795,14.6795,14.6795,14.7167,14.7727,14.847,14.9064,14.9955,15.1589,15.2555,15.3372,15.4373,15.5451,15.6268,15.6342,15.6194,15.6194,15.6491,15.6491,15.6491,15.6491,15.6491,15.6491,15.6491,15.6491,15.6491,15.6491,15.6862,15.6937,15.7011,15.7382,15.7976,15.8571,15.8719,15.8348,15.7976,15.7976,15.664,15.4337,15.4114,15.3372,15.1886,15.0104,14.9435,14.9064,14.8321,14.7578,14.7059,14.6944,14.687,14.6944,14.6795,14.6795,14.6795,14.6795,14.6795,14.6795,14.6795,14.6795,14.6795,14.6795,14.6795,14.6795,14.6795,14.6795,14.6721,14.6498,14.5722,14.4351,14.2825,14.2305,14.2454,14.1983,14.1408,14.086,14.0205,13.9616,13.8918,13.9048,13.8786,13.7848,13.7107,13.6505,13.564,13.5493,13.4865,13.3902,13.3552,13.3552,13.3757,13.3814,13.2076,13.0518,13.0242,12.9853,12.8911,12.8112,12.765,13.6851,13.6851,13.6851,13.6851,13.6851,13.6851,13.718,13.7775,13.8814,14.1191,14.431,14.5944,14.6795,14.6795,14.6795,14.6795,14.6795,14.6795,14.6795,14.6795,14.6795,14.7018,14.7281,14.7727,14.8395,14.9584,15.0624,15.2109,15.3704,15.4486,15.5228,15.56,15.5526,15.5748,15.6045,15.6491,15.6491,15.6491,15.6491,15.6491,15.6491,15.6491,15.6491,15.6491,15.6342,15.6342,15.6268,15.612,15.6565,15.6565,15.6268,15.5748,15.5228,15.4486,15.3372,15.2703,15.2332,15.2183,15.1069,14.9361,14.7504,14.7653,14.6944,14.687,14.6795,14.6795,14.6795,14.6795,14.6795,14.6795,14.6795,14.6795,14.6795,14.6795,14.6795,14.6795,14.6795,14.6795,14.6795,14.6647,14.6647,14.6572,14.6424,14.6019,14.4763,14.2657,14.1585,14.1214,14.0633,13.9687,13.9212,13.8512,13.7955,13.7092,13.6145,13.62,13.6132,13.5282,13.4885,13.3844,13.3479,13.3814,13.3552,13.2587,13.2109,13.2155,13.1841,13.1361,12.9821,12.806,12.7545,12.7313,12.6514,12.6443,12.5894,13.6851,13.6851,13.6851,13.6851,13.6851,13.6851,13.6851,13.7032,13.7923,14.0003,14.2379,14.4756,14.6093,14.6613,14.6795,14.6795,14.6795,14.6795,14.6795,14.6795,14.6795,14.6795,14.6795,14.7018,14.7241,14.8098,14.899,15.0549,15.2332,15.2852,15.3817,15.4337,15.4373,15.4819,15.5526,15.6045,15.6342,15.6491,15.6491,15.6491,15.6491,15.6491,15.6491,15.6342,15.612,15.56,15.5451,15.5006,15.4709,15.4337,15.3669,15.3446,15.3149,15.2555,15.1663,15.0846,15.0698,15.0178,14.9212,14.795,14.6795,14.6795,14.6795,14.6795,14.6795,14.6795,14.6795,14.6795,14.6795,14.6795,14.6795,14.6795,14.6795,14.6795,14.6795,14.6795,14.6795,14.6795,14.6721,14.6424,14.635,14.587,14.5573,14.5134,14.2851,14.0899,14.0603,13.998,13.8328,13.714,13.638,13.5689,13.546,13.4685,13.4569,13.3975,13.3374,13.3148,13.299,13.2398,13.193,13.2181,13.1822,13.1422,13.0827,13.0256,12.9691,12.9033,12.8123,12.6867,12.5927,12.5183,12.4917,12.4792,12.3946,13.6851,13.6851,13.6851,13.6851,13.6851,13.6851,13.6851,13.6851,13.6926,13.8072,14.0151,14.2379,14.4682,14.6167,14.6498,14.6795,14.6795,14.6795,14.6795,14.6795,14.6795,14.6795,14.6795,14.6795,14.687,14.7207,14.795,14.8767,14.9509,15.0846,15.1069,15.1589,15.248,15.3481,15.4263,15.5228,15.5897,15.5971,15.6417,15.6417,15.612,15.612,15.5971,15.56,15.4709,15.3966,15.3892,15.2852,15.2258,15.2258,15.1738,15.1441,15.1366,15.0772,14.9955,14.9212,14.899,14.847,14.7875,14.7093,14.6795,14.6795,14.6795,14.6795,14.6795,14.6795,14.6795,14.6795,14.6795,14.6795,14.6795,14.6795,14.6795,14.6795,14.6795,14.6572,14.6093,14.6167,14.5985,14.6019,14.5425,14.4459,14.3939,14.139,13.9065,13.7875,13.7356,13.7283,13.5779,13.4989,13.412,13.3547,13.3239,13.2912,13.2912,13.2659,13.2057,13.173,13.1056,13.0561,13.0171,12.9779,12.9514,12.8979,12.8591,12.8216,12.7645,12.6193,12.5113,12.4949,12.4753,12.4244,12.3962,12.3838,12.2852,13.6851,13.6851,13.6851,13.6851,13.6851,13.6851,13.6851,13.6851,13.6851,13.7775,13.9334,14.03,14.2305,14.4533,14.6019,14.6647,14.6795,14.6795,14.6795,14.6795,14.6795,14.6795,14.6795,14.6795,14.6795,14.6795,14.743,14.795,14.847,14.8618,14.8915,14.9732,15.0549,15.1143,15.2332,15.3743,15.4709,15.4783,15.56,15.56,15.4931,15.4709,15.404,15.3223,15.248,15.2258,15.2183,15.1589,15.1441,15.1143,15.0401,14.9732,14.9584,14.899,14.8098,14.7801,14.7578,14.7241,14.7018,14.6795,14.6795,14.6795,14.6795,14.6795,14.6795,14.6795,14.6795,14.6795,14.6795,14.6795,14.6761,14.6761,14.6579,14.6505,14.643,14.5796,14.5202,14.4655,14.4364,14.3815,14.2895,14.2292,14.0282,13.7724,13.6063,13.4873,13.4338,13.4265,13.3798,13.3181,13.2566,13.2201,13.1637,13.0931,13.0774,13.067,13.0614,13.0143,12.9098,12.8453,12.8155,12.7762,12.7566,12.6805,12.617,12.5763,12.5449,12.3453,12.1725,12.2711,12.3415,12.3133,12.3345,12.3063,12.2781,13.6215,13.6851,13.6851,13.6851,13.6851,13.6851,13.6851,13.6851,13.6851,13.7403,13.822,13.8963,14.03,14.2305,14.4682,14.5944,14.6721,14.6795,14.6795,14.6795,14.6795,14.6795,14.6795,14.6795,14.6795,14.6795,14.6944,14.743,14.7504,14.7281,14.7093,14.8173,14.8767,14.9658,15.0549,15.2183,15.2852,15.3297,15.3817,15.3892,15.3297,15.3,15.2629,15.1738,15.0921,15.0624,15.0326,15.0029,14.9509,14.9361,14.8767,14.8098,14.7801,14.739,14.6795,14.6795,14.6795,14.6795,14.6795,14.6795,14.6795,14.6795,14.6795,14.6795,14.6795,14.6795,14.6795,14.6761,14.6795,14.6795,14.6761,14.6335,14.6074,14.5555,14.4969,14.426,14.3473,14.3074,14.2125,14.1168,14.0136,13.8614,13.6926,13.5195,13.4072,13.3254,13.2948,13.2638,13.2102,13.1637,13.126,13.0812,12.9954,12.9062,12.8822,12.8554,12.8512,12.8019,12.6976,12.6624,12.6231,12.602,12.6005,12.5512,12.4949,12.4049,12.3063,12.2429,12.2359,12.2218,12.2077,12.3274,12.433,12.3908,12.3978,13.5324,13.6586,13.6809,13.6851,13.6851,13.6851,13.6851,13.6851,13.6851,13.6851,13.718,13.8369,13.9111,14.0151,14.2602,14.4608,14.5944,14.6572,14.6795,14.6795,14.6795,14.6795,14.6795,14.6795,14.6795,14.6795,14.6795,14.6795,14.6944,14.6944,14.687,14.7093,14.8098,14.8841,14.899,15.0475,15.1292,15.1366,15.1663,15.196,15.2109,15.196,15.1441,15.0624,14.9584,14.8841,14.8692,14.795,14.7281,14.7167,14.6944,14.687,14.6795,14.6795,14.6795,14.6795,14.6795,14.6795,14.6795,14.6795,14.6795,14.6795,14.6795,14.6795,14.6795,14.6795,14.6653,14.6653,14.6003,14.5674,14.5307,14.4858,14.4234,14.3458,14.2716,14.2018,14.1132,13.9981,13.9306,13.8334,13.6334,13.4843,13.4082,13.3092,13.2276,13.188,13.1495,13.1008,13.0559,13.0279,12.9904,12.9278,12.8442,12.7611,12.7146,12.6654,12.6357,12.5935,12.5371,12.4949,12.4542,12.426,12.433,12.433,12.419,12.3486,12.3486,12.3486,12.3204,12.3274,12.3486,12.433,12.5175,12.5175,12.4964,13.4655,13.5101,13.6363,13.6851,13.6851,13.6851,13.6851,13.6851,13.6851,13.6851,13.6926,13.7255,13.8146,13.926,14.0374,14.2082,14.4756,14.6242,14.6647,14.6721,14.6795,14.6795,14.6795,14.6795,14.6795,14.6795,14.6795,14.6795,14.6795,14.6795,14.6795,14.6944,14.6944,14.7241,14.7578,14.8915,14.9361,15.0029,15.0846,15.2406,15.2926,15.2258,15.0475,14.795,14.7356,14.7247,14.7287,14.691,14.6795,14.6795,14.6795,14.6795,14.6795,14.6795,14.6795,14.6795,14.6795,14.6795,14.6761,14.6619,14.6584,14.6584,14.6761,14.6761,14.6653,14.6332,14.6152,14.534,14.4059,14.2737,14.2673,14.1345,14.0581,14.0193,13.9838,13.9145,13.7998,13.7141,13.6478,13.484,13.264,13.1716,13.154,13.0847,13.1043,13.0739,13.0313,12.9795,12.9512,12.92,12.8296,12.7611,12.7076,12.6231,12.5457,12.5034,12.426,12.4049,12.3838,12.3838,12.3345,12.3063,12.25,12.257,12.2781,12.4049,12.4542,12.4682,12.4049,12.3908,12.4682,12.5246,12.5598,12.5738,12.5527,13.3764,13.4655,13.6215,13.6851,13.6851,13.6851,13.6851,13.6851,13.6851,13.6851,13.6851,13.6851,13.7403,13.8146,13.8889,14.1191,14.3716,14.5276,14.5944,14.6721,14.6795,14.6795,14.6795,14.6795,14.6795,14.6795,14.6795,14.6795,14.6795,14.6795,14.6795,14.6795,14.6795,14.6795,14.7018,14.7578,14.7875,14.8098,14.8692,14.9584,15.0213,15.0624,14.9411,14.7525,14.6675,14.6083,14.6082,14.6371,14.6761,14.6761,14.6761,14.6795,14.6584,14.6335,14.6009,14.5973,14.5973,14.5862,14.5445,14.5824,14.5935,14.5935,14.6009,14.6009,14.5788,14.4861,14.3878,14.3104,14.1484,14.033,14.011,13.9021,13.8076,13.7657,13.693,13.6158,13.5088,13.4406,13.3383,13.1955,13.1043,13.0512,12.9892,12.9892,12.9892,12.954,12.9104,12.8822,12.8611,12.7681,12.6538,12.6161,12.609,12.5105,12.4119,12.3204,12.2218,12.2429,12.257,12.2993,12.2993,12.3838,12.3274,12.1937,12.2852,12.426,12.4612,12.426,12.426,12.4119,12.4471,12.4823,12.5598,12.602,12.5738,13.2575,13.4209,13.5843,13.666,13.6809,13.6851,13.6851,13.6851,13.6851,13.6851,13.6851,13.6851,13.6851,13.7255,13.8443,14.0523,14.2528,14.3716,14.4682,14.5944,14.6093,14.6572,14.6647,14.6795,14.6795,14.6795,14.6795,14.6795,14.6795,14.6795,14.6795,14.6795,14.6795,14.6795,14.6795,14.6795,14.7018,14.7167,14.7241,14.7578,14.8064,14.826,14.7637,14.6642,14.553,14.5089,14.5175,14.575,14.6264,14.6264,14.6264,14.5858,14.4974,14.4227,14.3918,14.3804,14.3804,14.3383,14.2999,14.3586,14.4092,14.4246,14.3952,14.4025,14.357,14.2424,14.1381,14.0636,13.9611,13.853,13.7965,13.6412,13.5738,13.5042,13.4173,13.3466,13.2854,13.2223,13.1326,13.0592,13.0274,12.9892,12.9892,12.9892,12.9892,12.9681,12.9329,12.9047,12.8766,12.7569,12.602,12.5527,12.5175,12.4049,12.3133,12.2077,12.1655,12.2359,12.2922,12.3415,12.3697,12.4612,12.426,12.2711,12.2922,12.3415,12.3486,12.3486,12.3204,12.2711,12.3415,12.419,12.3626,12.2922,12.3345,13.0941,13.2501,13.4135,13.5621,13.6703,13.6851,13.6851,13.6851,13.6851,13.6851,13.6851,13.6851,13.6851,13.6926,13.7329,13.8294,14.0151,14.1488,14.3122,14.4459,14.4608,14.535,14.6242,14.635,14.635,14.6721,14.6572,14.6721,14.6721,14.6795,14.6795,14.6795,14.6795,14.6795,14.6795,14.6795,14.6795,14.6795,14.6795,14.7133,14.8138,14.6971,14.5912,14.4977,14.4247,14.4086,14.413,14.4201,14.436,14.4304,14.4231,14.281,14.1125,14.012,14.0077,14.0224,14.0443,14.0374,14.0227,14.0228,14.037,14.0077,14.0224,14.0224,14.0224,13.9702,13.883,13.8171,13.7304,13.631,13.407,13.3019,13.2093,13.1613,13.1202,13.0859,13.063,13.0426,13.026,12.9892,12.9892,12.9892,12.9892,12.9892,12.9892,12.9822,12.9681,12.947,12.9188,12.8343,12.6724,12.5879,12.4612,12.3415,12.3204,12.25,12.2922,12.3556,12.4119,12.426,12.433,12.419,12.3415,12.257,12.1796,12.132,12.132,12.1514,12.1373,12.1162,12.1233,12.1233,12.074,12.0053,11.9666,13.0124,13.1016,13.3467,13.4952,13.5695,13.6512,13.6851,13.6851,13.6851,13.6851,13.6851,13.6851,13.6851,13.6851,13.6851,13.718,13.8294,13.978,14.1414,14.2676,14.3048,14.3865,14.5053,14.4682,14.4682,14.535,14.5425,14.6019,14.6539,14.6795,14.6721,14.6795,14.6795,14.6795,14.6795,14.6795,14.6795,14.6795,14.6795,14.7059,14.7875,14.7265,14.6478,14.4276,14.3358,14.3146,14.3023,14.2815,14.2577,14.2105,14.0826,13.9161,13.8454,13.8375,13.8375,13.8375,13.8375,13.8189,13.7859,13.8002,13.8302,13.8447,13.8375,13.8375,13.8256,13.7015,13.6166,13.5343,13.4511,13.3534,13.1725,13.0709,13.0457,13.0274,13.0106,13.0049,13.0049,12.9936,12.9892,12.9892,12.9892,12.9892,12.9892,12.9892,12.9822,12.9188,12.9118,12.8062,12.785,12.6935,12.5809,12.5175,12.3908,12.3415,12.3345,12.3415,12.3697,12.3767,12.3978,12.3767,12.2781,12.2218,12.2007,12.1655,12.081,12.0124,11.8716,11.9209,11.9261,11.8593,11.8119,11.8083,11.7732,11.709,11.6592,12.9307,12.9827,13.2427,13.3838,13.4655,13.5843,13.6512,13.6851,13.6851,13.6851,13.6851,13.6851,13.6851,13.6851,13.6851,13.6851,13.7255,13.822,13.9483,14.082,14.1117,14.2157,14.2602,14.2008,14.2305,14.3419,14.3716,14.4608,14.5796,14.6019,14.6316,14.6647,14.6795,14.6795,14.6795,14.6795,14.6795,14.6795,14.6795,14.6693,14.6851,14.7082,14.6119,14.3736,14.2608,14.203,14.1606,14.0875,14.0283,13.9256,13.7196,13.5701,13.59,13.6049,13.6026,13.6026,13.6121,13.5915,13.5493,13.5721,13.6265,13.6026,13.5954,13.6337,13.6144,13.4452,13.3447,13.2786,13.177,13.1181,13.0416,13.0162,13.0106,12.9936,12.9879,12.9892,12.9892,12.9892,12.9892,12.9892,12.9822,12.9681,12.9399,12.9188,12.8906,12.8625,12.771,12.6583,12.5668,12.4753,12.426,12.4119,12.3486,12.3838,12.3697,12.3274,12.3133,12.2781,12.257,12.2218,11.9613,11.8487,11.7783,11.8065,11.8927,11.7783,11.5882,11.6042,11.6398,11.5662,11.5048,11.5187,11.4995,11.4175,11.3583,12.8268,12.9679,13.005,13.1833,13.4209,13.4655,13.5546,13.666,13.6777,13.6851,13.6851,13.6851,13.6851,13.6851,13.6851,13.6851,13.6851,13.7255,13.7477,13.8072,13.8963,13.9706,14.0151,13.9706,14.0597,14.1859,14.2157,14.3048,14.4162,14.4533,14.5202,14.6167,14.6539,14.6721,14.6795,14.6795,14.6795,14.6795,14.6795,14.6371,14.5747,14.5008,14.4159,14.2542,14.1502,14.0379,13.9144,13.7712,13.6366,13.4921,13.3086,13.2534,13.2372,13.2333,13.2404,13.2599,13.2794,13.2742,13.232,13.271,13.2527,13.2742,13.267,13.221,13.2495,13.2234,13.1594,13.1268,13.0568,13.0274,12.9993,12.9879,12.9879,12.9822,12.9751,12.9822,12.9892,12.9892,12.9892,12.9892,12.9751,12.9118,12.8343,12.7639,12.7358,12.7006,12.6372,12.5457,12.4753,12.4049,12.3626,12.2852,12.2922,12.3767,12.3274,12.2641,12.1725,12.1021,12.0458,11.9473,11.6868,11.5812,11.4474,11.4021,11.5695,11.5344,11.3818,11.3313,11.3,11.2811,11.2998,11.2844,11.247,11.2161,11.1791,12.7525,12.8268,12.9307,13.0422,13.1833,13.3764,13.4878,13.5546,13.6438,13.6851,13.6851,13.6851,13.6851,13.6851,13.6851,13.6851,13.6851,13.6851,13.6851,13.7032,13.7626,13.7923,13.7923,13.7923,13.8814,14.0225,14.0448,14.134,14.2602,14.2899,14.3791,14.5053,14.535,14.5796,14.6464,14.6795,14.6795,14.6687,14.6761,14.6264,14.522,14.3971,14.2638,14.109,13.9673,13.8497,13.7264,13.5783,13.4213,13.2857,13.2001,13.1573,13.1573,13.1573,13.1573,13.1573,13.1573,13.1573,13.1573,13.1573,13.1521,13.1416,13.1363,13.1257,13.1026,13.0918,13.0701,13.0426,13.0315,13.0106,12.9879,12.9892,12.9892,12.9751,12.9047,12.8484,12.8484,12.778,12.7217,12.7146,12.7146,12.6794,12.6302,12.6161,12.5809,12.5316,12.4823,12.433,12.3838,12.3767,12.3133,12.0951,12.0247,12.0036,11.9543,11.898,11.8205,11.7994,11.7501,11.6868,11.553,11.5108,11.4412,11.4295,11.3752,11.3457,11.3433,11.3192,11.2389,11.1877,11.13,11.114,11.1119,11.0837,11.0557,12.7154,12.7228,12.8491,12.9233,12.9976,13.213,13.3392,13.4061,13.5546,13.6141,13.6363,13.666,13.6851,13.6851,13.6851,13.6851,13.6851,13.6851,13.6851,13.6851,13.6851,13.6851,13.6851,13.6926,13.7552,13.8517,13.874,13.9557,14.1117,14.1265,14.2082,14.3568,14.3642,14.4169,14.5036,14.5336,14.552,14.5184,14.5446,14.4974,14.3544,14.2207,14.0929,13.9154,13.7916,13.6789,13.5605,13.457,13.3214,13.1716,13.1573,13.1573,13.1573,13.1573,13.1573,13.1573,13.1573,13.1573,13.1521,13.1468,13.1363,13.1097,13.1043,13.0935,13.0646,13.0592,13.0426,13.026,13.0162,13.0049,12.9949,12.9892,12.9892,12.9681,12.7991,12.6865,12.6724,12.5879,12.5175,12.5175,12.5316,12.5105,12.4753,12.4542,12.433,12.3767,12.3204,12.257,12.1444,12.1021,12.0036,11.8205,11.7642,11.6868,11.6093,11.56,11.5198,11.5198,11.4936,11.4392,11.3734,11.3542,11.3842,11.4291,11.3047,11.2874,11.2938,11.2523,11.2658,11.2162,11.1642,11.1024,11.0635,10.9909,10.9699,12.7154,12.7154,12.7302,12.8268,12.953,13.005,13.0941,13.2278,13.3912,13.4581,13.4952,13.5992,13.6703,13.6777,13.6809,13.6851,13.6851,13.6851,13.6851,13.6851,13.6851,13.6851,13.6851,13.6851,13.7032,13.7255,13.718,13.7997,13.9408,13.9557,14.0374,14.1785,14.1942,14.1779,14.1797,14.2492,14.2492,14.172,14.2492,14.1839,13.9803,13.9278,13.8309,13.6657,13.6212,13.5444,13.4285,13.3856,13.3072,13.1787,13.1573,13.1573,13.1573,13.1573,13.1573,13.1573,13.1573,13.1468,13.131,13.1257,13.1097,13.0756,13.0701,13.0646,13.0466,13.0103,12.9921,12.9936,12.964,12.954,12.954,12.947,12.947,12.9399,12.7146,12.5598,12.5316,12.5105,12.4612,12.4753,12.4964,12.4542,12.2852,12.2695,12.2007,12.1021,11.9754,11.9473,11.8769,11.8487,11.6727,11.6375,11.6516,11.5671,11.4615,11.4122,11.3529,11.3428,11.3084,11.2182,11.1238,11.134,11.1542,11.2058,11.2067,11.2228,11.2052,11.1145,11.0861,11.0756,11.0841,11.1153,11.0659,10.9701,10.9316,12.7154,12.7154,12.7154,12.7525,12.8119,12.9233,12.9976,13.0719,13.2204,13.2947,13.3244,13.4655,13.5398,13.5621,13.6438,13.6851,13.6851,13.6851,13.6851,13.6851,13.6851,13.6851,13.6851,13.6851,13.6851,13.6851,13.6851,13.718,13.7775,13.7849,13.8666,13.9905,13.9715,13.9766,14.0576,14.0583,14.0371,13.9858,14.0183,13.976,13.8302,13.7174,13.6028,13.4907,13.3856,13.3072,13.2572,13.2429,13.2215,13.1768,13.1573,13.1573,13.1573,13.1573,13.1573,13.1573,13.1573,13.1521,13.1416,13.1115,13.1043,13.0701,13.0482,13.0315,12.995,12.9048,12.8583,12.8301,12.7625,12.6865,12.6935,12.6935,12.6935,12.6865,12.5668,12.4823,12.3697,12.2922,12.2359,12.2218,12.1514,12.0669,11.9825,11.9261,11.8135,11.7783,11.7079,11.6938,11.7783,11.7501,11.6868,11.6234,11.56,11.4474,11.3348,11.2664,11.2002,11.1599,11.1257,11.0132,10.9419,10.9526,11.0043,11.0599,11.0732,11.0861,11.0529,10.97,10.8981,10.8442,10.822,10.8515,10.8551,10.8143,10.8319,12.7154,12.7154,12.7154,12.7154,12.7302,12.8342,12.8862,12.9085,13.057,13.1239,13.1536,13.3021,13.369,13.3987,13.4804,13.5621,13.6066,13.5546,13.5324,13.5398,13.5843,13.6066,13.6215,13.666,13.6851,13.6851,13.6851,13.6851,13.6851,13.6851,13.72,13.7932,13.7589,13.7658,13.7944,13.8097,13.7673,13.7382,13.7746,13.7358,13.6197,13.509,13.4124,13.3229,13.2144,13.1573,13.1573,13.1573,13.1573,13.1573,13.1573,13.1573,13.1573,13.1573,13.1573,13.1502,13.1093,13.0755,13.0527,12.9835,12.9141,12.894,12.872,12.8568,12.8259,12.7358,12.6865,12.6654,12.5879,12.5175,12.5175,12.5175,12.4753,12.3838,12.3697,12.3133,12.2218,12.1303,12.0335,11.9772,11.8909,11.7994,11.7431,11.6868,11.6234,11.6093,11.553,11.5389,11.6234,11.5812,11.553,11.4756,11.4404,11.3348,11.2573,11.182,11.0765,10.9823,10.9199,10.8297,10.8114,10.8165,10.8925,10.943,10.9264,10.9096,10.8716,10.8243,10.7627,10.6991,10.6719,10.6365,10.6071,10.6249,10.6635,12.7154,12.7154,12.7154,12.7154,12.7154,12.7302,12.7228,12.7599,12.901,12.9679,12.9827,13.1313,13.1981,13.2056,13.2427,13.3021,13.3912,13.2873,13.2353,13.265,13.3838,13.4507,13.4581,13.5769,13.6363,13.666,13.6809,13.6809,13.6851,13.6787,13.6417,13.5931,13.5858,13.5071,13.3233,13.4751,13.4609,13.4006,13.4681,13.4633,13.3237,13.3142,13.2658,13.1872,13.1645,13.1573,13.1573,13.1573,13.1573,13.1573,13.1573,13.1573,13.1483,13.1216,13.1359,13.095,12.9743,12.8822,12.8272,12.6942,12.6106,12.5888,12.5512,12.5723,12.5809,12.5386,12.5175,12.5175,12.4894,12.4894,12.4753,12.4401,12.3274,12.1162,12.0546,12.0475,12.0335,12.0335,11.9842,11.8557,11.7853,11.7431,11.6375,11.546,11.5178,11.5037,11.4333,11.37,11.4122,11.3488,11.1869,11.1609,11.2142,11.2273,11.1721,11.0968,10.9391,10.7966,10.7376,10.6739,10.6526,10.6159,10.6834,10.6722,10.6532,10.6533,10.6187,10.5907,10.5535,10.5388,10.5634,10.5355,10.5026,10.4768,10.5154,12.7154,12.7154,12.7154,12.7154,12.7154,12.7154,12.7154,12.7228,12.7674,12.7971,12.8268,12.9679,13.0422,13.057,13.1536,13.1833,13.1164,13.0644,13.0941,13.1981,13.2501,13.2798,13.2873,13.3318,13.4135,13.5101,13.5249,13.5843,13.6671,13.6315,13.5891,13.5526,13.4385,13.3474,13.302,13.2798,13.264,13.2282,13.2568,13.264,13.2138,13.2067,13.1863,13.1677,13.1573,13.1573,13.1573,13.1573,13.1573,13.1573,13.1573,13.1145,13.0003,12.885,12.8054,12.7703,12.7172,12.6835,12.6606,12.6039,12.5541,12.5433,12.534,12.5175,12.5105,12.419,12.3697,12.3345,12.2781,12.2007,12.1655,12.0177,11.8487,11.7713,11.7361,11.7361,11.7361,11.7431,11.722,11.6727,11.5882,11.5037,11.4263,11.3348,11.2925,11.2714,11.2362,11.2503,11.3207,11.2996,11.2685,11.2332,11.2019,11.1376,11.0264,10.9231,10.7728,10.6684,10.5984,10.5241,10.4675,10.4224,10.403,10.3626,10.3549,10.3607,10.3596,10.3379,10.3234,10.31,10.3158,10.3158,10.3158,10.3158,10.2965,12.7154,12.7154,12.7154,12.7154,12.7154,12.7154,12.7154,12.7154,12.7154,12.7154,12.7302,12.8268,12.8713,12.8788,12.9827,12.9679,12.8788,12.8788,12.9233,13.0199,13.0867,13.1164,13.1239,13.1758,13.2483,13.3149,13.3191,13.3503,13.4116,13.4384,13.4185,13.3705,13.3184,13.2758,13.2443,13.1863,13.1573,13.1625,13.1573,13.1573,13.1625,13.1573,13.1573,13.1573,13.1573,13.1573,13.1573,13.095,13.0665,13.0788,13.0042,12.933,12.8383,12.718,12.6353,12.6002,12.5348,12.4941,12.4889,12.4252,12.3756,12.3756,12.3594,12.3415,12.3345,12.2641,12.2007,12.1796,12.0599,11.9349,11.8646,11.7149,11.5882,11.5882,11.5882,11.6023,11.5882,11.5882,11.5882,11.5671,11.4474,11.3277,11.2784,11.1799,11.1165,11.1165,11.1038,11.136,11.2133,11.2191,11.1796,11.1624,11.1589,11.0923,10.8786,10.7337,10.6147,10.5166,10.441,10.357,10.324,10.2838,10.2575,10.2426,10.1638,10.157,10.1444,10.1166,10.0393,10.0325,10.0325,10.026,10.0325,10.0325,10.0325,12.7154,12.7154,12.7154,12.7154,12.7154,12.7154,12.7154,12.7154,12.7154,12.7154,12.7154,12.7228,12.7154,12.7228,12.7376,12.7154,12.7154,12.7228,12.7376,12.7599,12.8862,12.953,12.9679,13.0985,13.1339,13.0803,13.0772,13.0448,12.9944,13.1058,13.1357,13.0657,13.1745,13.2083,13.1332,13.1268,13.143,13.1359,13.1483,13.1573,13.1573,13.1359,13.1197,13.1074,13.1288,13.1145,13.1074,12.9724,12.8889,12.9147,12.7607,12.6701,12.6763,12.6488,12.6017,12.5453,12.3934,12.298,12.2574,12.1181,12.0317,12.0317,12.0317,12.0264,12.0264,12.0177,12.0053,12.0194,11.8698,11.7238,11.6164,11.546,11.5248,11.5319,11.546,11.5389,11.553,11.5178,11.56,11.5248,11.4052,11.2784,11.1447,11.1165,11.1165,11.1018,11.0669,11.0504,11.0593,11.0108,10.9914,10.9861,10.9524,10.8786,10.6589,10.5174,10.3896,10.3175,10.2776,10.176,10.1746,10.1613,10.1553,10.1231,10.026,9.9617,9.9427,9.8908,9.8329,9.8135,9.8264,9.82,9.8651,9.7942,9.7803,12.7154,12.7154,12.7154,12.7154,12.7154,12.7154,12.7154,12.7154,12.7154,12.7154,12.7154,12.7154,12.7154,12.7154,12.7154,12.7154,12.7154,12.7154,12.7154,12.7154,12.7599,12.7822,12.7762,12.773,12.8107,12.875,12.8389,12.8593,12.9419,12.9453,12.9192,12.8904,12.8704,12.8451,12.8291,12.9433,12.9932,13.0003,13.1074,13.1573,13.1216,12.9361,12.822,12.822,12.8066,12.8015,12.822,12.7536,12.7219,12.7251,12.6792,12.5907,12.4667,12.4267,12.3562,12.2255,12.0581,11.9084,11.7886,11.7412,11.7149,11.7149,11.7149,11.7149,11.7149,11.7149,11.7149,11.7009,11.5741,11.4756,11.4052,11.3136,11.2503,11.2503,11.2432,11.2432,11.2573,11.2503,11.2573,11.2432,11.2292,11.1588,11.1306,11.1165,11.1018,11.0719,11.0466,11.0332,10.9916,10.9652,10.9385,10.8937,10.8204,10.6802,10.454,10.3242,10.2974,10.2302,10.1121,10.0329,10.0329,9.9295,9.8779,9.9552,9.8715,9.8135,9.8007,9.8007,9.762,9.762,9.762,9.762,9.7234,9.7425,9.7091,12.7154,12.7154,12.7154,12.7154,12.7154,12.7154,12.7154,12.7154,12.7154,12.7154,12.7154,12.7154,12.7154,12.7154,12.7154,12.7154,12.7154,12.7154,12.7154,12.7154,12.7154,12.693,12.6609,12.6115,12.6039,12.6287,12.5814,12.5912,12.6324,12.5961,12.6115,12.6668,12.6927,12.7007,12.7007,12.7863,12.8291,12.8291,12.9219,12.9718,12.9504,12.7761,12.6783,12.6885,12.6783,12.6732,12.6661,12.5816,12.5022,12.4383,12.3641,12.2526,12.0864,12.0468,11.9941,11.9041,11.7868,11.6746,11.5952,11.5882,11.5882,11.5882,11.5882,11.5882,11.5882,11.5882,11.5248,11.4122,11.3136,11.2573,11.2503,11.1728,11.1165,11.1165,11.1165,11.1236,11.1165,11.1165,11.1165,11.1165,11.1165,11.1165,11.1165,11.1165,11.0918,11.0536,10.9899,10.953,10.9208,10.8662,10.8159,10.751,10.5433,10.3318,10.1925,10.1277,10.0681,10.0078,9.9359,9.8844,9.8779,9.8007,9.762,9.7685,9.717,9.6783,9.6719,9.6397,9.5817,9.5753,9.5817,9.5882,9.5752,9.5293,9.3439,12.6857,12.6931,12.7005,12.7154,12.7154,12.7154,12.7154,12.7154,12.7154,12.7154,12.7154,12.7154,12.7124,12.699,12.696,12.69,12.6839,12.69,12.6869,12.6869,12.69,12.6515,12.5843,12.5739,12.4898,12.3675,12.3444,12.3096,12.2562,12.2274,12.294,12.4367,12.5794,12.6364,12.6436,12.6579,12.6721,12.6721,12.6579,12.6457,12.6406,12.6203,12.6203,12.6406,12.6264,12.6091,12.5532,12.3945,12.2282,12.0864,11.9265,11.7871,11.6796,11.6386,11.6286,11.6236,11.5894,11.5671,11.56,11.546,11.5319,11.546,11.5248,11.5248,11.5319,11.5319,11.4192,11.208,11.1306,11.1306,11.1165,11.1165,11.1165,11.1165,11.1165,11.1165,11.1165,11.1165,11.1165,11.1165,11.1165,11.1165,11.1067,11.1018,11.0819,11.0332,10.9316,10.8371,10.7978,10.6852,10.5877,10.4789,10.2091,9.9507,9.9123,9.8214,9.8142,9.7814,9.7556,9.7427,9.7298,9.7234,9.717,9.6268,9.5946,9.5302,9.498,9.4336,9.3564,9.395,9.3308,9.2858,9.273,9.169,8.9285,12.5326,12.5445,12.6634,12.7154,12.7154,12.7154,12.7154,12.7154,12.7154,12.7154,12.7154,12.7154,12.6808,12.6288,12.6255,12.5878,12.5271,12.5198,12.5235,12.5198,12.5125,12.5124,12.4898,12.4269,12.3845,12.3415,12.2722,12.2276,12.2083,12.2083,12.2297,12.2654,12.3011,12.3176,12.3225,12.4438,12.508,12.5009,12.3867,12.2907,12.2627,12.2657,12.2779,12.2435,12.1218,12.053,12.061,11.8871,11.778,11.7426,11.6972,11.6519,11.6085,11.5913,11.5984,11.5843,11.4685,11.4052,11.3981,11.2925,11.2221,11.2221,11.2221,11.2292,11.2221,11.2221,11.1869,11.1306,11.1165,11.1165,11.1165,11.1165,11.1165,11.1165,11.1165,11.1165,11.1165,11.1165,11.1165,11.1165,11.1165,11.1018,11.0669,11.0568,11.0243,10.955,10.8427,10.6987,10.5776,10.4416,10.2733,10.1058,9.919,9.7955,9.7887,9.7624,9.7427,9.762,9.6653,9.6075,9.5817,9.498,9.4401,9.4336,9.4014,9.3757,9.3757,9.3371,9.3114,9.2794,9.1318,8.9904,8.9835,8.851,8.6242,12.3663,12.3811,12.5371,12.604,12.6114,12.6857,12.7154,12.7124,12.6777,12.6578,12.6578,12.6652,12.6115,12.5344,12.5344,12.5087,12.4594,12.4594,12.4594,12.4594,12.4594,12.4397,12.4065,12.3675,12.3195,12.2814,12.2324,12.2083,12.2083,12.2083,12.2083,12.2083,12.2083,12.1986,12.196,12.2814,12.3192,12.3092,12.2018,12.1086,12.0297,12.0276,11.9922,11.9163,11.8233,11.7688,11.7738,11.6739,11.5862,11.5007,11.5007,11.4625,11.377,11.37,11.37,11.37,11.2925,11.2432,11.2432,11.1658,11.1165,11.1165,11.1165,11.1165,11.1165,11.1165,11.1165,11.1165,11.1165,11.1165,11.1165,11.1165,11.1165,11.1165,11.1165,11.1165,11.1165,11.1165,11.1067,11.0799,11.0187,10.9567,10.9061,10.8452,10.7726,10.6583,10.5801,10.4537,10.3042,10.086,9.8857,9.763,9.6401,9.5689,9.5624,9.5624,9.5624,9.5624,9.498,9.4594,9.4401,9.4014,9.3113,9.2533,9.234,9.2082,9.1374,9.1257,9.1192,9.0869,8.9368,8.8548,8.8082,8.739,8.5542,12.1955,12.2,12.3737,12.4509,12.4554,12.5729,12.6441,12.6529,12.5524,12.522,12.5479,12.5406,12.5051,12.4397,12.4397,12.4357,12.4237,12.4237,12.4237,12.4237,12.4237,12.3899,12.3239,12.3239,12.286,12.2083,12.2083,12.2083,12.2083,12.2083,12.2083,12.2083,12.2083,12.1937,12.174,12.1691,12.1328,12.0499,12.0397,11.9709,11.8567,11.8366,11.7659,11.6584,11.63,11.606,11.5862,11.565,11.4795,11.3277,11.3207,11.2573,11.1306,11.1024,11.0813,11.0884,11.0672,11.0532,11.0532,11.0532,11.0532,11.0602,11.0743,11.0743,11.0602,11.0532,11.0532,11.0532,11.0391,11.0532,11.0532,11.0461,11.032,11.0461,11.0532,11.0532,11.0391,11.0391,11.0125,10.9627,10.8597,10.7558,10.6721,10.5664,10.4449,10.2981,10.2586,10.1845,10.0292,9.7362,9.5367,9.498,9.4079,9.3306,9.3242,9.3048,9.3113,9.2984,9.3048,9.3113,9.337,9.337,9.2984,9.1761,9.1635,9.0996,8.972,8.9026,8.8999,8.8453,8.7529,8.696,8.6613,8.5867,8.44,12.0172,12.0321,12.2029,12.2772,12.264,12.2309,12.2868,12.3983,12.1933,0.0,0.0,12.2961,12.3191,12.3603,12.3675,12.3239,12.2536,12.2536,12.2536,12.2536,12.2536,12.2442,12.2324,12.2324,12.2228,12.2083,12.2083,12.2083,12.2083,12.2083,12.2083,12.2083,12.2083,12.2035,12.1986,12.179,12.0063,11.7002,11.7214,11.7072,11.6387,11.6539,11.6448,11.6035,11.4766,11.4011,11.4011,11.2813,11.1918,11.1588,11.1588,11.1447,11.1165,10.9968,10.9194,10.9194,10.8138,10.7504,10.7504,10.7504,10.7504,10.7504,10.856,10.8771,10.7575,10.7504,10.7504,10.7504,10.7504,10.7504,10.7504,10.7504,10.7504,10.7504,10.7504,10.7575,10.7504,10.7575,10.7406,10.6807,10.6471,10.5692,10.3858,10.3244,10.2622,10.1244,10.0148,9.9618,9.8976,9.6072,9.3821,9.3821,9.3628,9.292,9.1954,9.1696,9.1567,9.1761,9.1696,9.1954,9.292,9.3306,9.3177,9.26,9.2345,9.1315,9.0336,8.9273,8.8954,8.7853,8.5602,8.3691,8.3425,8.1533,7.9619,11.7932,11.8154,11.9708,12.0189,0.0,12.0346,12.0253,11.9739,11.8594,11.902,12.0506,12.0506,12.0407,12.0399,12.0399,12.0125,11.9729,11.9729,12.0157,12.087,12.087,12.137,12.2083,12.2083,12.2083,12.2035,12.1937,12.1888,12.1839,12.174,12.1712,12.1641,12.1641,12.1662,12.1491,12.056,11.9124,11.7079,11.7265,11.6488,11.4756,11.4836,11.4413,11.3488,11.2714,0.0,0.0,0.0,0.0,0.0,0.0,0.0,0.0,0.0,0.0,10.7715,10.6378,10.5533,10.5533,10.5533,10.5533,10.5603,10.6941,10.6167,10.2294,10.4195,10.5885,10.6659,10.673,10.673,10.673,10.673,10.673,10.673,10.673,10.673,10.6683,10.6493,10.594,10.4933,10.3849,10.2512,10.0805,9.9914,9.8859,9.7803,9.7134,9.6701,9.607,9.4463,9.3306,9.3306,9.3306,9.2984,9.2404,9.2276,9.2276,9.2276,9.2276,9.2533,9.3177,9.2536,9.1502,9.0802,8.9627,8.8244,8.6999,8.5915,8.4999,8.4078,8.2276,8.062,7.9571,7.8175,7.7193,11.5291,11.57,11.6983,11.7311,11.7185,11.7509,11.6533,11.4719,11.4761,11.5595,11.6707,11.7067,11.6925,11.6518,11.6589,11.6518,11.6518,11.6803,11.766,11.8872,11.9111,11.9895,12.1059,12.1082,12.1082,12.1082,12.0816,12.0717,12.0788,12.0539,12.0439,12.0439,12.0722,12.0762,12.0416,0.0,0.0,0.0,11.6169,11.4908,11.2528,11.2663,11.2133,11.0939,11.1067,0.0,11.0743,11.0743,11.0602,11.032,10.9123,0.0,0.0,0.0,0.0,0.0,0.0,0.0,0.0,0.0,0.0,0.0,10.3002,10.1646,9.6869,9.996,10.2888,10.4221,10.4784,10.4923,10.4667,10.4877,10.497,10.497,10.476,10.462,10.4573,10.3977,10.3117,10.1667,10.0054,9.8433,9.6944,9.5797,9.4784,9.4216,9.4034,9.36,9.2659,9.2467,9.2469,9.2469,9.2276,9.234,9.2147,9.1889,9.1567,9.2082,9.202,9.1831,9.1641,9.0474,8.9038,8.7701,8.6042,8.4437,8.2752,8.146,8.0517,7.9572,7.8601,7.7401,7.6139,7.5839,7.6046,11.1955,11.3198,11.3417,11.4225,11.5069,11.122,10.944,10.9169,10.9169,10.9241,10.9527,11.0842,11.2156,11.3307,11.3307,11.3307,11.345,11.476,11.5473,11.5758,11.6855,11.7471,11.7685,11.7373,11.7324,11.7347,11.7276,11.7276,11.7227,11.7298,11.7178,11.732,11.8596,11.9254,11.8992,11.4492,11.1425,11.0039,10.9024,10.8501,10.8409,10.9416,10.9881,10.9672,11.0669,11.0532,10.9194,10.9123,10.856,10.7363,10.7082,10.6378,10.504,10.3491,10.145,0.0,9.7155,0.0,0.0,0.0,0.0,0.0,0.0,0.0,0.0,9.3846,9.5217,9.5804,9.7486,9.8186,9.7348,9.8053,9.8607,9.8563,9.7759,9.7139,9.6905,9.602,9.5,9.3995,9.37,9.304,9.1791,9.1239,9.1346,9.1675,9.162,9.117,8.9958,8.9764,8.9764,8.9571,8.9571,8.9507,8.8476,8.7961,8.7966,8.7777,8.7484,8.6992,8.7439,8.672,8.5735,8.4613,8.3651,8.2322,8.004,7.9,7.7716,7.5896,7.5076,7.4558,7.4299,7.4113,7.41,11.0155,11.0808,11.0808,11.0981,11.1052,10.8981,10.8141,10.8141,10.8141,10.8141,10.8141,10.8812,10.9454,11.0096,11.0211,11.0168,11.0239,11.1809,11.2477,11.2549,11.3955,11.5121,11.5904,11.5811,11.6167,11.6853,11.5857,11.5711,11.6273,11.5417,11.5318,11.6166,11.6872,11.5677,11.2753,11.1249,11.0186,10.9493,10.8124,10.6737,10.528,10.5707,10.5978,10.5978,10.6511,10.6495,10.5802,10.5733,10.5109,10.3653,10.3315,10.2069,9.981,9.8248,9.6607,0.0,0.0,0.0,0.0,0.0,0.0,0.0,0.0,0.0,0.0,0.0,9.0006,9.0529,9.2172,9.3347,9.3331,9.3897,9.4477,9.5096,9.4733,9.444,9.4293,9.364,9.2743,9.1899,9.1581,9.0908,8.9825,8.9588,8.9732,8.9951,8.9249,8.8798,8.8927,8.8992,8.8992,8.8992,8.8992,8.8734,8.8219,8.7295,8.6555,8.6179,8.5353,8.4831,8.4927,8.3838,8.2732,8.217,8.1027,7.9744,7.8708,7.7617,7.675,7.5196,7.2623,7.0356,7.0002,6.9955,6.9746,10.805,10.8339,10.7657,10.6974,10.6428,10.6814,10.6957,10.6957,10.6957,10.6957,10.6957,10.6957,10.6957,10.6914,10.6829,10.6786,10.69,10.8424,10.9181,10.9296,11.0704,11.2012,11.3197,11.3131,11.3561,11.4438,11.3184,11.2992,11.3906,11.2531,11.2353,11.3135,11.23,10.9742,10.5733,10.7044,10.7659,10.7249,10.6499,10.5091,10.2857,10.2845,10.2777,10.2777,10.3052,10.308,10.2615,10.2328,10.1507,10.0004,9.894,9.7174,9.4523,9.2746,0.0,0.0,0.0,0.0,0.0,0.0,0.0,0.0,0.0,8.0722,8.1429,0.0,8.4884,0.0,8.779,8.8919,8.9472,8.9786,0.0,0.0,9.0946,9.0793,9.081,9.0255,8.9643,8.9149,8.8773,8.8335,8.8081,8.8026,8.7768,8.706,8.6351,8.6223,8.7317,8.7768,8.8026,8.7897,8.7335,8.7151,8.6774,8.5483,8.3722,8.3326,8.2289,8.1556,8.1354,7.9906,7.8695,7.8337,7.7159,7.6214,7.5688,7.5049,7.4485,7.4485,7.0819,6.7176,6.6972,6.6698,6.6274,10.4726,10.5798,10.2869,10.1686,10.1748,10.3175,10.3705,10.3776,10.3776,10.3817,10.3817,10.3817,10.3622,10.3412,10.3129,0.0,10.3114,10.4674,10.5444,10.5831,10.688,10.7568,10.7891,10.755,10.7458,10.7528,10.7411,10.7411,10.7504,10.7293,10.6744,10.5761,10.2125,9.9992,9.9525,10.0907,10.0854,9.9503,10.1054,10.1688,10.1487,10.1537,10.1662,10.1595,10.2678,10.2479,10.1112,9.9814,9.8379,9.6808,9.4224,9.1994,9.0303,0.0,0.0,0.0,0.0,0.0,0.0,0.0,0.0,0.0,0.0,0.0,0.0,0.0,0.0,8.2406,8.4057,0.0,8.4109,8.467,0.0,0.0,0.0,8.3746,8.3444,8.2593,8.2322,8.3229,0.0,0.0,8.4877,8.507,8.4105,8.1522,8.2174,8.2946,8.3075,8.4298,8.507,8.5012,8.3099,8.1566,8.1756,7.9491,7.7585,7.7088,7.6035,7.5442,7.4588,7.3657,7.272,7.1996,7.1352,7.0986,6.9813,6.987,6.9757,7.093,6.9446,6.8195,6.7855,6.6795,6.5331,9.9072,9.6729,9.5293,9.4716,9.4829,9.5589,9.6212,9.6699,9.6893,9.7167,9.7486,9.7557,9.7096,9.6296,9.6212,0.0,0.0,0.0,9.8027,9.8763,10.0068,10.2051,10.4418,10.4313,10.5124,10.6752,10.4988,10.3822,10.3025,10.1208,9.8501,9.488,0.0,0.0,9.2839,9.5058,9.587,9.5413,9.7683,9.8911,9.8911,9.8905,9.9031,9.8965,9.8635,9.7732,9.6204,9.479,9.2919,9.0699,8.9982,8.8173,0.0,0.0,0.0,0.0,0.0,0.0,0.0,0.0,0.0,0.0,0.0,7.3495,7.4335,0.0,0.0,0.0,7.702,7.779,7.9018,7.9552,0.0,0.0,0.0,0.0,0.0,0.0,0.0,8.1264,8.1338,8.1531,8.2046,8.2166,8.1724,8.0565,8.1007,8.1162,8.089,0.0,8.1551,8.12,7.9762,7.8735,7.8735,7.6911,7.5182,7.4423,7.3128,7.2115,7.1643,7.1428,7.1143,7.0673,7.0535,7.0422,6.9914,6.8616,6.7826,6.8154,6.7126,6.5827,6.4913,6.3573,6.1968,9.2922,0.0,0.0,0.0,0.0,9.0579,9.1229,9.1857,9.2053,9.2345,9.2822,9.2822,0.0,0.0,0.0,0.0,0.0,0.0,9.2629,9.3606,9.4392,9.6423,9.95,9.9126,10.0101,10.1954,9.992,9.8461,9.7456,9.3784,9.0085,8.6568,0.0,0.0,0.0,0.0,9.1667,9.2588,9.4889,9.6533,9.7388,9.7388,9.6994,9.6205,9.4758,9.3377,9.1872,9.0484,8.8577,8.6198,8.5884,0.0,0.0,0.0,0.0,0.0,0.0,0.0,0.0,0.0,0.0,0.0,0.0,0.0,0.0,0.0,0.0,0.0,0.0,0.0,7.552,7.632,7.7159,0.0,0.0,0.0,0.0,0.0,0.0,0.0,0.0,0.0,7.8602,7.8794,7.8942,0.0,0.0,7.8965,7.823,7.8373,7.845,7.7979,7.6717,0.0,7.5747,7.4027,7.2453,7.1741,7.0477,6.9519,6.9519,6.9519,6.9519,6.9519,6.9519,6.9519,6.9338,6.7661,6.615,6.5516,6.407,6.2391,6.0962,5.9518,5.8303,0.0,0.0,0.0,0.0,0.0,0.0,0.0,0.0,9.0514,9.049,0.0,9.0534,0.0,0.0,0.0,0.0,8.9939,8.9892,0.0,0.0,9.0632,9.0861,9.2003,9.1068,9.0512,9.0581,9.0697,9.0444,9.0029,8.4772,0.0,0.0,0.0,0.0,0.0,0.0,8.8303,9.0878,9.2522,9.4626,9.7257,9.7388,9.6139,9.3508,9.193,9.0484,8.9037,8.7579,8.6078,8.4446,8.1855,0.0,0.0,0.0,0.0,0.0,0.0,0.0,0.0,0.0,0.0,0.0,0.0,0.0,0.0,0.0,0.0,0.0,0.0,0.0,0.0,7.5585,0.0,0.0,0.0,0.0,0.0,0.0,0.0,0.0,0.0,0.0,7.4218,7.4815,7.5365,7.476,0.0,0.0,0.0,0.0,7.5869,7.5869,7.3727,7.2135,7.2135,6.9672,6.7748,6.7748,0.0,0.0,6.697,6.7036,6.7093,6.697,6.7083,6.7036,6.697,6.5494,6.4124,6.2778,6.059,5.8335,5.6881,5.5972,5.5224,0.0,0.0,0.0,0.0,0.0,0.0,0.0,0.0,0.0,8.3916,0.0,8.4309,0.0,0.0,0.0,0.0,0.0,0.0,0.0,0.0,8.471,8.6147,8.9002,8.8661,8.9002,0.0,8.9002,8.5779,0.0,0.0,0.0,0.0,0.0,0.0,0.0,0.0,8.4697,8.6735,9.0023,9.3114,9.5876,9.6928,9.7322,9.7195,9.41,9.0352,8.6078,8.45,8.3053,0.0,0.0,0.0,0.0,0.0,0.0,0.0,0.0,0.0,0.0,0.0,0.0,0.0,0.0,0.0,0.0,0.0,0.0,0.0,0.0,0.0,0.0,0.0,6.9931,0.0,0.0,0.0,0.0,0.0,0.0,0.0,0.0,0.0,7.1551,7.146,7.1966,7.2483,7.2859,7.2816,7.2107,0.0,0.0,0.0,0.0,0.0,0.0,0.0,6.7055,6.712,6.6989,6.6801,6.6801,6.6801,6.6801,6.6801,0.0,0.0,6.1878,6.0753,6.019,5.9699,5.8088,5.6583,5.6112,5.4872,5.3951,0.0,0.0,0.0,0.0,0.0,0.0,0.0,0.0,0.0,7.9519,7.9968,0.0,0.0,0.0,0.0,0.0,0.0,0.0,0.0,0.0,0.0,0.0,8.4104,8.4371,0.0,0.0,0.0,0.0,0.0,0.0,0.0,0.0,0.0,0.0,0.0,0.0,8.0771,8.2462,8.6156,8.9545,9.2438,9.3866,9.4518,9.439,9.2222,8.8184,8.2361,0.0,0.0,0.0,0.0,0.0,0.0,0.0,0.0,0.0,0.0,0.0,0.0,0.0,0.0,0.0,0.0,0.0,0.0,0.0,0.0,0.0,0.0,0.0,0.0,0.0,6.651,0.0,0.0,0.0,0.0,0.0,0.0,0.0,0.0,0.0,0.0,0.0,6.9692,7.0243,7.0545,7.0484,6.9747,6.9561,6.9312,0.0,0.0,0.0,0.0,0.0,0.0,0.0,0.0,0.0,0.0,0.0,0.0,0.0,0.0,6.2136,5.8283,5.6912,5.6166,5.5622,0.0,0.0,0.0,0.0,0.0,0.0,0.0,0.0,0.0,0.0,0.0,0.0,0.0,0.0,0.0,7.7775,0.0,0.0,7.5622,0.0,0.0,0.0,0.0,0.0,0.0,0.0,0.0,0.0,0.0,0.0,0.0,0.0,0.0,0.0,0.0,0.0,0.0,0.0,0.0,0.0,0.0,7.65,7.832,8.1174,8.3972,8.6936,8.8322,8.7626,8.4794,8.5839,8.38,7.81,0.0,0.0,0.0,0.0,0.0,0.0,0.0,0.0,0.0,0.0,0.0,0.0,0.0,0.0,0.0,0.0,0.0,0.0,0.0,0.0,0.0,0.0,0.0,0.0,0.0,0.0,6.7328,6.7631,6.6543,0.0,0.0,0.0,0.0,0.0,0.0,0.0,0.0,0.0,6.7921,6.8557,6.869,6.7585,6.712,6.6867,6.6933,6.6801,6.6801,6.6924,6.6924,6.6801,0.0,0.0,0.0,0.0,0.0,0.0,0.0,0.0,0.0,0.0,0.0,0.0,0.0,0.0,0.0,0.0,0.0,0.0,0.0,0.0,0.0,0.0,0.0,0.0,0.0,0.0,0.0,0.0,0.0,0.0,0.0,0.0,0.0,0.0,0.0,0.0,0.0,0.0,0.0,0.0,0.0,0.0,0.0,0.0,0.0,0.0,0.0,0.0,0.0,0.0,0.0,0.0,0.0,0.0,7.4891,7.6359,7.9145,8.1465,8.3352,8.5668,8.5979,8.4165,8.2597,8.0526,0.0,0.0,0.0,0.0,0.0,0.0,0.0,0.0,0.0,0.0,0.0,0.0,0.0,0.0,0.0,0.0,0.0,0.0,0.0,0.0,0.0,0.0,0.0,0.0,0.0,0.0,0.0,0.0,6.1908,6.1251,6.0562,0.0,0.0,0.0,0.0,0.0,0.0,0.0,0.0,0.0,0.0,6.6494,6.6951,6.5751,6.5293,6.667,6.5684,6.5293,6.667,6.6801,6.6801,6.6801,0.0,0.0,0.0,0.0,0.0,0.0,0.0,0.0,0.0,0.0,0.0,0.0,0.0,0.0,0.0,0.0,0.0,0.0,0.0,0.0,0.0,0.0,0.0,0.0,0.0,0.0,0.0,0.0,0.0,0.0,0.0,0.0,0.0,0.0,0.0,0.0,0.0,0.0,0.0,0.0,0.0,0.0,0.0,0.0,0.0,0.0,0.0,0.0,0.0,0.0,0.0,0.0,0.0,7.2253,7.3247,7.5989,7.8078,7.9541,8.1132,8.1556,8.0631,7.8999,7.6971,0.0,0.0,0.0,0.0,0.0,0.0,0.0,0.0,0.0,0.0,0.0,0.0,0.0,0.0,0.0,0.0,0.0,0.0,0.0,0.0,0.0,0.0,0.0,0.0,0.0,0.0,0.0,0.0,5.7819,5.7527,5.7746,0.0,0.0,0.0,0.0,0.0,0.0,0.0,0.0,0.0,0.0,6.5014,6.5105,6.4491,0.0,0.0,6.5225,6.4684,6.6604,6.6013,6.5293,6.5161,6.3055,0.0,0.0,0.0,0.0,0.0,0.0,0.0,0.0,0.0,0.0,0.0,0.0,0.0,0.0,0.0,0.0,0.0,0.0,0.0,0.0,0.0,0.0,0.0,0.0,0.0,0.0,0.0,0.0,0.0,0.0,0.0,0.0,0.0,0.0,0.0,0.0,0.0,0.0,0.0,0.0,0.0,0.0,0.0,0.0,0.0,0.0,0.0,0.0,0.0,0.0,0.0,0.0,6.9231,6.9496,7.2101,7.4204,7.554,7.5591,7.5391,7.5054,7.5208,7.3292,0.0,0.0,0.0,0.0,0.0,0.0,0.0,0.0,0.0,0.0,0.0,0.0,0.0,0.0,0.0,0.0,0.0,0.0,0.0,0.0,0.0,0.0,0.0,0.0,0.0,0.0,0.0,0.0,0.0,0.0,0.0,0.0,0.0,0.0,0.0,0.0,0.0,0.0,0.0,0.0,0.0,6.3784,6.279,6.3202,6.4371,0.0,6.4888,6.422,6.6095,6.431,6.2626,6.2198,0.0,0.0,0.0,0.0,0.0,0.0,0.0,0.0,0.0,0.0,0.0,0.0,0.0,0.0,0.0,0.0,0.0,0.0,0.0,0.0,0.0,0.0,0.0,0.0,0.0,0.0,0.0,0.0,0.0,0.0,0.0,0.0,0.0,0.0,0.0,0.0,0.0,0.0,0.0,0.0,0.0,0.0,0.0,0.0,0.0,0.0,0.0,0.0,0.0,0.0,0.0,0.0,0.0,0.0,6.9112,7.0782,7.2254,7.3449,7.3499,7.3433,7.3366,7.26,0.0,0.0,0.0,0.0,0.0,0.0,0.0,0.0,0.0,0.0,0.0,0.0,0.0,0.0,0.0,0.0,0.0,0.0,0.0,0.0,0.0,0.0,0.0,0.0,0.0,0.0,0.0,5.3152,0.0,0.0,0.0,0.0,0.0,0.0,0.0,0.0,0.0,0.0,0.0,0.0,0.0,0.0,6.1522,6.5303,6.2701,6.1482,0.0,0.0,6.0132,6.1271,6.0901,6.0221,0.0,0.0,0.0,0.0,0.0,0.0,0.0,0.0,0.0,0.0,0.0,0.0,0.0,0.0,0.0,0.0,0.0,0.0,0.0,0.0,0.0,0.0,0.0,0.0,0.0,0.0,0.0,0.0,0.0,0.0,0.0,0.0,0.0,0.0,0.0,0.0,0.0,0.0,0.0,0.0,0.0,0.0,0.0,0.0,0.0,0.0,0.0,0.0,0.0,0.0,0.0,0.0,0.0,0.0,6.6568,6.8923,6.9625,7.0606,7.1894,7.1952,7.1952,7.1952,7.0731,6.9509,0.0,0.0,0.0,0.0,0.0,0.0,0.0,0.0,0.0,0.0,0.0,0.0,0.0,0.0,0.0,0.0,0.0,0.0,0.0,0.0,0.0,0.0,0.0,0.0,0.0,0.0,0.0,0.0,0.0,0.0,0.0,0.0,0.0,0.0,0.0,0.0,0.0,0.0,0.0,0.0,0.0,0.0,6.1193,6.0126,0.0,0.0,0.0,5.863,5.9586,0.0,0.0,0.0,0.0,0.0,0.0,0.0,0.0,0.0,0.0,0.0,0.0,0.0,0.0,0.0,0.0,0.0,0.0,0.0,0.0,0.0,0.0,0.0,0.0,0.0,0.0,0.0,0.0,0.0,0.0,0.0,0.0,0.0,0.0,0.0,0.0,0.0,0.0,0.0,0.0,0.0,0.0,0.0,0.0,0.0,0.0,0.0,0.0,0.0,0.0,0.0,0.0,0.0,0.0,0.0,0.0,0.0,6.8126,6.8414,6.9333,7.0557,7.0557,7.0688,7.0819,6.9602,6.8269,0.0,0.0,0.0,0.0,0.0,0.0,0.0,0.0,0.0,0.0,0.0,0.0,0.0,0.0,0.0,0.0,0.0,0.0,0.0,0.0,0.0,0.0,0.0,0.0,0.0,0.0,0.0,0.0,0.0,0.0,0.0,0.0,0.0,0.0,0.0,0.0,0.0,0.0,0.0,0.0,0.0,5.831,5.5297,5.6882,5.837,0.0,0.0,5.7991,5.875,5.7579,0.0,0.0,0.0,0.0,0.0,0.0,0.0,0.0,0.0,0.0,0.0,0.0,0.0,0.0,0.0,0.0,0.0,0.0,0.0,0.0,0.0,0.0,0.0,0.0,0.0,0.0,0.0,0.0,0.0,0.0,0.0,0.0,0.0,0.0,0.0,0.0,0.0,0.0,0.0,0.0,0.0,0.0,0.0,0.0,0.0,0.0,0.0,0.0,0.0,0.0,0.0,0.0,0.0,0.0,0.0,0.0,6.3858,6.6888,6.8522,6.8705,6.8564,6.9182,7.0358,6.9236,6.7469,0.0,0.0,0.0,0.0,0.0,0.0,0.0,0.0,0.0,0.0,0.0,0.0,0.0,0.0,0.0,0.0,0.0,0.0,0.0,0.0,0.0,0.0,0.0,0.0,0.0,0.0,0.0,0.0,0.0,0.0,0.0,0.0,0.0,0.0,0.0,0.0,0.0,0.0,0.0,0.0,0.0,5.4725,5.8122,5.6905,0.0,0.0,0.0,0.0,5.3902,5.2827,0.0,0.0,0.0,0.0,0.0,0.0,0.0,0.0,0.0,0.0,0.0,0.0,0.0,0.0,0.0,0.0,0.0,0.0,0.0,0.0,0.0,0.0,0.0,0.0,0.0,0.0,0.0,0.0,0.0,0.0,0.0,0.0,0.0,0.0,0.0,0.0,0.0,0.0,0.0,0.0,0.0,0.0,0.0,0.0,0.0,0.0,0.0,0.0,0.0,0.0,0.0,0.0,0.0,0.0,0.0,0.0,6.3537,6.4561,6.5812,6.7221,6.6866,6.7096,6.8012,6.6423,6.4531,0.0,0.0,0.0,0.0,0.0,0.0,0.0,0.0,0.0,0.0,0.0,0.0,0.0,0.0,0.0,0.0,0.0,0.0,0.0,0.0,0.0,0.0,0.0,0.0,0.0,0.0,0.0,0.0,0.0,0.0,0.0,0.0,0.0,0.0,0.0,0.0,0.0,0.0,0.0,0.0,5.2348,5.335,5.4697,0.0,0.0,0.0,0.0,0.0,0.0,5.1516,5.1002,0.0,0.0,0.0,0.0,0.0,0.0,0.0,0.0,0.0,0.0,0.0,0.0,0.0,0.0,0.0,0.0,0.0,0.0,0.0,0.0,0.0,0.0,0.0,0.0,0.0,0.0,0.0,0.0,0.0,0.0,0.0,0.0,0.0,0.0,0.0,0.0,0.0,0.0,0.0,0.0,0.0,0.0,0.0,0.0,0.0,0.0,0.0,0.0,0.0,0.0,0.0,0.0,0.0,0.0,0.0,6.2994,6.1987,6.2731,6.5253,6.4985,6.5092,6.545,6.3333,6.1128,5.8865,0.0,0.0,0.0,0.0,0.0,0.0,0.0,0.0,0.0,0.0,0.0,0.0,0.0,0.0,0.0,0.0,0.0,0.0,0.0,0.0,0.0,0.0,0.0,0.0,0.0,0.0,0.0,0.0,0.0,0.0,0.0,0.0,0.0,0.0,0.0,0.0,0.0,0.0,0.0,5.1622,5.2419,0.0,0.0,0.0,0.0,0.0,0.0,0.0,0.0,5.0648,0.0,0.0,0.0,0.0,0.0,0.0,0.0,0.0,0.0,0.0,0.0,0.0,0.0,0.0,0.0,0.0,0.0,0.0,0.0,0.0,0.0,0.0,0.0,0.0,0.0,0.0,0.0,0.0,0.0,0.0,0.0,0.0,0.0,0.0,0.0,0.0,0.0,0.0,0.0,0.0,0.0,0.0,0.0,0.0,0.0,0.0,0.0,0.0,0.0,0.0,0.0,0.0,0.0,0.0,0.0,0.0,5.9306,6.1293,6.1558,6.2393,6.3383,6.4617,6.2525,5.9152,5.438,0.0,0.0,0.0,0.0,0.0,0.0,0.0,0.0,0.0,0.0,0.0,0.0,0.0,0.0,0.0,0.0,0.0,0.0,0.0,0.0,0.0,0.0,0.0,0.0,0.0,0.0,0.0,0.0,0.0,0.0,0.0,0.0,0.0,0.0,0.0,0.0,0.0,0.0,4.8077,4.9077,0.0,0.0,0.0,0.0,0.0,0.0,0.0,0.0,4.796,0.0,0.0,0.0,0.0,0.0,0.0,0.0,0.0,0.0,0.0,0.0,0.0,0.0,0.0,0.0,0.0,0.0,0.0,0.0,0.0,0.0,0.0,0.0,0.0,0.0,0.0,0.0,0.0,0.0,0.0,0.0,0.0,0.0,0.0,0.0,0.0,0.0,0.0,0.0,0.0,0.0,0.0,0.0,0.0,0.0,0.0,0.0,0.0,0.0,0.0,0.0,0.0,0.0,0.0,0.0,0.0,0.0,0.0,5.8398,5.9729,5.9947,6.0499,6.1181,5.8436,5.5714,0.0,0.0,0.0,0.0,0.0,0.0,0.0,0.0,0.0,0.0,0.0,0.0,0.0,0.0,0.0,0.0,0.0,0.0,0.0,0.0,0.0,0.0,0.0,0.0,0.0,0.0,0.0,0.0,0.0,0.0,0.0,0.0,0.0,0.0,0.0,0.0,0.0,0.0,0.0,0.0,0.0,0.0,0.0,0.0,0.0,0.0,0.0,0.0,0.0,0.0,0.0,0.0,0.0,0.0,0.0,0.0,0.0,0.0,0.0,0.0,0.0,0.0,0.0,0.0,0.0,0.0,0.0,0.0,0.0,0.0,0.0,0.0,0.0,0.0,0.0,0.0,0.0,0.0,0.0,0.0,0.0,0.0,0.0,0.0,0.0,0.0,0.0,0.0,0.0,0.0,0.0,0.0,0.0,0.0,0.0,0.0,0.0,0.0,0.0,0.0,0.0,0.0,0.0,0.0,0.0,0.0,0.0,0.0,5.5537,5.8064,5.7574,5.7449,5.7943,5.4828,5.281,0.0,0.0,0.0,0.0,0.0,0.0,0.0,0.0,0.0,0.0,0.0,0.0,0.0,0.0,0.0,0.0,0.0,0.0,0.0,0.0,0.0,0.0,0.0,0.0,0.0,0.0,0.0,0.0,0.0,0.0,0.0,0.0,0.0,0.0,0.0,0.0,0.0,0.0,0.0,0.0,0.0,0.0,0.0,0.0,0.0,0.0,0.0,0.0,4.501,0.0,0.0,0.0,0.0,0.0,0.0,0.0,0.0,0.0,0.0,0.0,0.0,0.0,0.0,0.0,0.0,0.0,0.0,0.0,0.0,0.0,0.0,0.0,0.0,0.0,0.0,0.0,0.0,0.0,0.0,0.0,0.0,0.0,0.0,0.0,0.0,0.0,0.0,0.0,0.0,0.0,0.0,0.0,0.0,0.0,0.0,0.0,0.0,0.0,0.0,0.0,0.0,0.0,0.0,0.0,0.0,0.0,0.0,0.0,5.3807,5.5051,5.5029,5.5446,5.6275,5.4225,5.2127,0.0,0.0,0.0,0.0,0.0,0.0,0.0,0.0,0.0,0.0,0.0,0.0,0.0,0.0,0.0,0.0,0.0,0.0,0.0,0.0,0.0,0.0,0.0,0.0,0.0,0.0,0.0,0.0,0.0,0.0,0.0,0.0,0.0,0.0,0.0,0.0,0.0,0.0,0.0,0.0,0.0,0.0,0.0,0.0,0.0,0.0,0.0,0.0,0.0,0.0,0.0,0.0,0.0,0.0,0.0,0.0,0.0,0.0,0.0,0.0,0.0,0.0,0.0,0.0,0.0,0.0,0.0,0.0,0.0,0.0,0.0,0.0,0.0,0.0,0.0,0.0,0.0,0.0,0.0,0.0,0.0,0.0,0.0,0.0,0.0,0.0,0.0,0.0,0.0,0.0,0.0,0.0,0.0,0.0,0.0,0.0,0.0,0.0,0.0,0.0,0.0,0.0,0.0,0.0,0.0,0.0,0.0,0.0,5.3318,5.3688,5.4323,5.3801,5.2136,5.1457,5.0662,0.0,0.0,0.0,0.0,0.0,0.0,0.0,0.0,0.0,0.0,0.0,0.0,0.0,0.0,0.0,0.0,0.0,0.0,0.0,0.0,0.0,0.0,0.0,0.0,0.0,0.0,0.0,0.0,0.0,0.0,0.0,0.0,0.0,0.0,0.0,0.0,0.0,0.0,0.0,0.0,0.0,0.0,0.0,0.0,0.0,0.0,0.0,0.0,0.0,0.0,0.0,0.0,0.0,0.0,0.0,0.0,0.0,0.0,0.0,0.0,0.0,0.0,0.0,0.0,0.0,0.0,0.0,0.0,0.0,0.0,0.0,0.0,0.0,0.0,0.0,0.0,0.0,0.0,0.0,0.0,0.0,0.0,0.0,0.0,0.0,0.0,0.0,0.0,0.0,0.0,0.0,0.0,0.0,0.0,0.0,0.0,0.0,0.0,0.0,0.0,0.0,0.0,0.0,0.0,0.0,0.0,0.0,0.0,0.0,5.2065,5.279,5.2104,4.9957,4.9399,4.9249,0.0,0.0,0.0,0.0,0.0,0.0,0.0,0.0,0.0,0.0,0.0,0.0,0.0,0.0,0.0,0.0,0.0,0.0,0.0,0.0,0.0,0.0,0.0,0.0,0.0,0.0,0.0,0.0,0.0,0.0,0.0,0.0,0.0,0.0,0.0,0.0,0.0,0.0,0.0,0.0,0.0,0.0,0.0,0.0,0.0,0.0,0.0,0.0,0.0,0.0,0.0,0.0,0.0,0.0,0.0,0.0,0.0,0.0,0.0,0.0,0.0,0.0,0.0,0.0,0.0,0.0,0.0,0.0,0.0,0.0,0.0,0.0,0.0,0.0,0.0,0.0,0.0,0.0,0.0,0.0,0.0,0.0,0.0,0.0,0.0,0.0,0.0,0.0,0.0,0.0,0.0,0.0,0.0,0.0,0.0,0.0,0.0,0.0,0.0,0.0,0.0,0.0,0.0,0.0,0.0,0.0,0.0,0.0,0.0,4.941,4.9457,5.0073,5.1194,4.8934,4.7937,0.0,0.0,0.0,0.0,0.0,0.0,0.0,0.0,0.0,0.0,0.0,0.0,0.0,0.0,0.0,0.0,0.0,0.0,0.0,0.0,0.0,0.0,0.0,0.0,0.0,0.0,0.0,0.0,0.0,0.0,0.0,0.0,0.0,0.0,0.0,0.0,0.0,0.0,0.0,0.0,0.0,0.0,0.0,0.0,0.0,0.0,0.0,0.0,0.0,0.0,0.0,0.0,0.0,0.0,0.0,0.0,0.0,0.0,0.0,0.0,0.0,0.0,0.0,0.0,0.0,0.0,0.0,0.0,0.0,0.0,0.0,0.0,0.0,0.0,0.0,0.0,0.0,0.0,0.0,0.0,0.0,0.0,0.0,0.0,0.0,0.0,0.0,0.0,0.0,0.0,0.0,0.0,0.0,0.0,0.0,0.0,0.0,0.0,0.0,0.0,0.0,0.0,0.0,0.0,0.0,0.0,0.0,0.0,0.0,4.5872,4.651,4.7083,4.7249,4.5527,4.5428,4.7123,0.0,0.0,0.0,0.0,0.0,0.0,0.0,0.0,0.0,0.0,0.0,0.0,0.0,0.0,0.0,0.0,0.0,0.0,0.0,0.0,0.0,0.0,0.0,0.0,0.0,0.0,0.0,0.0,0.0,0.0,0.0,0.0,0.0,0.0,0.0,0.0,0.0,0.0,0.0,0.0,0.0,0.0,0.0,0.0,0.0,0.0,0.0,0.0,0.0,0.0,0.0,0.0,0.0,0.0,0.0,0.0,0.0,0.0,0.0,0.0,0.0,0.0,0.0,0.0,0.0,0.0,0.0,0.0,0.0,0.0,0.0,0.0,0.0,0.0,0.0,0.0,0.0,0.0,0.0,0.0,0.0,0.0,0.0,0.0,0.0,0.0,0.0,0.0,0.0,0.0,0.0,0.0,0.0,0.0,0.0,0.0,0.0,0.0,0.0,0.0,0.0,0.0,0.0,0.0,0.0,0.0,0.0,0.0,4.4367,4.4727,4.4956,4.4937,4.3101,4.3342,0.0,0.0,0.0,0.0,0.0,0.0,0.0,0.0,0.0,0.0,0.0,0.0,0.0,0.0,0.0,0.0,0.0,0.0,0.0,0.0,0.0,0.0,0.0,0.0,0.0,0.0,0.0,0.0,0.0,0.0,0.0,0.0,0.0,0.0,0.0,0.0,0.0,0.0,0.0,0.0,0.0,0.0,0.0,0.0,0.0,0.0,0.0,0.0,0.0,0.0,0.0,0.0,0.0,0.0,0.0,0.0,0.0,0.0,0.0,0.0,0.0,0.0,0.0,0.0,0.0,0.0,0.0,0.0,0.0,0.0,0.0,0.0,0.0,0.0,0.0,0.0,0.0,0.0,0.0,0.0,0.0,0.0,0.0,0.0,0.0,0.0,0.0,0.0,0.0,0.0,0.0,0.0,0.0,0.0,0.0,0.0,0.0,0.0,0.0,0.0,0.0,0.0,0.0,0.0,0.0,0.0,0.0,0.0,4.7214,4.5587,4.4222,4.4108,4.5501,4.2369,4.1983,0.0,0.0,0.0,0.0,0.0,0.0,0.0,0.0,0.0,0.0,0.0,0.0,0.0,0.0,0.0,0.0,0.0,0.0,0.0,0.0,0.0,0.0,0.0,0.0,0.0,0.0,0.0,0.0,0.0,0.0,0.0,0.0,0.0,0.0,0.0,0.0,0.0,0.0,0.0,0.0,0.0,0.0,0.0,0.0,0.0,0.0,0.0,0.0,0.0,0.0,0.0,0.0,0.0,0.0,0.0,0.0,0.0,0.0,0.0,0.0,0.0,0.0,0.0,0.0,0.0,0.0,0.0,0.0,0.0,0.0,0.0,0.0,0.0,0.0,0.0,0.0,0.0,0.0,0.0,0.0,0.0,0.0,0.0,0.0,0.0,0.0,0.0,0.0,0.0,0.0,0.0,0.0,0.0,0.0,0.0,0.0,0.0,0.0,0.0,0.0,0.0,0.0,0.0,0.0,0.0,0.0,0.0,0.0,0.0,4.192,0.0,4.1361,0.0,4.0541,4.0828,0.0,0.0,0.0,0.0,0.0,0.0,0.0,0.0,0.0,0.0,0.0,0.0,0.0,0.0,0.0,0.0,0.0,0.0,0.0,0.0,0.0,0.0,0.0,0.0,0.0,0.0,0.0,0.0,0.0,0.0,0.0,0.0,0.0,0.0,0.0,0.0,0.0,0.0,0.0,0.0,0.0,0.0,0.0,0.0,0.0,0.0,0.0,0.0,0.0,0.0,0.0,0.0,0.0,0.0,0.0,0.0,0.0,0.0,0.0,0.0,0.0,0.0,0.0,0.0,0.0,0.0,0.0,0.0,0.0,0.0,0.0,0.0,0.0,0.0,0.0,0.0,0.0,0.0,0.0,0.0,0.0,0.0,0.0,0.0,0.0,0.0,0.0,0.0,0.0,0.0,0.0,0.0,0.0,0.0,0.0,0.0,0.0,0.0,0.0,0.0,0.0,0.0,0.0,0.0,0.0,0.0,0.0,0.0,0.0,4.0917,4.0355,3.9887,3.9564,3.9067,3.9357,0.0,0.0,0.0,0.0,0.0,0.0,0.0,0.0,0.0,0.0,0.0,0.0,0.0,0.0,0.0,0.0,0.0,0.0,0.0,0.0,0.0,0.0,0.0,0.0,0.0,0.0,0.0,0.0,0.0,0.0,0.0,0.0,0.0,0.0,0.0,0.0,0.0,0.0,0.0,0.0,0.0,0.0,0.0,0.0,0.0,0.0,0.0,0.0,0.0,0.0,0.0,0.0,0.0,0.0,0.0,0.0,0.0,0.0,0.0,0.0,0.0,0.0,0.0,0.0,0.0,0.0,0.0,0.0,0.0,0.0,0.0,0.0,0.0,0.0,0.0,0.0,0.0,0.0,0.0,0.0,0.0,0.0,0.0,0.0,0.0,0.0,0.0,0.0,0.0,0.0,0.0,0.0,0.0,0.0,0.0,0.0,0.0,0.0,0.0,0.0,0.0,0.0,0.0,0.0,0.0,0.0,0.0,0.0,0.0,4.2142,4.0767,3.956,3.8874,3.8037,3.7822,0.0,0.0,0.0,0.0,0.0,0.0,0.0,0.0,0.0,0.0,0.0,0.0,0.0,0.0,0.0,0.0,0.0,0.0,0.0,0.0,0.0,0.0,0.0,0.0,0.0,0.0,0.0,0.0,0.0,0.0,0.0,0.0,0.0,0.0,0.0,0.0,0.0,0.0,0.0,0.0,0.0,0.0,0.0,0.0,0.0,0.0,0.0,0.0,0.0,0.0,0.0,0.0,0.0,0.0,0.0,0.0,0.0,0.0,0.0,0.0,0.0,0.0,0.0,0.0,0.0,0.0,0.0,0.0,0.0,0.0,0.0,0.0,0.0,0.0,0.0,0.0,0.0,0.0,0.0,0.0,0.0,0.0,0.0,0.0,0.0,0.0,0.0,0.0,0.0,0.0,0.0,0.0,0.0,0.0,0.0,0.0,0.0,0.0,0.0,0.0,0.0,0.0,0.0,0.0,0.0,0.0,0.0,0.0,0.0,0.0,4.028,3.9939,3.9635,3.9199,3.8404,3.7396,0.0,0.0,0.0,0.0,0.0,0.0,0.0,0.0,0.0,0.0,0.0,0.0,0.0,0.0,0.0,0.0,0.0,0.0,0.0,0.0,0.0,0.0,0.0,0.0,0.0,0.0,0.0,0.0,0.0,0.0,0.0,0.0,0.0,0.0,0.0,0.0,0.0,0.0,0.0,0.0,0.0,0.0,0.0,0.0,0.0,0.0,0.0,0.0,0.0,0.0,0.0,0.0,0.0,0.0,0.0,0.0,0.0,0.0,0.0,0.0,0.0,0.0,0.0,0.0,0.0,0.0,0.0,0.0,0.0,0.0,0.0,0.0,0.0,0.0,0.0,0.0,0.0,0.0,0.0,0.0,0.0,0.0,0.0,0.0,0.0,0.0,0.0,0.0,0.0,0.0,0.0,0.0,0.0,0.0,0.0,0.0,0.0,0.0,0.0,0.0,0.0,0.0,0.0,0.0,0.0,0.0,0.0,0.0,0.0,0.0,4.0053,4.0053,3.9101,3.7915,0.0,0.0,0.0,0.0,0.0,0.0,0.0,0.0,0.0,0.0,0.0,0.0,0.0,0.0,0.0,0.0,0.0,0.0,0.0,0.0,0.0,0.0,0.0,0.0,0.0,0.0,0.0,0.0,0.0,0.0,0.0,0.0,0.0,0.0,0.0,0.0,0.0,0.0,0.0,0.0,0.0,0.0,0.0,0.0,0.0,0.0,0.0,0.0,0.0,0.0,0.0,0.0,0.0,0.0,0.0,0.0,0.0,0.0,0.0,0.0,0.0,0.0,0.0,0.0,0.0,0.0,0.0,0.0,0.0,0.0,0.0,0.0,0.0,0.0,0.0,0.0,0.0,0.0,0.0,0.0,0.0,0.0,0.0,0.0,0.0,0.0,0.0,0.0,0.0,0.0,0.0,0.0,0.0,0.0,0.0,0.0,0.0,0.0,0.0,0.0,0.0,0.0,0.0,0.0,0.0,0.0,0.0,0.0,0.0,0.0,0.0,4.0015,3.9939,3.838,0.0,3.5365,0.0,0.0,0.0,0.0,0.0,0.0,0.0,0.0,0.0,0.0,0.0,0.0,0.0,0.0,0.0,0.0,0.0,0.0,0.0,0.0,0.0,0.0,0.0,0.0,0.0,0.0,0.0,0.0,0.0,0.0,0.0,0.0,0.0,0.0,0.0,0.0,0.0,0.0,0.0,0.0,0.0,0.0,0.0,0.0,0.0,0.0,0.0,0.0,0.0,0.0,0.0,0.0,0.0,0.0,0.0,0.0,0.0,0.0,0.0,0.0,0.0,0.0,0.0,0.0,0.0,0.0,0.0,0.0,0.0,0.0,0.0,0.0,0.0,0.0,0.0,0.0,0.0,0.0,0.0,0.0,0.0,0.0,0.0,0.0,0.0,0.0,0.0,0.0,0.0,0.0,0.0,0.0,0.0,0.0,0.0,0.0,0.0,0.0,0.0,0.0,0.0,0.0,0.0,0.0,0.0,0.0,0.0,0.0,0.0,0.0,0.0,0.0,3.8004,3.7016,3.5991,0.0,0.0,0.0,0.0,0.0,0.0,0.0,0.0,0.0,0.0,0.0,0.0,0.0,0.0,0.0,0.0,0.0,0.0,0.0,0.0,0.0,0.0,0.0,0.0,0.0,0.0,0.0,0.0,0.0,0.0,0.0,0.0,0.0,0.0,0.0,0.0,0.0,0.0,0.0,0.0,0.0,0.0,0.0,0.0,0.0,0.0,0.0,0.0,0.0,0.0,0.0,0.0,0.0,0.0,0.0,0.0,0.0,0.0,0.0,0.0,0.0,0.0,0.0,0.0,0.0,0.0,0.0,0.0,0.0,0.0,0.0,0.0,0.0,0.0,0.0,0.0,0.0,0.0,0.0,0.0,0.0,0.0,0.0,0.0,0.0,0.0,0.0,0.0,0.0,0.0,0.0,0.0,0.0,0.0,0.0,0.0,0.0,0.0,0.0,0.0,0.0,0.0,0.0,0.0,0.0,0.0,0.0,0.0,0.0,0.0,3.9373,3.847,3.7856,3.7092,3.6189,0.0,0.0,0.0,0.0,0.0,0.0,0.0,0.0,0.0,0.0,0.0,0.0,0.0,0.0,0.0,0.0,0.0,0.0,0.0,0.0,0.0,0.0,0.0,0.0,0.0,0.0,0.0,0.0,0.0,0.0,0.0,0.0,0.0,0.0,0.0,0.0,0.0,0.0,0.0,0.0,0.0,0.0,0.0,0.0,0.0,0.0,0.0,0.0,0.0,0.0,0.0,0.0,0.0,0.0,0.0,0.0,0.0,0.0,0.0,0.0,0.0,0.0,0.0,0.0,0.0,0.0,0.0,0.0,0.0,0.0,0.0,0.0,0.0,0.0,0.0,0.0,0.0,0.0,0.0,0.0,0.0,0.0,0.0,0.0,0.0,0.0,0.0,0.0,0.0,0.0,0.0,0.0,0.0,0.0,0.0,0.0,0.0,0.0,0.0,0.0,0.0,0.0,0.0,0.0,0.0,0.0,0.0,0.0,0.0,0.0,0.0,0.0,0.0,0.0,3.5969,0.0,0.0,0.0,0.0,0.0,0.0,0.0,0.0,0.0,0.0,0.0,0.0,0.0,0.0,0.0,0.0,0.0,0.0,0.0,0.0,0.0,0.0,0.0,0.0,0.0,0.0,0.0,0.0,0.0,0.0,0.0,0.0,0.0,0.0,0.0,0.0,0.0,0.0,0.0,0.0,0.0,0.0,0.0,0.0,0.0,0.0,0.0,0.0,0.0,0.0,0.0,0.0,0.0,0.0,0.0,0.0,0.0,0.0,0.0,0.0,0.0,0.0,0.0,0.0,0.0,0.0,0.0,0.0,0.0,0.0,0.0,0.0,0.0,0.0,0.0,0.0,0.0,0.0,0.0,0.0,0.0,0.0,0.0,0.0,0.0,0.0,0.0,0.0,0.0,0.0,0.0,0.0,0.0,0.0,0.0,0.0,0.0,0.0,0.0,0.0,0.0,0.0,0.0,0.0,0.0,0.0,0.0,0.0,0.0,0.0,0.0,0.0,0.0,0.0,0.0,0.0,0.0,0.0,0.0,0.0,0.0,0.0,0.0,0.0,0.0,0.0,0.0,0.0,0.0,0.0,0.0,0.0,0.0,0.0,0.0,0.0,0.0,0.0,0.0,0.0,0.0,0.0,0.0,0.0,0.0,0.0,0.0,0.0,0.0,0.0,0.0,0.0,0.0,0.0,0.0,0.0,0.0,0.0,0.0,0.0,0.0,0.0,0.0,0.0,0.0,0.0,0.0,0.0,0.0,0.0,0.0,0.0,0.0,0.0,0.0,0.0,0.0,0.0,0.0,0.0,0.0,0.0,0.0,0.0,0.0,0.0,0.0,0.0,0.0,0.0,0.0,0.0,0.0,0.0,0.0,0.0,0.0,0.0,0.0,0.0,0.0,0.0,0.0,0.0,0.0,0.0,0.0,0.0,0.0,0.0,0.0,0.0,0.0,0.0,0.0,0.0,0.0,0.0,0.0,0.0,0.0,0.0,0.0,0.0,0.0,0.0,0.0,0.0,0.0,0.0,0.0,0.0,0.0,0.0,0.0,0.0,0.0,0.0,0.0,0.0,0.0,0.0,0.0,0.0,0.0,0.0,0.0,0.0,0.0,0.0,0.0,0.0,0.0,0.0,0.0,0.0,0.0,0.0,0.0,0.0,0.0,0.0,0.0,0.0,0.0,0.0,0.0,0.0,0.0,0.0,0.0,0.0,0.0,0.0,0.0,0.0,0.0,0.0,0.0,0.0,0.0,0.0,0.0,0.0,0.0,0.0,0.0,0.0,0.0,0.0,0.0,0.0,0.0,0.0,0.0,0.0,0.0,0.0,0.0,0.0,0.0,0.0,0.0,0.0,0.0,0.0,0.0,0.0,0.0,0.0,0.0,0.0,0.0,0.0,0.0,0.0,0.0,0.0,0.0,0.0,0.0,0.0,0.0,0.0,0.0,0.0,0.0,0.0,0.0,0.0,0.0,0.0,0.0,0.0,0.0,0.0,0.0,0.0,0.0,0.0,0.0,0.0,0.0,0.0,0.0,0.0,0.0,0.0,0.0,0.0,0.0,0.0,0.0,0.0,0.0,0.0,0.0,0.0,0.0,0.0,0.0,0.0,0.0,0.0,0.0,0.0,0.0,0.0,0.0,0.0,0.0,0.0,0.0,0.0,0.0,0.0,0.0,0.0,0.0,0.0,0.0,0.0,0.0,0.0,0.0,0.0,0.0,0.0,0.0,0.0,0.0,0.0,0.0,0.0,0.0,0.0,0.0,0.0,0.0,0.0,0.0,0.0,0.0,0.0,0.0,0.0,0.0,0.0,0.0,0.0,0.0,0.0,0.0,0.0,0.0,0.0,0.0,0.0,0.0,0.0,0.0,0.0,0.0,0.0,0.0,0.0,0.0,0.0,0.0,0.0,0.0,0.0,0.0,0.0,0.0,0.0,0.0,0.0,0.0,0.0,0.0,0.0,0.0,0.0,0.0,0.0,0.0,0.0,0.0,0.0,0.0,0.0,0.0,0.0,0.0,0.0,0.0,0.0,0.0,0.0,0.0,0.0,0.0,0.0,0.0,0.0,0.0,0.0,0.0,0.0,0.0,0.0,0.0,0.0,0.0,0.0,0.0,0.0,0.0,0.0,0.0,0.0,0.0,0.0,0.0,0.0,0.0,0.0,0.0,0.0,0.0,0.0,0.0,0.0,0.0,0.0,0.0,0.0,0.0,0.0,0.0,0.0,0.0,0.0,0.0,0.0,0.0,0.0,0.0,0.0,0.0,0.0,0.0,0.0,0.0,0.0,0.0,0.0,0.0,0.0,0.0,0.0,0.0,0.0,0.0,0.0,0.0,0.0,0.0,0.0,0.0,0.0,0.0,0.0,0.0,0.0,0.0,0.0,0.0,0.0,0.0,0.0,0.0,0.0,0.0,0.0,0.0,0.0,0.0,0.0,0.0,0.0,0.0,0.0,0.0,0.0,0.0,0.0,0.0,0.0,0.0,0.0,0.0,0.0,0.0,0.0,0.0,0.0,0.0,0.0,0.0,0.0,0.0,0.0,0.0,0.0,0.0,0.0,0.0,0.0,0.0,0.0,0.0,0.0,0.0,0.0,0.0,0.0,0.0,0.0,0.0,0.0,0.0,0.0,0.0,0.0,0.0,0.0,0.0,0.0,0.0,0.0,0.0,0.0,0.0,0.0,0.0,0.0,0.0,0.0,0.0,0.0,0.0,0.0,0.0,0.0,0.0,0.0,0.0,0.0,0.0,0.0,0.0,0.0,0.0,0.0,0.0,0.0,0.0,0.0,0.0,0.0,0.0,0.0,0.0,0.0,0.0,0.0,0.0,0.0,0.0,0.0,0.0,0.0,0.0,0.0,0.0,0.0,0.0,0.0,0.0,0.0,0.0,0.0,0.0,0.0,0.0,0.0,0.0,0.0,0.0,0.0,0.0,0.0,0.0,0.0,0.0,0.0,0.0,0.0,0.0,0.0,0.0,0.0,0.0,0.0,0.0,0.0,0.0,0.0,0.0,0.0,0.0,0.0,0.0,0.0,0.0,0.0,0.0,0.0,0.0,0.0,0.0,0.0,0.0,0.0,0.0,0.0,0.0,0.0,0.0,0.0,0.0,0.0,0.0,0.0,0.0,0.0,0.0,0.0,0.0,0.0,0.0,0.0,0.0,0.0,0.0,0.0,0.0,0.0,0.0,0.0,0.0,0.0,0.0,0.0,0.0,0.0,0.0,0.0,0.0,0.0,0.0,0.0,0.0,0.0,0.0,0.0,0.0,0.0,0.0,0.0,0.0,0.0,0.0,0.0,0.0,0.0,0.0,0.0,0.0,0.0,0.0,0.0,0.0,0.0,0.0,0.0,0.0,0.0,0.0,0.0,0.0,0.0,0.0,0.0,0.0,0.0,0.0,0.0,0.0,0.0,0.0,0.0,0.0,0.0,0.0,0.0,0.0,0.0,0.0,0.0,0.0,0.0,0.0,0.0,0.0,0.0,0.0,0.0,0.0,0.0,0.0,0.0,0.0,0.0,0.0,0.0,0.0,0.0,0.0,0.0,0.0,0.0,0.0,0.0,0.0,0.0,0.0,0.0,0.0,0.0,0.0,0.0,0.0,0.0,0.0,0.0,0.0,0.0,0.0,0.0,0.0,0.0,0.0,0.0,0.0,0.0,0.0,0.0,0.0,0.0,0.0,0.0,0.0,0.0,0.0,0.0,0.0,0.0,0.0,0.0,0.0,0.0,0.0,0.0,0.0,0.0,0.0,0.0,0.0,0.0,0.0,0.0,0.0,0.0,0.0,0.0,0.0,0.0,0.0,0.0,0.0,0.0,0.0,0.0,0.0,0.0,0.0,0.0,0.0,0.0,0.0,0.0,0.0,0.0,0.0,0.0,0.0,0.0,0.0,0.0,0.0,0.0,0.0,0.0,0.0,0.0,0.0,0.0,0.0,0.0,0.0,0.0,0.0,0.0,0.0,0.0,0.0,0.0,0.0,0.0,0.0,0.0,0.0,0.0,0.0,0.0,0.0,0.0,0.0,0.0,0.0,0.0,0.0,0.0,0.0,0.0,0.0,0.0,0.0,0.0,0.0,0.0,0.0,0.0,0.0,0.0,0.0,0.0,0.0,0.0,0.0,0.0,0.0,0.0,0.0,0.0,0.0,0.0,0.0,0.0,0.0,0.0,0.0,0.0,0.0,0.0,0.0,0.0,0.0,0.0,0.0,0.0,0.0,0.0,0.0,0.0,0.0,0.0,0.0,0.0,0.0,0.0,0.0,0.0,0.0,0.0,0.0,0.0,0.0,0.0,0.0,0.0,0.0,0.0,0.0,0.0,0.0,0.0,0.0,0.0,0.0,0.0,0.0,0.0,0.0,0.0]}]]]